[[{"header":{"parameterUnit":"m.s-1","parameterCategory":1,"la1":31.0,"la2":29.5877,"lo1":-88.7671,"lo2":-86.6584,"dy":0.0162,"dx":0.0185,"nx":115,"ny":88,"refTime":"2024-05-20T18:00:00:Z","depth":0,"parameterNumber":2,"parameterNumberName":"U-component_of_WINDS"},"data":[0.0,0.0,0.0,0.0,0.0,0.0,0.0,0.0,0.0,0.0,0.0,0.0,0.0,0.0,0.0,0.0,0.0,0.0,0.0,0.0,0.0,0.0,0.0,0.0,0.0,0.0,0.0,0.0,0.0,0.0,0.0,0.0,0.0,0.0,0.0,0.0,0.0,0.0,0.0,0.0,0.0,0.0,0.0,0.0,0.0,0.0,0.0,0.0,0.0,0.0,0.0,0.0,0.0,0.0,0.0,0.0,0.0,0.0,0.0,0.0,0.0,0.0,0.0,0.0,0.0,0.0,0.0,0.0,0.0,0.0,0.0,0.0,0.0,0.0,0.0,0.0,0.0,0.0,0.0,0.0,0.0,0.0,0.0,0.0,0.0,0.0,0.0,0.0,0.0,0.0,0.0,0.0,0.0,0.0,0.0,0.0,0.0,0.0,0.0,0.0,0.0,0.0,0.0,0.0,0.0,0.0,0.0,0.0,0.0,0.0,0.0,0.0,0.0,0.0,0.0,0.0,0.0,0.0,0.0,0.0,0.0,0.0,0.0,0.0,0.0,0.0,0.0,0.0,0.0,0.0,0.0,0.0,0.0,0.0,0.0,0.0,0.0,0.0,0.0,0.0,0.0,0.0,0.0,0.0,0.0,0.0,0.0,0.0,0.0,0.0,0.0,0.0,0.0,0.0,0.0,0.0,0.0,0.0,0.0,0.0,0.0,0.0,0.0,0.0,0.0,0.0,0.0,0.0,0.0,0.0,0.0,0.0,0.0,0.0,0.0,0.0,0.0,0.0,0.0,0.0,0.0,0.0,0.0,0.0,0.0,0.0,0.0,0.0,0.0,0.0,0.0,0.0,0.0,0.0,0.0,0.0,0.0,0.0,0.0,0.0,0.0,0.0,0.0,0.0,0.0,0.0,0.0,0.0,0.0,0.0,0.0,0.0,0.0,0.0,0.0,0.0,0.0,0.0,0.0,0.0,0.0,0.0,0.0,0.0,0.0,0.0,0.0,0.0,0.0,0.0,0.0,0.0,0.0,0.0,0.0,0.0,0.0,0.0,0.0,0.0,0.0,0.0,0.0,0.0,0.0,0.0,0.0,0.0,0.0,0.0,0.0,0.0,0.0,0.0,0.0,0.0,0.0,0.0,0.0,0.0,0.0,0.0,0.0,0.0,0.0,0.0,0.0,0.0,0.0,0.0,0.0,0.0,0.0,0.0,0.0,0.0,0.0,0.0,0.0,0.0,0.0,0.0,0.0,0.0,0.0,0.0,0.0,0.0,0.0,0.0,0.0,0.0,0.0,0.0,0.0,0.0,0.0,0.0,0.0,0.0,0.0,0.0,0.0,0.0,0.0,0.0,0.0,0.0,0.0,0.0,0.0,0.0,0.0,0.0,0.0,0.0,0.0,0.0,0.0,0.0,0.0,0.0,0.0,0.0,0.0,0.0,0.0,0.0,0.0,0.0,0.0,0.0,0.0,0.0,0.0,0.0,0.0,0.0,0.0,0.0,0.0,0.0,0.0,0.0,0.0,0.0,0.0,0.0,0.0,0.0,0.0,0.0,0.0,0.0,0.0,0.0,0.0,0.0,0.0,0.0,0.0,0.0,0.0,0.0,0.0,0.0,0.0,0.0,0.0,0.0,0.0,0.0,0.0,0.0,0.0,0.0,0.0,0.0,0.0,0.0,0.0,0.0,0.0,0.0,0.0,0.0,0.0,0.0,0.0,0.0,0.0,0.0,0.0,0.0,0.0,0.0,0.0,0.0,0.0,0.0,0.0,0.0,0.0,0.0,0.0,0.0,0.0,0.0,0.0,0.0,0.0,0.0,0.0,0.0,0.0,0.0,0.0,0.0,0.0,0.0,0.0,0.0,0.0,0.0,0.0,0.0,0.0,0.0,0.0,0.0,0.0,0.0,0.0,0.0,0.0,0.0,0.0,0.0,0.0,0.0,0.0,0.0,0.0,0.0,0.0,0.0,0.0,0.0,0.0,0.0,0.0,0.0,0.0,0.0,0.0,0.0,0.0,0.0,0.0,0.0,0.0,0.0,0.0,0.0,0.0,0.0,0.0,0.0,0.0,0.0,0.0,0.0,0.0,0.0,0.0,0.0,0.0,0.0,0.0,0.0,0.0,0.0,0.0,0.0,0.0,0.0,0.0,0.0,0.0,0.0,0.0,0.0,0.0,0.0,0.0,0.0,0.0,0.0,0.0,0.0,0.0,0.0,0.0,0.0,0.0,0.0,0.0,0.0,0.0,0.0,0.0,0.0,0.0,0.0,0.0,0.0,0.0,0.0,0.0,0.0,0.0,0.0,0.0,0.0,0.0,0.0,0.0,0.0,0.0,0.0,0.0,0.0,0.0,0.0,0.0,0.0,0.0,0.0,0.0,0.0,0.0,0.0,0.0,0.0,0.0,0.0,0.0,0.0,0.0,0.0,0.0,0.0,0.0,0.0,0.0,0.0,0.0,0.0,0.0,0.0,0.0,0.0,0.0,0.0,0.0,0.0,0.0,0.0,0.0,0.0,0.0,0.0,0.0,0.0,0.0,0.0,0.0,0.0,0.0,0.0,0.0,0.0,0.0,0.0,0.0,0.0,0.0,0.0,0.0,0.0,0.0,0.0,0.0,0.0,0.0,0.0,0.0,0.0,0.0,0.0,0.0,0.0,0.0,0.0,0.0,0.0,0.0,0.0,0.0,0.0,0.0,0.0,0.0,0.0,0.0,0.0,0.0,0.0,0.0,0.0,0.0,0.0,0.0,0.0,0.0,0.0,0.0,0.0,0.0,0.0,0.0,0.0,0.0,0.0,0.0,0.0,0.0,0.0,0.0,0.0,0.0,0.0,0.0,0.0,0.0,0.0,0.0,0.0,0.0,0.0,0.0,0.0,0.0,0.0,0.0,0.0,0.0,0.0,0.0,0.0,0.0,0.0,0.0,0.0,0.0,0.0,0.0,0.0,0.0,0.0,0.0,0.0,0.0,0.0,0.0,0.0,0.0,0.0,0.0,0.0,0.0,0.0,0.0,0.0,0.0,0.0,0.0,0.0,0.0,0.0,0.0,0.0,0.0,0.0,0.0,0.0,0.0,0.0,0.0,0.0,0.0,0.0,0.0,0.0,0.0,0.0,0.0,0.0,0.0,0.0,0.0,0.0,0.0,0.0,0.0,0.0,0.0,0.0,0.0,0.0,0.0,0.0,0.0,0.0,0.0,0.0,0.0,0.0,0.0,0.0,0.0,0.0,0.0,0.0,0.0,0.0,0.0,0.0,0.0,0.0,0.0,0.0,0.0,0.0,0.0,0.0,0.0,0.0,0.0,0.0,0.0,0.0,0.0,0.0,0.0,0.0,0.0,0.0,0.0,0.0,0.0,0.0,0.0,0.0,0.0,0.0,0.0,0.0,0.0,0.0,0.0,0.0,0.0,0.0,0.0,0.0,0.0,0.0,0.0,0.0,0.0,0.0,0.0,0.0,0.0,0.0,0.0,0.0,0.0,0.0,0.0,0.0,0.0,0.0,0.0,0.0,0.0,0.0,0.0,0.0,0.0,0.0,0.0,0.0,0.0,0.0,0.0,0.0,0.0,0.0,0.0,0.0,0.0,0.0,0.0,0.0,0.0,0.0,0.0,0.0,0.0,0.0,0.0,0.0,0.0,0.0,0.0,0.0,0.0,0.0,0.0,0.0,0.0,0.0,0.0,0.0,0.0,0.0,0.0,0.0,0.0,0.0,0.0,0.0,0.0,0.0,0.0,0.0,0.0,0.0,0.0,0.0,0.0,0.0,0.0,0.0,0.0,0.0,0.0,0.0,0.0,0.0,0.0,0.0,0.0,0.0,0.0,0.0,0.0,0.0,0.0,0.0,0.0,0.0,0.0,0.0,0.0,0.0,0.0,0.0,0.0,0.0,0.0,0.0,0.0,0.0,0.0,0.0,0.0,0.0,0.0,0.0,0.0,0.0,0.0,0.0,0.0,0.0,0.0,0.0,0.0,0.0,0.0,0.0,0.0,0.0,0.0,0.0,0.0,0.0,0.0,0.0,0.0,0.0,0.0,0.0,0.0,0.0,0.0,0.0,0.0,0.0,0.0,0.0,0.0,0.0,0.0,0.0,0.0,0.0,0.0,0.0,0.0,0.0,0.0,0.0,0.0,0.0,0.0,0.0,0.0,0.0,0.0,0.0,0.0,0.0,0.0,0.0,0.0,0.0,0.0,0.0,0.0,0.0,0.0,0.0,0.0,0.0,0.0,0.0,0.0,0.0,0.0,0.0,0.0,0.0,-3.6686,0.0,0.0,0.0,0.0,0.0,0.0,0.0,0.0,0.0,0.0,0.0,0.0,0.0,0.0,0.0,0.0,0.0,0.0,0.0,0.0,0.0,0.0,0.0,0.0,0.0,0.0,0.0,0.0,0.0,0.0,0.0,0.0,0.0,0.0,0.0,0.0,0.0,0.0,0.0,0.0,0.0,0.0,0.0,0.0,0.0,0.0,0.0,0.0,0.0,0.0,0.0,0.0,0.0,0.0,0.0,0.0,0.0,0.0,0.0,0.0,0.0,0.0,0.0,0.0,0.0,0.0,0.0,0.0,0.0,0.0,0.0,0.0,0.0,0.0,0.0,0.0,0.0,0.0,0.0,0.0,0.0,0.0,0.0,0.0,0.0,0.0,0.0,0.0,0.0,0.0,0.0,0.0,0.0,0.0,0.0,0.0,0.0,0.0,0.0,0.0,0.0,0.0,0.0,0.0,0.0,0.0,0.0,0.0,0.0,0.0,-4.0941,-4.0941,-3.9906,-3.8615,-3.7024,0.0,0.0,0.0,0.0,0.0,0.0,0.0,0.0,0.0,0.0,0.0,0.0,0.0,0.0,0.0,0.0,0.0,0.0,0.0,0.0,0.0,0.0,0.0,0.0,0.0,0.0,0.0,0.0,0.0,0.0,0.0,0.0,0.0,0.0,0.0,0.0,0.0,0.0,0.0,0.0,0.0,0.0,0.0,0.0,0.0,0.0,0.0,0.0,0.0,0.0,0.0,0.0,0.0,0.0,0.0,0.0,0.0,0.0,0.0,0.0,0.0,0.0,0.0,0.0,0.0,0.0,0.0,0.0,0.0,0.0,0.0,0.0,0.0,0.0,0.0,0.0,0.0,0.0,0.0,0.0,0.0,0.0,0.0,0.0,0.0,0.0,0.0,0.0,0.0,0.0,0.0,0.0,0.0,0.0,0.0,0.0,0.0,0.0,0.0,0.0,0.0,0.0,0.0,0.0,0.0,0.0,0.0,0.0,0.0,0.0,0.0,0.0,-4.0879,-3.9521,-3.7363,0.0,0.0,0.0,0.0,0.0,0.0,0.0,0.0,0.0,0.0,0.0,0.0,0.0,0.0,0.0,0.0,0.0,0.0,0.0,0.0,0.0,0.0,0.0,0.0,0.0,0.0,0.0,0.0,0.0,0.0,0.0,0.0,0.0,0.0,0.0,0.0,0.0,0.0,0.0,0.0,0.0,0.0,0.0,0.0,0.0,0.0,0.0,0.0,0.0,0.0,0.0,0.0,0.0,0.0,0.0,0.0,0.0,0.0,0.0,0.0,0.0,0.0,0.0,0.0,0.0,0.0,0.0,0.0,0.0,0.0,0.0,0.0,0.0,0.0,0.0,0.0,0.0,0.0,0.0,0.0,0.0,0.0,0.0,0.0,0.0,0.0,0.0,0.0,0.0,0.0,0.0,0.0,0.0,0.0,0.0,0.0,0.0,0.0,0.0,0.0,0.0,0.0,0.0,0.0,0.0,0.0,0.0,0.0,0.0,0.0,-4.1504,-4.1504,-4.2144,0.0,-3.8345,0.0,0.0,0.0,0.0,0.0,0.0,0.0,0.0,0.0,0.0,0.0,0.0,0.0,0.0,0.0,0.0,0.0,0.0,0.0,0.0,0.0,0.0,0.0,0.0,0.0,0.0,0.0,0.0,0.0,0.0,0.0,0.0,0.0,0.0,0.0,0.0,0.0,0.0,0.0,0.0,0.0,0.0,0.0,0.0,0.0,0.0,0.0,0.0,0.0,0.0,0.0,0.0,0.0,0.0,0.0,0.0,0.0,0.0,0.0,0.0,0.0,0.0,0.0,0.0,0.0,0.0,0.0,0.0,0.0,0.0,0.0,0.0,0.0,0.0,0.0,0.0,0.0,0.0,0.0,0.0,0.0,0.0,0.0,0.0,0.0,0.0,0.0,0.0,0.0,0.0,0.0,0.0,0.0,0.0,0.0,0.0,0.0,0.0,0.0,0.0,0.0,0.0,0.0,0.0,0.0,0.0,0.0,0.0,0.0,0.0,-4.2259,-4.2259,-4.0883,-3.9577,0.0,0.0,0.0,0.0,0.0,0.0,0.0,0.0,0.0,0.0,0.0,0.0,0.0,0.0,0.0,0.0,0.0,0.0,0.0,0.0,0.0,0.0,0.0,0.0,0.0,0.0,0.0,0.0,0.0,0.0,0.0,0.0,0.0,0.0,0.0,0.0,0.0,0.0,0.0,0.0,0.0,0.0,0.0,0.0,0.0,0.0,0.0,0.0,0.0,0.0,0.0,0.0,0.0,0.0,0.0,0.0,0.0,0.0,0.0,0.0,0.0,0.0,0.0,0.0,0.0,0.0,0.0,0.0,0.0,0.0,0.0,0.0,0.0,0.0,0.0,0.0,0.0,0.0,0.0,0.0,0.0,0.0,0.0,0.0,0.0,0.0,0.0,0.0,0.0,0.0,0.0,0.0,0.0,0.0,0.0,0.0,0.0,0.0,0.0,0.0,0.0,0.0,0.0,0.0,0.0,0.0,0.0,0.0,0.0,0.0,-4.2488,-4.2889,-4.3003,-4.064,-3.8968,-3.8315,0.0,0.0,0.0,0.0,0.0,0.0,0.0,0.0,0.0,0.0,0.0,0.0,0.0,0.0,0.0,0.0,0.0,0.0,0.0,0.0,0.0,0.0,0.0,0.0,0.0,0.0,0.0,0.0,0.0,0.0,0.0,0.0,0.0,0.0,0.0,0.0,0.0,0.0,0.0,0.0,0.0,0.0,0.0,0.0,0.0,0.0,0.0,0.0,0.0,0.0,0.0,0.0,0.0,0.0,0.0,0.0,0.0,0.0,0.0,0.0,0.0,0.0,0.0,0.0,0.0,0.0,0.0,0.0,0.0,0.0,0.0,0.0,0.0,0.0,0.0,0.0,0.0,0.0,0.0,0.0,0.0,0.0,0.0,0.0,0.0,0.0,0.0,0.0,0.0,0.0,0.0,0.0,0.0,0.0,0.0,0.0,0.0,0.0,0.0,0.0,0.0,0.0,0.0,0.0,0.0,0.0,0.0,0.0,-4.2641,-4.2775,-4.3176,-4.3901,-4.2516,-4.0653,0.0,0.0,0.0,0.0,0.0,0.0,0.0,0.0,0.0,0.0,0.0,0.0,0.0,0.0,0.0,0.0,0.0,0.0,0.0,0.0,0.0,0.0,0.0,0.0,0.0,0.0,0.0,0.0,0.0,0.0,0.0,0.0,0.0,0.0,0.0,0.0,0.0,0.0,0.0,0.0,0.0,0.0,0.0,0.0,0.0,0.0,0.0,0.0,0.0,0.0,0.0,0.0,0.0,0.0,0.0,0.0,0.0,0.0,0.0,0.0,0.0,0.0,0.0,0.0,0.0,0.0,0.0,0.0,0.0,0.0,0.0,0.0,0.0,0.0,0.0,0.0,0.0,0.0,0.0,0.0,0.0,0.0,0.0,0.0,0.0,0.0,0.0,0.0,0.0,0.0,0.0,0.0,0.0,0.0,0.0,0.0,0.0,0.0,0.0,0.0,0.0,0.0,0.0,0.0,0.0,0.0,0.0,0.0,0.0,-4.1208,-4.224,-4.3463,-4.4675,-4.1983,-4.0014,0.0,0.0,0.0,0.0,0.0,0.0,0.0,0.0,0.0,0.0,0.0,0.0,0.0,0.0,0.0,0.0,0.0,0.0,0.0,0.0,0.0,0.0,0.0,0.0,0.0,0.0,0.0,0.0,0.0,0.0,0.0,0.0,0.0,0.0,0.0,0.0,0.0,0.0,0.0,0.0,0.0,0.0,0.0,0.0,0.0,0.0,0.0,0.0,0.0,0.0,0.0,0.0,0.0,0.0,0.0,0.0,0.0,0.0,0.0,0.0,0.0,0.0,0.0,0.0,0.0,0.0,0.0,0.0,0.0,0.0,0.0,0.0,0.0,0.0,0.0,0.0,0.0,0.0,0.0,0.0,0.0,0.0,0.0,0.0,0.0,0.0,0.0,0.0,0.0,0.0,0.0,0.0,0.0,0.0,0.0,0.0,0.0,0.0,0.0,0.0,0.0,0.0,0.0,0.0,0.0,0.0,0.0,0.0,0.0,-4.1132,0.0,-4.3625,-4.4343,-4.1798,-3.9845,0.0,0.0,0.0,0.0,0.0,0.0,0.0,0.0,0.0,0.0,0.0,0.0,0.0,0.0,0.0,0.0,0.0,0.0,0.0,0.0,0.0,0.0,0.0,0.0,0.0,0.0,0.0,0.0,0.0,0.0,0.0,0.0,0.0,0.0,0.0,0.0,0.0,0.0,0.0,0.0,0.0,0.0,0.0,0.0,0.0,0.0,0.0,0.0,0.0,0.0,0.0,0.0,0.0,0.0,0.0,0.0,0.0,0.0,0.0,0.0,0.0,0.0,0.0,0.0,0.0,0.0,0.0,0.0,0.0,0.0,0.0,0.0,0.0,0.0,0.0,0.0,0.0,0.0,0.0,0.0,0.0,0.0,0.0,0.0,0.0,0.0,0.0,0.0,0.0,0.0,0.0,0.0,0.0,0.0,0.0,0.0,0.0,0.0,0.0,0.0,0.0,0.0,0.0,0.0,0.0,0.0,0.0,0.0,-4.117,-4.2757,-4.3559,-4.3665,-4.2881,-4.2191,-4.0353,0.0,0.0,0.0,0.0,0.0,0.0,0.0,0.0,0.0,0.0,0.0,0.0,0.0,0.0,0.0,0.0,0.0,0.0,0.0,0.0,0.0,0.0,0.0,0.0,0.0,0.0,0.0,0.0,0.0,0.0,0.0,0.0,0.0,0.0,0.0,0.0,0.0,0.0,0.0,0.0,0.0,0.0,0.0,0.0,0.0,0.0,0.0,0.0,0.0,0.0,0.0,0.0,0.0,0.0,0.0,0.0,0.0,0.0,0.0,0.0,0.0,0.0,0.0,0.0,0.0,0.0,0.0,0.0,0.0,0.0,0.0,0.0,0.0,0.0,0.0,0.0,0.0,0.0,0.0,0.0,0.0,0.0,0.0,0.0,0.0,0.0,0.0,0.0,0.0,0.0,0.0,0.0,0.0,0.0,0.0,0.0,0.0,0.0,0.0,0.0,0.0,0.0,0.0,0.0,0.0,0.0,0.0,0.0,0.0,-4.3685,-4.4001,-4.4288,-4.4499,-4.2352,-4.069,0.0,0.0,0.0,0.0,0.0,0.0,0.0,0.0,0.0,0.0,0.0,0.0,0.0,0.0,0.0,0.0,0.0,0.0,0.0,0.0,0.0,0.0,0.0,0.0,0.0,0.0,0.0,0.0,0.0,0.0,0.0,0.0,0.0,0.0,0.0,0.0,0.0,0.0,0.0,0.0,0.0,0.0,0.0,0.0,0.0,0.0,0.0,0.0,0.0,0.0,0.0,0.0,0.0,0.0,0.0,0.0,0.0,0.0,0.0,0.0,0.0,0.0,0.0,0.0,0.0,0.0,0.0,0.0,0.0,0.0,0.0,0.0,0.0,0.0,0.0,0.0,0.0,0.0,0.0,0.0,0.0,0.0,0.0,0.0,0.0,0.0,0.0,0.0,0.0,0.0,0.0,0.0,0.0,0.0,0.0,0.0,0.0,0.0,0.0,0.0,0.0,0.0,0.0,0.0,0.0,0.0,0.0,0.0,0.0,-4.5572,-4.5601,-4.5717,-4.5889,-4.3802,-4.1914,-4.0351,0.0,0.0,0.0,0.0,0.0,0.0,0.0,0.0,0.0,0.0,0.0,0.0,0.0,0.0,0.0,0.0,0.0,0.0,0.0,0.0,0.0,0.0,0.0,0.0,0.0,0.0,0.0,0.0,0.0,0.0,0.0,0.0,0.0,0.0,0.0,0.0,0.0,0.0,0.0,0.0,0.0,0.0,0.0,0.0,0.0,0.0,0.0,0.0,0.0,0.0,0.0,0.0,0.0,0.0,0.0,0.0,0.0,0.0,0.0,0.0,0.0,0.0,0.0,0.0,0.0,0.0,0.0,0.0,0.0,0.0,0.0,0.0,0.0,0.0,0.0,0.0,0.0,0.0,0.0,0.0,0.0,0.0,0.0,0.0,0.0,0.0,0.0,0.0,0.0,0.0,0.0,0.0,0.0,0.0,0.0,0.0,0.0,0.0,0.0,0.0,0.0,0.0,0.0,0.0,0.0,0.0,0.0,0.0,-4.8222,-4.8278,-4.7845,-4.6963,-4.6175,-4.3899,0.0,0.0,0.0,0.0,0.0,0.0,0.0,0.0,0.0,0.0,0.0,0.0,0.0,0.0,0.0,0.0,0.0,0.0,0.0,0.0,0.0,0.0,0.0,0.0,0.0,0.0,0.0,0.0,0.0,0.0,0.0,0.0,0.0,0.0,0.0,0.0,0.0,0.0,0.0,0.0,0.0,0.0,0.0,0.0,0.0,0.0,0.0,0.0,0.0,0.0,0.0,0.0,0.0,0.0,0.0,0.0,0.0,0.0,0.0,0.0,0.0,0.0,0.0,0.0,0.0,0.0,0.0,0.0,0.0,0.0,0.0,0.0,0.0,0.0,0.0,0.0,0.0,0.0,0.0,0.0,0.0,0.0,0.0,0.0,0.0,0.0,0.0,0.0,0.0,0.0,0.0,0.0,0.0,0.0,0.0,0.0,0.0,0.0,0.0,0.0,0.0,0.0,0.0,0.0,0.0,0.0,0.0,0.0,0.0,-4.999,-5.117,-5.1062,-4.9593,-4.716,-4.5053,0.0,0.0,0.0,0.0,0.0,0.0,0.0,0.0,0.0,0.0,0.0,0.0,0.0,0.0,0.0,0.0,0.0,0.0,0.0,0.0,0.0,0.0,0.0,0.0,0.0,0.0,0.0,0.0,0.0,0.0,0.0,0.0,0.0,0.0,0.0,0.0,0.0,0.0,0.0,0.0,0.0,0.0,0.0,0.0,0.0,0.0,0.0,0.0,0.0,0.0,0.0,0.0,0.0,0.0,0.0,0.0,0.0,0.0,0.0,0.0,0.0,0.0,0.0,0.0,0.0,0.0,0.0,0.0,0.0,0.0,0.0,0.0,0.0,0.0,0.0,0.0,0.0,0.0,0.0,0.0,0.0,0.0,0.0,0.0,0.0,0.0,0.0,0.0,0.0,0.0,0.0,0.0,0.0,0.0,0.0,0.0,0.0,0.0,0.0,0.0,0.0,0.0,0.0,0.0,0.0,0.0,0.0,0.0,-4.9574,-5.0653,-5.2916,-5.3556,-5.244,-4.9168,-4.6668,0.0,0.0,0.0,0.0,0.0,0.0,0.0,0.0,0.0,0.0,0.0,0.0,0.0,0.0,0.0,0.0,0.0,0.0,0.0,0.0,0.0,0.0,0.0,0.0,0.0,0.0,0.0,0.0,0.0,0.0,0.0,0.0,0.0,0.0,0.0,0.0,0.0,0.0,0.0,0.0,0.0,0.0,0.0,0.0,0.0,0.0,0.0,0.0,0.0,0.0,0.0,0.0,0.0,0.0,0.0,0.0,0.0,0.0,0.0,0.0,0.0,0.0,0.0,0.0,0.0,0.0,0.0,0.0,0.0,0.0,0.0,0.0,0.0,0.0,0.0,0.0,0.0,0.0,0.0,0.0,0.0,0.0,0.0,0.0,0.0,0.0,0.0,0.0,0.0,0.0,0.0,0.0,0.0,0.0,0.0,0.0,0.0,0.0,0.0,0.0,0.0,0.0,0.0,0.0,0.0,0.0,0.0,0.0,-5.0547,-5.09,-5.3897,-5.5307,-5.4824,-5.1409,-4.8376,0.0,0.0,0.0,0.0,0.0,0.0,0.0,0.0,0.0,0.0,0.0,0.0,0.0,0.0,0.0,0.0,0.0,0.0,0.0,0.0,0.0,0.0,0.0,0.0,0.0,0.0,0.0,0.0,0.0,0.0,0.0,0.0,0.0,0.0,0.0,0.0,0.0,0.0,0.0,0.0,0.0,0.0,0.0,0.0,0.0,0.0,0.0,0.0,0.0,0.0,0.0,0.0,0.0,0.0,0.0,0.0,0.0,0.0,0.0,0.0,0.0,0.0,0.0,0.0,0.0,0.0,0.0,0.0,0.0,0.0,0.0,0.0,0.0,0.0,0.0,0.0,0.0,0.0,0.0,0.0,0.0,0.0,0.0,0.0,0.0,0.0,0.0,0.0,0.0,0.0,0.0,0.0,0.0,0.0,0.0,0.0,0.0,0.0,0.0,0.0,0.0,0.0,0.0,0.0,0.0,0.0,0.0,0.0,-5.1216,-5.257,-5.4492,-5.5332,-5.4985,-5.1419,-4.8799,0.0,0.0,0.0,0.0,0.0,0.0,0.0,0.0,0.0,0.0,0.0,0.0,0.0,0.0,0.0,0.0,0.0,0.0,0.0,0.0,0.0,0.0,0.0,0.0,0.0,0.0,0.0,0.0,0.0,0.0,0.0,0.0,0.0,0.0,0.0,0.0,0.0,0.0,0.0,0.0,0.0,0.0,0.0,0.0,0.0,0.0,0.0,0.0,-4.3668,0.0,0.0,0.0,0.0,0.0,0.0,0.0,0.0,0.0,0.0,0.0,0.0,0.0,0.0,0.0,0.0,0.0,0.0,0.0,0.0,0.0,0.0,0.0,0.0,0.0,0.0,0.0,0.0,0.0,0.0,0.0,0.0,0.0,0.0,0.0,0.0,0.0,0.0,0.0,0.0,0.0,0.0,0.0,0.0,0.0,0.0,0.0,0.0,0.0,0.0,0.0,0.0,0.0,0.0,0.0,0.0,0.0,0.0,0.0,-5.2003,-5.3665,-5.5236,-5.5803,-5.5208,-5.2235,-4.9684,0.0,0.0,0.0,0.0,0.0,0.0,0.0,0.0,0.0,0.0,0.0,0.0,0.0,0.0,0.0,0.0,0.0,0.0,0.0,0.0,0.0,0.0,0.0,0.0,0.0,0.0,0.0,0.0,0.0,0.0,0.0,0.0,0.0,0.0,0.0,0.0,0.0,0.0,0.0,0.0,0.0,0.0,0.0,0.0,0.0,0.0,0.0,0.0,0.0,0.0,0.0,0.0,0.0,0.0,0.0,0.0,0.0,0.0,0.0,0.0,0.0,0.0,0.0,0.0,0.0,0.0,0.0,0.0,0.0,0.0,0.0,0.0,0.0,0.0,0.0,0.0,0.0,0.0,0.0,0.0,0.0,0.0,0.0,0.0,0.0,0.0,0.0,0.0,0.0,0.0,0.0,0.0,0.0,0.0,0.0,0.0,0.0,0.0,0.0,0.0,0.0,0.0,0.0,0.0,0.0,0.0,0.0,-5.0711,-5.2823,-5.4902,-5.6101,-5.6344,-5.559,-5.3008,-5.0375,-4.7684,0.0,0.0,0.0,0.0,0.0,0.0,0.0,0.0,0.0,0.0,0.0,0.0,0.0,0.0,0.0,0.0,0.0,0.0,0.0,0.0,0.0,0.0,0.0,0.0,0.0,0.0,0.0,0.0,0.0,0.0,0.0,0.0,0.0,0.0,0.0,0.0,0.0,0.0,-4.3233,-4.4358,0.0,0.0,0.0,0.0,0.0,0.0,0.0,0.0,-4.3414,0.0,0.0,0.0,0.0,0.0,0.0,0.0,0.0,0.0,0.0,0.0,0.0,0.0,0.0,0.0,0.0,0.0,0.0,0.0,0.0,0.0,0.0,0.0,0.0,0.0,0.0,0.0,0.0,0.0,0.0,0.0,0.0,0.0,0.0,0.0,0.0,0.0,0.0,0.0,0.0,0.0,0.0,0.0,0.0,0.0,0.0,0.0,0.0,0.0,0.0,0.0,0.0,0.0,0.0,0.0,0.0,-5.102,-5.1507,-5.3579,-5.7376,-5.697,-5.6344,-5.5551,-5.2494,-4.9679,-4.7261,0.0,0.0,0.0,0.0,0.0,0.0,0.0,0.0,0.0,0.0,0.0,0.0,0.0,0.0,0.0,0.0,0.0,0.0,0.0,0.0,0.0,0.0,0.0,0.0,0.0,0.0,0.0,0.0,0.0,0.0,0.0,0.0,0.0,0.0,0.0,0.0,0.0,0.0,0.0,-4.53,-4.485,0.0,0.0,0.0,0.0,0.0,0.0,0.0,0.0,-4.3852,0.0,0.0,0.0,0.0,0.0,0.0,0.0,0.0,0.0,0.0,0.0,0.0,0.0,0.0,0.0,0.0,0.0,0.0,0.0,0.0,0.0,0.0,0.0,0.0,0.0,0.0,0.0,0.0,0.0,0.0,0.0,0.0,0.0,0.0,0.0,0.0,0.0,0.0,0.0,0.0,0.0,0.0,0.0,0.0,0.0,0.0,0.0,0.0,0.0,0.0,0.0,0.0,0.0,0.0,0.0,-5.1515,-5.3027,-5.514,-5.7958,-5.7428,-5.6586,-5.5553,-5.2203,-4.9126,0.0,0.0,0.0,0.0,0.0,0.0,0.0,0.0,0.0,0.0,0.0,0.0,0.0,0.0,0.0,0.0,0.0,0.0,0.0,0.0,0.0,0.0,0.0,0.0,0.0,0.0,0.0,0.0,0.0,0.0,0.0,0.0,0.0,0.0,0.0,0.0,0.0,0.0,0.0,0.0,-4.6401,-4.6335,-4.6201,0.0,0.0,0.0,0.0,0.0,0.0,-4.4803,-4.4382,0.0,0.0,0.0,0.0,0.0,0.0,0.0,0.0,0.0,0.0,0.0,0.0,0.0,0.0,0.0,0.0,0.0,0.0,0.0,0.0,0.0,0.0,0.0,0.0,0.0,0.0,0.0,0.0,0.0,0.0,0.0,0.0,0.0,0.0,0.0,0.0,0.0,0.0,0.0,0.0,0.0,0.0,0.0,0.0,0.0,0.0,0.0,0.0,0.0,0.0,0.0,0.0,0.0,0.0,0.0,-5.163,-5.4074,-5.6206,-5.794,-5.7449,-5.6652,-5.5557,-5.1867,-4.8676,0.0,0.0,0.0,0.0,0.0,0.0,0.0,0.0,0.0,0.0,0.0,0.0,0.0,0.0,0.0,0.0,0.0,0.0,0.0,0.0,0.0,0.0,0.0,0.0,0.0,0.0,0.0,0.0,0.0,0.0,0.0,0.0,0.0,0.0,0.0,0.0,0.0,0.0,0.0,0.0,0.0,-4.7781,-4.775,-4.7159,0.0,0.0,0.0,0.0,-4.5608,-4.5499,0.0,0.0,0.0,0.0,0.0,0.0,0.0,0.0,0.0,0.0,0.0,0.0,0.0,0.0,0.0,0.0,0.0,0.0,0.0,0.0,0.0,0.0,0.0,0.0,0.0,0.0,0.0,0.0,0.0,0.0,0.0,0.0,0.0,0.0,0.0,0.0,0.0,0.0,0.0,0.0,0.0,0.0,0.0,0.0,0.0,0.0,0.0,0.0,0.0,0.0,0.0,0.0,0.0,0.0,0.0,0.0,-5.1572,-5.3401,-5.5504,-5.7819,-5.6863,-5.6009,-5.5456,-5.1309,-4.8398,0.0,0.0,0.0,0.0,0.0,0.0,0.0,0.0,0.0,0.0,0.0,0.0,0.0,0.0,0.0,0.0,0.0,0.0,0.0,0.0,0.0,0.0,0.0,0.0,0.0,0.0,0.0,0.0,0.0,0.0,0.0,0.0,0.0,0.0,0.0,0.0,0.0,0.0,0.0,0.0,0.0,-4.8075,-4.8808,-4.7357,-4.6579,0.0,0.0,-4.6811,-4.8712,-4.8398,0.0,0.0,0.0,0.0,0.0,0.0,0.0,0.0,0.0,0.0,0.0,0.0,0.0,0.0,0.0,0.0,0.0,0.0,0.0,0.0,0.0,0.0,0.0,0.0,0.0,0.0,0.0,0.0,0.0,0.0,0.0,0.0,0.0,0.0,0.0,0.0,0.0,0.0,0.0,0.0,0.0,0.0,0.0,0.0,0.0,0.0,0.0,0.0,0.0,0.0,0.0,0.0,0.0,0.0,0.0,-4.863,-5.0922,-5.3993,-5.6116,-5.7123,-5.6478,-5.569,-5.482,-5.0527,-4.7657,0.0,0.0,0.0,0.0,0.0,0.0,0.0,0.0,0.0,0.0,0.0,0.0,0.0,0.0,0.0,0.0,0.0,0.0,0.0,0.0,0.0,0.0,0.0,0.0,0.0,0.0,0.0,0.0,0.0,0.0,0.0,0.0,0.0,0.0,0.0,0.0,0.0,0.0,0.0,0.0,0.0,0.0,-4.9729,-4.8745,0.0,0.0,0.0,-4.7611,-4.8105,0.0,0.0,0.0,0.0,0.0,0.0,0.0,0.0,0.0,0.0,0.0,0.0,0.0,0.0,0.0,0.0,0.0,0.0,0.0,0.0,0.0,0.0,0.0,0.0,0.0,0.0,0.0,0.0,0.0,0.0,0.0,0.0,0.0,0.0,0.0,0.0,0.0,0.0,0.0,0.0,0.0,0.0,0.0,0.0,0.0,0.0,0.0,0.0,0.0,0.0,0.0,0.0,0.0,0.0,0.0,0.0,0.0,-5.0054,-5.4192,-5.6352,-5.6301,-5.595,-5.5297,-5.4277,-5.0415,0.0,0.0,0.0,0.0,0.0,0.0,0.0,0.0,0.0,0.0,0.0,0.0,0.0,0.0,0.0,0.0,0.0,0.0,0.0,0.0,0.0,0.0,0.0,0.0,0.0,0.0,0.0,-3.1439,0.0,0.0,0.0,0.0,0.0,0.0,0.0,0.0,0.0,0.0,0.0,0.0,0.0,0.0,-5.0302,-5.0302,-4.996,-5.0071,0.0,0.0,-4.8545,-4.836,-4.9554,-4.9242,0.0,0.0,0.0,0.0,0.0,0.0,0.0,0.0,0.0,0.0,0.0,0.0,0.0,0.0,0.0,0.0,0.0,0.0,0.0,0.0,0.0,0.0,0.0,0.0,0.0,0.0,0.0,0.0,0.0,0.0,0.0,0.0,0.0,0.0,0.0,0.0,0.0,0.0,0.0,0.0,0.0,0.0,0.0,0.0,0.0,0.0,0.0,0.0,0.0,0.0,0.0,0.0,0.0,0.0,-4.7513,-4.9251,-5.3339,-5.5498,-5.5485,-5.5099,-5.4695,-5.4259,-5.1462,-4.8323,0.0,0.0,0.0,0.0,0.0,0.0,0.0,0.0,0.0,0.0,0.0,0.0,0.0,0.0,0.0,0.0,0.0,0.0,0.0,0.0,0.0,0.0,0.0,0.0,0.0,0.0,0.0,0.0,0.0,0.0,0.0,0.0,0.0,0.0,0.0,0.0,0.0,0.0,0.0,0.0,0.0,-5.0302,-5.0302,-5.042,-5.1108,0.0,-5.099,-5.0014,-5.1426,-5.2362,-5.1314,-4.6581,0.0,0.0,0.0,0.0,0.0,0.0,0.0,0.0,0.0,0.0,0.0,0.0,0.0,0.0,0.0,0.0,0.0,0.0,0.0,0.0,0.0,0.0,0.0,0.0,0.0,0.0,0.0,0.0,0.0,0.0,0.0,0.0,0.0,0.0,0.0,0.0,0.0,0.0,0.0,0.0,0.0,0.0,0.0,0.0,0.0,0.0,0.0,0.0,0.0,0.0,0.0,0.0,0.0,-4.7092,-4.8334,-5.2996,-5.539,-5.539,-5.5227,-5.4889,-5.4315,-5.2263,-4.9105,0.0,0.0,0.0,0.0,0.0,0.0,0.0,0.0,0.0,0.0,0.0,0.0,0.0,0.0,0.0,0.0,0.0,0.0,0.0,0.0,0.0,0.0,0.0,0.0,0.0,0.0,0.0,0.0,-3.5257,-3.5642,-3.645,0.0,0.0,0.0,0.0,0.0,0.0,0.0,0.0,0.0,0.0,-5.0493,-5.1028,-5.1239,0.0,0.0,-5.1528,-5.0343,-5.0435,-5.0747,-4.9644,-4.5737,-4.5571,0.0,0.0,0.0,0.0,0.0,0.0,0.0,0.0,0.0,0.0,0.0,0.0,0.0,0.0,0.0,0.0,0.0,0.0,0.0,0.0,0.0,0.0,0.0,0.0,0.0,0.0,0.0,0.0,0.0,0.0,0.0,0.0,0.0,0.0,0.0,0.0,0.0,0.0,0.0,0.0,0.0,0.0,0.0,0.0,0.0,0.0,0.0,0.0,0.0,0.0,0.0,0.0,-4.6691,-4.7807,-5.2811,-5.539,-5.539,-5.539,-5.5104,-5.4441,-5.2726,-4.9716,0.0,0.0,0.0,0.0,0.0,0.0,0.0,0.0,0.0,0.0,0.0,0.0,0.0,0.0,0.0,0.0,0.0,0.0,0.0,0.0,0.0,0.0,0.0,0.0,0.0,0.0,0.0,0.0,-3.6321,-3.6615,-3.7401,0.0,0.0,0.0,0.0,0.0,0.0,0.0,0.0,0.0,0.0,-5.0563,-5.0709,-5.0812,-5.1235,-5.2078,-5.0991,-4.9939,-4.9572,-4.9774,-4.8837,-4.5517,0.0,0.0,0.0,0.0,0.0,0.0,0.0,0.0,0.0,0.0,0.0,0.0,0.0,0.0,0.0,0.0,0.0,0.0,0.0,0.0,0.0,0.0,0.0,0.0,0.0,0.0,0.0,-3.9226,0.0,0.0,-3.8173,0.0,0.0,0.0,0.0,0.0,0.0,0.0,0.0,0.0,0.0,0.0,0.0,0.0,0.0,0.0,0.0,0.0,0.0,0.0,0.0,0.0,0.0,-4.6137,-4.7845,-5.2792,-5.5384,-5.539,-5.539,-5.52,-5.4735,-5.2853,-5.0108,-4.6483,0.0,0.0,0.0,0.0,0.0,0.0,0.0,0.0,0.0,0.0,0.0,0.0,0.0,0.0,0.0,0.0,0.0,0.0,0.0,0.0,0.0,0.0,0.0,0.0,0.0,0.0,-3.41,-3.5349,-3.6615,0.0,0.0,0.0,0.0,0.0,0.0,0.0,0.0,0.0,-4.6476,-4.9138,-5.0475,-4.892,-4.884,-4.9348,-5.0131,-4.9215,-4.8673,-4.9519,-5.0215,-4.9664,0.0,0.0,0.0,0.0,0.0,0.0,0.0,0.0,0.0,0.0,0.0,0.0,0.0,0.0,0.0,0.0,0.0,0.0,0.0,0.0,0.0,0.0,0.0,0.0,0.0,0.0,0.0,-4.0891,-4.0041,0.0,0.0,0.0,0.0,0.0,0.0,0.0,0.0,0.0,0.0,0.0,-4.5541,-4.609,0.0,0.0,0.0,0.0,0.0,0.0,0.0,0.0,0.0,0.0,0.0,0.0,-4.5534,-4.7884,-5.2251,-5.483,-5.5371,-5.539,-5.4934,-5.3973,-5.332,-5.0421,-4.501,0.0,0.0,0.0,0.0,0.0,0.0,0.0,0.0,0.0,0.0,0.0,0.0,0.0,0.0,0.0,0.0,0.0,0.0,0.0,0.0,0.0,0.0,0.0,0.0,0.0,-3.5752,0.0,0.0,0.0,0.0,0.0,0.0,0.0,0.0,0.0,0.0,-4.5134,-4.5563,-4.7324,-4.7994,-4.8324,-4.832,-4.8658,-4.9555,0.0,0.0,0.0,0.0,0.0,0.0,0.0,0.0,0.0,0.0,0.0,0.0,0.0,0.0,-4.7717,-4.5327,-4.5187,-4.5337,-4.5064,0.0,0.0,0.0,0.0,0.0,0.0,0.0,0.0,0.0,0.0,0.0,0.0,0.0,0.0,-4.3261,-4.262,-4.1198,0.0,0.0,0.0,0.0,0.0,0.0,0.0,0.0,-4.7635,-4.8644,-4.8586,-4.9135,-4.8769,-4.7568,-4.6405,-4.4135,0.0,0.0,0.0,0.0,0.0,0.0,0.0,0.0,-4.5583,-4.7845,-5.1658,-5.3932,-5.4467,-5.4505,-5.4091,-5.3275,-5.2527,-4.9645,-4.4413,-4.0704,-3.7496,0.0,0.0,0.0,0.0,0.0,0.0,0.0,0.0,0.0,0.0,0.0,0.0,0.0,0.0,0.0,0.0,0.0,0.0,0.0,0.0,0.0,0.0,0.0,-3.5954,0.0,0.0,0.0,0.0,0.0,0.0,0.0,0.0,0.0,-4.5778,-4.5948,-4.645,-4.7905,-4.7803,-4.7491,-4.7188,0.0,0.0,0.0,0.0,0.0,0.0,0.0,-4.8102,-4.7258,-4.7403,-4.7896,-4.8746,-5.0098,-5.0933,-5.0546,0.0,0.0,-4.7772,-4.7218,-4.7114,-4.7425,-4.7347,-4.7352,-4.7754,-4.7468,-4.7086,0.0,0.0,0.0,0.0,-4.696,0.0,0.0,0.0,-4.7298,-4.6885,0.0,-4.4278,0.0,0.0,0.0,0.0,-4.3297,-4.5663,0.0,0.0,-5.1972,-5.2683,-4.9865,-5.1219,-5.1073,-4.9546,-4.9354,-4.8411,-4.6719,-4.3473,-4.1285,0.0,0.0,0.0,0.0,0.0,-4.608,-4.7837,-5.1066,-5.2798,-5.2824,-5.2824,-5.2805,-5.2697,-5.0539,-4.7871,-4.4834,-4.2376,-4.0325,-3.867,-3.5642,0.0,0.0,0.0,0.0,0.0,0.0,0.0,0.0,0.0,0.0,0.0,0.0,0.0,0.0,0.0,0.0,0.0,0.0,0.0,0.0,-3.5045,0.0,0.0,0.0,0.0,0.0,0.0,0.0,0.0,0.0,-4.4039,-4.528,-4.7237,-4.8597,-4.805,0.0,0.0,0.0,0.0,-4.5993,-4.614,-4.603,-4.6397,-4.7278,-4.926,-5.0453,-4.9721,0.0,0.0,-5.079,-5.0423,-5.0239,-4.9293,-5.0452,-5.1339,-5.1303,-4.9423,-4.817,-4.8822,-4.8577,-4.8093,-4.7964,-4.8322,-4.8277,-5.3022,0.0,0.0,0.0,0.0,-4.8062,-4.8355,-4.9894,-4.9048,-4.8336,-4.7682,-4.6394,0.0,0.0,0.0,0.0,0.0,0.0,-4.7894,-4.9663,-5.1722,-5.3067,-5.3832,-5.4301,-5.4207,-5.3637,-5.3027,-5.2499,-5.1924,-4.9846,-4.5912,-4.0387,0.0,0.0,0.0,0.0,-4.5569,-4.7873,-5.06,-5.226,-5.2785,-5.2785,-5.2518,-5.1933,-4.9121,-4.6911,-4.5455,-4.319,-4.0671,-3.7973,-3.696,0.0,0.0,0.0,0.0,0.0,0.0,0.0,0.0,0.0,0.0,0.0,0.0,0.0,0.0,0.0,0.0,0.0,0.0,0.0,-3.4949,-3.6083,-3.6652,0.0,0.0,0.0,0.0,0.0,0.0,0.0,0.0,0.0,-4.7206,-4.6523,-4.6061,0.0,0.0,-4.5436,-4.4165,-4.557,-4.7149,-4.8306,-4.8453,0.0,-5.1149,-5.06,-5.0069,-5.0398,-5.1914,-5.2834,-5.2226,-5.2949,-5.3525,-5.3191,-5.2607,-5.2317,-5.277,-5.1588,-5.0508,-5.0675,-5.0721,-5.0842,-5.114,-5.1311,-5.1337,-5.5186,-5.3154,-5.1773,-5.1495,-5.1843,-5.0706,-5.118,-5.2694,-5.1799,-5.1298,-5.101,-4.9538,-4.8125,-4.6759,-4.5778,0.0,0.0,0.0,-4.9779,-5.2241,-5.2722,-5.3874,-5.5572,-5.5607,-5.5551,-5.5461,-5.4958,-5.4544,-5.423,-5.2878,-4.9228,-4.3522,0.0,-4.2403,-4.219,-4.4471,-4.6539,-4.8365,-5.0221,-5.1392,-5.1792,-5.1811,-5.1495,-5.0869,-4.8732,-4.7132,-4.6186,-4.4218,-4.1881,-3.9209,-3.8157,-3.6569,0.0,0.0,0.0,0.0,0.0,0.0,0.0,0.0,0.0,0.0,0.0,-3.3109,-3.1544,0.0,0.0,0.0,-3.4871,-3.5459,-3.5936,-3.7184,0.0,0.0,0.0,0.0,0.0,0.0,0.0,-4.4378,-4.5865,-4.7223,-4.8141,-4.7021,-4.6544,-4.7682,-4.715,-4.6324,-4.5516,0.0,-4.8434,-4.9407,-4.9536,-5.016,-5.194,-5.1573,-5.1298,-5.2105,-5.284,-5.3204,-5.2878,-5.3485,-5.3987,-5.3844,-5.315,-5.2643,-5.3132,-5.2435,-5.1828,-5.1887,-5.2065,-5.2299,-5.2513,-5.2694,-5.2757,-5.6604,-5.6441,-5.4592,-5.3821,-5.3823,-5.365,-5.4473,-5.5793,-5.4949,-5.4991,-5.5491,-5.3154,-5.1664,-5.076,-4.8452,0.0,-5.0894,-5.0904,-5.2145,-5.4395,-5.4395,-5.478,-5.5462,-5.5407,-5.5404,-5.5374,-5.5336,-5.4929,-5.4193,-5.3387,-5.1393,-4.8297,-4.8201,-4.7654,-4.6628,-4.7404,-4.8275,-4.9007,-4.9857,-5.0302,-5.0302,-5.0302,-5.0125,-4.9762,-4.8932,-4.795,-4.6834,-4.5158,-4.3385,-4.153,-3.9212,-3.7451,-3.6277,0.0,0.0,0.0,0.0,0.0,0.0,0.0,0.0,0.0,0.0,0.0,0.0,0.0,0.0,-3.5004,-3.6633,0.0,-3.7786,-3.856,0.0,0.0,0.0,-4.2359,-4.1737,-4.4929,-4.6911,-4.6177,0.0,0.0,-4.8508,-4.8489,-4.9114,-5.0765,-5.0198,-4.926,-4.8434,-4.9095,-4.9776,-4.9757,-4.9849,-5.018,-5.1206,-5.2213,-5.3185,-5.3827,-5.4056,-5.3553,-5.2925,-5.2658,-5.2557,-5.2589,-5.2498,-5.2498,-5.2498,-5.248,-5.2498,-5.2444,-5.2649,-5.2739,-5.2572,-5.2667,-5.2735,-5.6604,-5.6565,-5.609,-5.5794,-5.5619,-5.5404,-5.5528,-5.5851,-5.5546,-5.553,-5.5607,-5.4414,-5.3414,-5.2568,-5.1972,-5.2049,-5.2606,-5.2606,-5.2914,-5.3491,-5.351,-5.3586,-5.3706,-5.3695,-5.3681,-5.3609,-5.3587,-5.3513,-5.3374,-5.3163,-5.2043,-5.0154,-5.0038,-4.8337,-4.5053,-4.6292,-4.7414,-4.8278,-4.902,-4.969,-5.0264,-5.0302,-4.998,-4.9284,-4.8232,-4.7159,-4.6008,-4.4146,-4.2522,-4.1238,-3.9473,-3.7824,-3.6354,-3.3012,0.0,0.0,0.0,0.0,0.0,0.0,0.0,0.0,0.0,-3.2852,-3.065,0.0,-3.4344,0.0,-3.7624,-3.9588,-4.0194,-4.1515,0.0,0.0,-4.3956,-4.5461,-4.6471,-4.7443,-4.7939,-4.7755,-4.8655,-4.9517,-5.0123,-5.0215,-5.082,-5.2362,-5.082,-4.9224,-4.8489,-5.0123,-5.1187,-5.0765,-5.1518,-5.2399,-5.2525,-5.2828,-5.3115,-5.3298,-5.3101,-5.2854,-5.2672,-5.2577,-5.2498,-5.2498,-5.2498,-5.2498,-5.2498,-5.2498,-5.2498,-5.2521,-5.2645,-5.2761,-5.2608,-5.2694,-5.2735,-5.6604,-5.6604,-5.6604,-5.6316,-5.5867,-5.6028,-5.6037,-5.5975,-5.5855,-5.5758,-5.5645,-5.4838,-5.4434,-5.426,-5.353,-5.3414,-5.3741,-5.3376,-5.3203,-5.3203,-5.3203,-5.3182,-5.3151,-5.3131,-5.314,-5.3089,-5.3108,-5.311,-5.3131,-5.3131,-5.2499,-5.126,-5.1241,-4.9663,-4.6675,-4.705,-4.7549,-4.801,-4.8724,-4.951,-5.0298,-5.0333,-4.9557,-4.799,-4.7331,-4.5991,-4.3892,-4.2762,-4.1284,-3.9389,-3.8785,-3.7489,-3.5271,-3.3128,-3.177,0.0,0.0,0.0,0.0,0.0,0.0,0.0,0.0,0.0,0.0,0.0,-3.5789,-3.6582,-3.9276,-4.1001,-4.1077,-4.3185,-4.458,-4.458,-4.6654,-4.8288,-4.8783,-4.9829,-5.0343,-4.9994,-5.0674,-5.1371,-5.183,-5.1885,-5.2179,-5.3096,-5.2032,-5.0986,-5.0674,-5.172,-5.2362,-5.2013,-5.2637,-5.3185,-5.3143,-5.306,-5.2959,-5.2912,-5.2743,-5.2631,-5.2608,-5.2536,-5.2498,-5.2498,-5.2498,-5.2498,-5.2498,-5.2498,-5.2503,-5.2554,-5.2627,-5.2672,-5.2581,-5.2649,-5.2672,-5.6604,-5.6604,-5.6604,-5.6157,-5.5491,-5.5964,-5.5974,-5.5605,-5.5459,-5.5344,-5.5164,-5.4607,-5.4722,-5.528,-5.3857,-5.3606,-5.426,-5.3433,-5.3029,-5.3029,-5.2933,-5.2895,-5.2895,-5.2895,-5.2876,-5.2876,-5.2876,-5.2895,-5.2876,-5.2876,-5.2433,-5.1615,-5.1577,-5.0769,-4.9211,-4.8443,-4.8068,-4.8,-4.8628,-4.9321,-5.0026,-4.9905,-4.8602,-4.6194,-4.6118,-4.4637,-4.1456,-4.1189,-3.9905,-3.7374,-3.7779,-3.6963,-3.4452,-3.3456,-3.2676,0.0,-3.1164,0.0,0.0,0.0,0.0,0.0,0.0,0.0,0.0,-3.7327,-3.8355,-3.9239,-4.1313,-4.2396,-4.1902,-4.4507,-4.6195,-4.6305,-4.904,-5.0637,-5.0013,-5.183,-5.2949,-5.2234,-5.2674,-5.3059,-5.2968,-5.2986,-5.2894,-5.2968,-5.2876,-5.2766,-5.3075,-5.3075,-5.3112,-5.3185,-5.3185,-5.3164,-5.3042,-5.2999,-5.2915,-5.2806,-5.2672,-5.2608,-5.2586,-5.2513,-5.2498,-5.2498,-5.2498,-5.2498,-5.2498,-5.2498,-5.2526,-5.2563,-5.2604,-5.2581,-5.2531,-5.2559,-5.2527,-5.6604,-5.6604,-5.6604,-5.6508,-5.6313,-5.5738,-5.4535,-5.3009,-5.2872,-5.2749,-5.2664,-5.3222,-5.353,-5.3645,-5.3356,-5.328,-5.3395,-5.2538,-5.2154,-5.2115,-5.1471,-5.1174,-5.1164,-5.1164,-5.1164,-5.1174,-5.1164,-5.1164,-5.1174,-5.1174,-5.0721,-4.9894,-4.9875,-4.9346,-4.8356,0.0,0.0,0.0,-4.809,-4.8233,-4.8269,-4.7589,-4.6042,-4.3634,-4.4121,0.0,-4.0306,-3.9499,-3.8793,-3.8013,-3.7464,0.0,0.0,0.0,0.0,0.0,0.0,0.0,0.0,0.0,0.0,0.0,-3.7031,-3.6721,-3.6419,-3.8836,-4.102,-4.2451,-4.3608,-4.4709,-4.5865,-4.7095,-4.7847,-4.7957,-5.0196,-5.1701,-5.1573,-5.2527,-5.3112,-5.3004,-5.2527,-5.2215,-5.2197,-5.1683,-5.1536,-5.2123,-5.2234,-5.2491,-5.3093,-5.3167,-5.3185,-5.3185,-5.3185,-5.3143,-5.302,-5.2934,-5.2806,-5.2676,-5.2559,-5.2508,-5.2526,-5.2503,-5.2498,-5.2498,-5.2498,-5.2498,-5.2498,-5.2498,-5.248,-5.2503,-5.2526,-5.2531,-5.2563,-5.2568,-5.2386,-5.6604,-5.6604,-5.6604,-5.6372,0.0,-5.5025,-5.3556,-5.1794,-5.2538,-5.2719,-5.2549,-5.2538,-5.2799,-5.3126,-5.1875,-5.1568,-5.1895,-5.0625,-5.025,-5.0625,-5.024,-5.0298,-5.0683,-5.0683,-5.0683,-5.0683,-5.0683,-5.0683,-5.0683,-5.0683,-5.0481,-5.0058,-5.0029,-4.9808,-4.9356,-4.9336,-4.9085,-4.855,-4.8562,-4.8752,-4.9067,-4.8632,-4.7188,-4.4781,-4.5019,0.0,0.0,0.0,0.0,0.0,0.0,0.0,0.0,0.0,0.0,-3.724,-3.6881,-3.7024,-3.778,-3.7873,-3.8412,-3.9626,-4.0224,-4.0307,-3.976,-4.195,-4.3887,-4.5058,-4.5768,-4.6445,-4.7276,-4.8291,-4.893,-4.904,-5.0765,-5.2016,-5.2032,-5.2362,-5.2601,-5.2546,-5.1903,-5.1389,-5.1389,-5.1096,-5.0967,-5.1353,-5.1756,-5.2123,-5.2546,-5.2968,-5.3185,-5.3185,-5.3185,-5.3146,-5.302,-5.2955,-5.285,-5.2739,-5.2627,-5.2577,-5.2536,-5.2526,-5.2498,-5.2498,-5.2498,-5.2498,-5.2498,-5.2498,-5.2498,-5.2498,-5.2498,-5.234,-5.2064,-5.1978,-5.1846,-5.6604,-5.6604,-5.6604,-5.6196,-5.5454,-5.4439,-5.293,-5.1285,-5.2403,0.0,0.0,-5.1923,-5.2096,-5.2587,-5.0567,-5.0029,-5.0577,-4.9202,-4.8933,-4.9606,-4.9625,-5.001,-5.0673,-5.0683,-5.0683,-5.0683,-5.0683,-5.0683,-5.0683,-5.0683,-5.0683,-5.0683,-5.0683,-5.0663,-5.0623,-5.0613,-5.0257,-4.9537,-4.9179,-4.9299,-4.9912,-4.9599,-4.8277,-4.5889,-4.5851,-4.4418,-4.1418,-4.0654,-3.9557,-3.8032,-3.7917,-3.7561,-3.6831,-3.8034,-3.8839,-3.8973,-3.9644,-4.0384,-4.1161,-4.1218,-4.1588,-4.2441,-4.3087,-4.3525,-4.3625,-4.5026,-4.6233,-4.7041,-4.7588,-4.7893,-4.7911,-4.8861,-4.9546,-4.9565,-5.0814,-5.1621,-5.1658,-5.1742,-5.1793,-5.1701,-5.1224,-5.0729,-5.06,-5.0563,-5.06,-5.0655,-5.1077,-5.1667,-5.1867,-5.2601,-5.3185,-5.3185,-5.3185,-5.3164,-5.306,-5.2999,-5.2955,-5.2806,-5.2698,-5.2635,-5.2631,-5.2599,-5.2549,-5.2572,-5.2567,-5.2549,-5.2526,-5.2526,-5.2449,-5.2317,-5.2281,-5.2027,-5.1285,-5.0959,-5.0832,-5.6604,-5.6604,-5.6604,-5.6528,-5.6294,-5.4693,-5.2927,-5.1172,-5.0468,-5.0069,-4.9952,-5.0587,-5.0943,-5.102,-5.0683,-5.0596,-5.0683,-5.0433,-5.0394,-5.0519,-5.0519,-5.0577,-5.0683,-5.0683,-5.0683,-5.0683,-5.0683,-5.0683,-5.0683,-5.0683,-5.0683,-5.0683,-5.0683,-5.0683,-5.0673,-5.0673,-5.0596,-5.0392,-4.894,-4.8167,-4.8154,-4.6748,-4.5144,-4.3443,-4.3386,-4.245,-4.0568,-4.0396,-4.0177,-3.991,-3.991,-4.0022,-4.0355,-4.056,-4.0953,-4.1425,-4.16,-4.2,-4.2808,-4.287,-4.3314,-4.4291,-4.4512,-4.4782,-4.5322,-4.6181,-4.7064,-4.7849,-4.8592,-4.9052,-4.9071,-4.9233,-4.9321,-4.9358,-4.9888,-5.0268,-5.0343,-5.0724,-5.0967,-5.0949,-5.0875,-5.049,-4.9939,-4.9867,-4.9922,-4.9849,-5.0216,-5.029,-5.1096,-5.2252,-5.3093,-5.3185,-5.3185,-5.3124,-5.2969,-5.298,-5.2904,-5.2828,-5.2783,-5.2765,-5.2783,-5.2739,-5.2717,-5.2757,-5.2717,-5.2694,-5.2627,-5.2586,-5.2286,-5.176,-5.1556,-5.1271,-5.047,-4.9782,-4.9311,-5.6604,-5.6604,-5.6604,-5.6333,-5.5767,-5.4049,-5.2498,-5.1199,-5.0685,-5.0371,-5.025,-5.0548,-5.0683,-5.0654,-5.0212,-5.0,-4.9981,-4.951,-4.9548,-4.9981,-4.999,-5.0269,-5.0673,-5.0683,-5.0683,-5.0683,-5.0683,-5.0683,-5.0683,-5.0683,-5.0683,-5.0683,-5.0683,-5.0683,-5.0673,-5.0231,-4.9971,-4.9863,-4.9074,-4.859,-4.8493,-4.7294,-4.629,-4.5515,-4.5086,-4.4456,-4.3692,-4.2784,-4.2306,-4.2306,-4.1886,-4.177,-4.2013,-4.2441,-4.2816,-4.3077,-4.3532,-4.395,-4.4317,-4.4336,-4.4554,-4.5019,-4.5087,-4.5384,-4.6063,-4.6923,-4.7738,-4.8554,-4.9215,-4.957,-4.9556,-4.9237,-4.9015,-4.9015,-4.947,-4.9769,-4.9805,-4.9985,-5.0161,-5.0161,-5.0141,-5.0014,-4.9647,-4.9978,-5.0251,-5.0233,-5.0251,-5.0417,-5.0747,-5.1426,-5.1922,-5.1922,-5.1903,-5.2084,-5.2391,-5.2464,-5.2587,-5.2907,-5.2955,-5.2915,-5.2912,-5.2868,-5.2783,-5.2698,-5.2698,-5.2649,-5.254,-5.2554,-5.2168,-5.1547,-5.1307,-5.085,-4.9782,-4.8822,-4.8312,-5.6604,-5.6604,-5.6604,-5.5981,-5.4869,-5.3348,-5.2155,-5.1287,-5.1211,-5.1118,-5.0951,-5.0808,-5.074,-5.0653,-5.0019,-4.9702,-4.9586,-4.9009,-4.9067,-4.9644,-4.9702,-5.0048,-5.0654,-5.0683,-5.0616,-5.0442,-5.0404,-5.0298,-5.0125,-5.0115,-5.0115,-5.0106,-5.0135,-5.0115,-5.0096,-4.9452,-4.9087,-4.9019,-4.8787,-4.8707,-4.8805,-4.7955,-4.7502,-4.7444,-4.6653,-4.6233,-4.6156,-4.4972,-4.4197,-4.4006,-4.3586,-4.3271,-4.3138,-4.3834,-4.4293,-4.435,-4.4914,-4.5277,-4.5277,-4.5277,-4.5277,-4.5277,-4.5277,-4.5545,-4.6214,-4.7005,-4.7952,-4.8942,-4.9524,-4.9803,-4.9716,-4.9287,-4.8917,-4.8956,-4.9196,-4.9398,-4.9415,-4.9356,-4.9317,-4.9317,-4.9463,-4.9574,-4.9499,-5.0178,-5.0747,-5.0765,-5.0949,-5.1022,-5.0875,-5.0912,-5.1041,-5.0875,-5.0949,-5.1499,-5.2087,-5.2325,-5.2601,-5.313,-5.3103,-5.302,-5.2999,-5.2893,-5.2806,-5.268,-5.2458,-5.2367,-5.2354,-5.2082,-5.161,-5.0893,-5.0631,-5.0216,-4.8912,-4.8246,-4.7793,-5.6604,-5.6604,-5.6584,-5.563,-5.4068,-5.3073,-5.2173,-5.1401,-5.1271,-5.1176,-5.1156,-5.0984,-5.0871,-5.0866,-5.0633,-5.0539,-5.0539,-5.0481,-5.0471,-5.051,-5.0577,-5.0635,-5.0693,-5.0673,-5.026,-4.9625,-4.9529,-4.9144,-4.8529,-4.8432,-4.8394,-4.8336,-4.8336,-4.8385,-4.8355,-4.8298,-4.8221,-4.8192,-4.7434,-4.7357,-4.7905,-4.7095,-4.6615,-4.6615,-4.5831,-4.5392,-4.5449,-4.5258,-4.4819,-4.414,-4.4647,-4.4666,-4.4055,-4.4666,-4.5144,-4.5105,-4.5231,-4.5277,-4.5277,-4.5277,-4.5277,-4.5277,-4.5277,-4.5335,-4.5468,-4.6194,-4.7322,-4.8663,-4.9461,-4.9665,-4.9771,-4.9416,-4.9152,-4.9193,-4.9012,-4.8857,-4.8861,-4.8587,-4.8416,-4.8416,-4.9132,-4.9335,-4.893,-4.9939,-5.0802,-5.082,-5.1353,-5.1499,-5.0949,-5.1261,-5.1481,-5.1132,-5.1371,-5.2126,-5.2747,-5.3059,-5.2949,-5.3093,-5.3185,-5.3103,-5.302,-5.2977,-5.2937,-5.2576,-5.2204,-5.1901,-5.1694,-5.1244,-5.0402,-4.9937,-4.9486,-4.8912,-4.8079,-4.7853,-4.7822,-5.6604,-5.6547,-5.6059,-5.483,-5.321,-5.2312,-5.1726,-5.1412,-5.1335,-5.1325,-5.1294,-5.1147,-5.1017,-5.0906,-5.0758,-5.0683,-5.0683,-5.0683,-5.0683,-5.0683,-5.0683,-5.0683,-5.0654,-5.0144,-4.9721,-4.9356,-4.8894,-4.8452,-4.8154,-4.8096,-4.8096,-4.8096,-4.8096,-4.8096,-4.8067,-4.7635,-4.7394,-4.7365,-4.6502,-4.6186,-4.6388,-4.6078,-4.5835,-4.5755,-4.5468,-4.5277,-4.5277,-4.5277,-4.4895,-4.4121,-4.435,-4.415,-4.3348,-4.3634,-4.3825,-4.3864,-4.4284,-4.4762,-4.5258,-4.5277,-4.5277,-4.5277,-4.5277,-4.5277,-4.5316,-4.6042,-4.6844,-4.7452,-4.8054,-4.8612,-4.9195,-4.8738,-4.8554,-4.9062,-4.885,-4.8514,-4.8495,-4.8383,-4.8324,-4.8379,-4.9058,-4.9482,-4.937,-5.049,-5.1206,-5.1059,-5.1481,-5.1667,-5.0986,-5.1096,-5.1334,-5.1559,-5.1979,-5.2238,-5.2518,-5.205,-5.227,-5.2931,-5.3185,-5.3164,-5.3005,-5.2999,-5.2871,-5.2395,-5.188,-5.1525,-5.14,-5.092,-5.0203,-4.9478,-4.8662,-4.8182,-4.7873,-4.7904,-4.7909,-5.645,-5.6098,-5.5064,-5.3875,-5.2646,-5.1765,-5.1394,-5.1394,-5.1394,-5.1394,-5.139,-5.1255,-5.1128,-5.0972,-5.0825,-5.0777,-5.0749,-5.0712,-5.0683,-5.0683,-5.0683,-5.0577,-5.0308,-4.9721,-4.9144,-4.8663,-4.8067,-4.7644,-4.7451,-4.7413,-4.7413,-4.7413,-4.7413,-4.7413,-4.7355,-4.6797,-4.6528,-4.6509,-4.5858,-4.5504,-4.5495,-4.5429,-4.536,-4.5328,-4.5307,-4.5192,-4.4934,-4.4953,-4.4437,-4.3386,-4.3529,-4.3281,-4.2507,-4.2679,-4.2794,-4.287,-4.3548,-4.4255,-4.4914,-4.5163,-4.5277,-4.5277,-4.5277,-4.5277,-4.5392,-4.5831,-4.6137,-4.6222,-4.6475,-4.7187,-4.8275,-4.7861,-4.7884,-4.8771,-4.843,-4.82,-4.8531,-4.8514,-4.8495,-4.8605,-4.9158,-4.964,-4.9898,-5.0631,-5.1084,-5.1154,-5.1687,-5.2055,-5.1616,-5.1692,-5.2081,-5.2504,-5.2698,-5.2605,-5.2426,-5.2056,-5.2128,-5.2755,-5.331,-5.295,-5.2881,-5.2842,-5.2525,-5.1855,-5.1536,-5.1114,-5.0609,-5.0251,-4.9711,-4.9033,-4.8368,-4.7922,-4.7925,-4.799,-4.7922,-5.6118,-5.5162,-5.3524,-5.2802,-5.2626,-5.1765,-5.1394,-5.1394,-5.1394,-5.1394,-5.1388,-5.1262,-5.1199,-5.1174,-5.0985,-5.0887,-5.0863,-5.0767,-5.0664,-5.0635,-5.0645,-5.0231,-4.949,-4.9394,-4.8567,-4.7317,-4.7067,-4.6567,-4.5864,-4.5787,-4.571,-4.5768,-4.5845,-4.5787,-4.5825,-4.5806,-4.5671,-4.5729,-4.5643,-4.5522,-4.5429,-4.54,-4.5333,-4.5321,-4.5309,-4.4857,-4.4178,-4.4064,-4.3329,-4.1705,-4.2431,-4.2469,-4.1724,-4.2278,-4.2679,-4.2832,-4.3491,-4.3968,-4.4159,-4.48,-4.5258,-4.5277,-4.5277,-4.5277,-4.5277,-4.5392,-4.5449,-4.5373,-4.5289,-4.5804,-4.7043,-4.7019,-4.7196,-4.801,-4.7884,-4.8153,-4.9062,-4.8878,-4.8967,-4.911,-4.927,-4.9559,-5.0247,-4.999,-5.0528,-5.128,-5.2062,-5.2419,-5.2614,-5.3315,-5.3671,-5.3615,-5.3387,-5.3183,-5.3423,-5.2642,-5.2789,-5.3256,-5.2976,-5.2529,-5.2473,-5.2322,-5.1782,-5.1168,-5.0398,-4.988,-4.9632,-4.9149,-4.8502,-4.8054,-4.8022,-4.78,-4.7716,-4.7999,-4.7784,-5.5747,-5.4381,-5.3212,-5.2392,-5.1843,-5.1531,-5.1394,-5.1394,-5.1394,-5.1394,-5.1392,-5.1357,-5.1327,-5.1325,-5.1161,-5.1039,-5.0966,-5.0859,-5.0527,-5.0063,-4.9986,-4.9502,-4.8596,-4.8067,-4.7548,-4.6923,-4.6355,-4.5913,-4.5652,-4.5594,-4.5594,-4.5594,-4.5594,-4.5594,-4.5594,-4.5594,-4.5594,-4.5594,-4.5594,-4.554,-4.5419,-4.4921,-4.4633,-4.4575,-4.4496,-4.4074,-4.3261,-4.3233,-4.2698,-4.1562,-4.182,-4.159,-4.0883,-4.1017,-4.1457,-4.1915,-4.224,-4.287,-4.3854,-4.4303,-4.4723,-4.525,-4.5277,-4.5277,-4.5277,-4.5277,-4.5277,-4.5267,-4.5224,-4.551,-4.581,-4.5997,-4.6454,-4.7387,-4.78,-4.8059,-4.8509,-4.8856,-4.9177,-4.9268,-4.9299,-4.9434,-4.9756,-4.998,-5.0378,-5.0876,-5.1538,-5.2005,-5.2148,-5.2498,-5.2757,-5.2679,-5.2617,-5.2647,-5.2746,-5.2425,-5.2304,-5.2632,-5.2545,-5.1881,-5.1583,-5.1311,-5.0837,-5.0431,-4.9538,-4.9204,-4.9138,-4.8789,-4.8042,-4.8047,-4.7956,-4.7438,-4.7361,-4.7407,-4.6985,-5.4908,-5.3561,-5.2644,-5.1941,-5.1414,-5.1394,-5.1394,-5.1394,-5.1394,-5.1394,-5.1394,-5.1394,-5.1394,-5.1367,-5.1255,-5.1016,-5.0705,-5.0584,-5.0233,-4.9683,-4.935,-4.8678,-4.778,-4.7171,-4.674,-4.6451,-4.5922,-4.5594,-4.5594,-4.5594,-4.5594,-4.5594,-4.5594,-4.5594,-4.5594,-4.5594,-4.5594,-4.5594,-4.5594,-4.5568,-4.5408,-4.4661,-4.4058,-4.3704,-4.3417,-4.2976,-4.2412,-4.2393,-4.1991,-4.1246,-4.1132,-4.0883,-4.0358,-4.032,-4.053,-4.1036,-4.138,-4.1953,-4.308,-4.3682,-4.4255,-4.4838,-4.5144,-4.5277,-4.5277,-4.5277,-4.5277,-4.5277,-4.5277,-4.5277,-4.532,-4.543,-4.6051,-4.7169,-4.7686,-4.8145,-4.874,-4.9225,-4.9489,-4.9599,-4.9556,-4.9527,-4.9612,-4.9883,-5.0161,-5.039,-5.1077,-5.1506,-5.1635,-5.1926,-5.2058,-5.2073,-5.2395,-5.2512,-5.2522,-5.2238,-5.2126,-5.2378,-5.1853,-5.1187,-5.0805,-5.0464,-5.0085,-4.9619,-4.9233,-4.8918,-4.8642,-4.8347,-4.8235,-4.8212,-4.7674,-4.7049,-4.6867,-4.6626,-4.6291,-5.3541,-5.2704,-5.1785,-5.1472,-5.1394,-5.1394,-5.1394,-5.1394,-5.1394,-5.1394,-5.1394,-5.1394,-5.1394,-5.1367,-5.1265,-5.0833,-5.0341,-4.9999,-4.9693,-4.9462,-4.8709,-4.7865,-4.7004,-4.686,-4.6418,-4.5774,-4.5642,-4.5603,-4.5594,-4.5594,-4.5594,-4.5594,-4.5594,-4.5594,-4.5594,-4.5594,-4.5594,-4.5594,-4.5594,-4.5568,-4.5389,-4.463,-4.3797,-4.2984,-4.2163,-4.1647,-4.1504,-4.1504,-4.117,-4.0492,-4.0377,-4.0339,-4.031,-4.031,-4.0329,-4.0492,-4.1046,-4.1437,-4.1753,-4.3004,-4.3739,-4.4197,-4.48,-4.5182,-4.5277,-4.5277,-4.5277,-4.5277,-4.5277,-4.5277,-4.5277,-4.5311,-4.5881,-4.7384,-4.739,-4.8017,-4.9409,-4.9924,-4.9929,-5.012,-4.9981,-4.9936,-5.0051,-4.9885,-4.983,-5.0285,-5.0747,-5.1161,-5.1396,-5.1847,-5.2507,-5.2564,-5.226,-5.2025,-5.2125,-5.2188,-5.2215,-5.2142,-5.125,-5.0515,-5.0415,-5.0146,-4.9821,-4.937,-4.8768,-4.8492,-4.848,-4.8174,-4.7828,-4.7684,-4.7105,-4.6642,-4.6392,-4.6171,-4.5925,-5.3483,-5.2646,-5.1765,-5.1394,-5.1394,-5.1394,-5.1394,-5.1394,-5.1394,-5.1394,-5.1394,-5.1394,-5.1394,-5.1392,-5.1357,-5.1204,-5.0902,-4.9739,-4.8782,-4.8202,-4.7816,-4.7173,-4.6407,-4.6228,-4.604,-4.5788,-4.5734,-4.5692,-4.562,-4.5603,-4.5594,-4.5594,-4.5594,-4.5594,-4.5594,-4.5594,-4.5594,-4.5594,-4.5594,-4.5568,-4.5369,-4.4121,-4.323,-4.2802,-4.1529,-4.0764,-4.0727,-4.0701,-4.0559,-4.032,-4.032,-4.032,-4.0318,-4.0345,-4.0382,-4.0401,-4.0528,-4.0988,-4.1542,-4.203,-4.2851,-4.372,-4.4236,-4.4704,-4.5201,-4.5258,-4.5258,-4.5258,-4.5277,-4.5277,-4.5277,-4.5277,-4.5583,-4.6042,-4.6492,-4.7266,-4.8606,-4.9532,-5.0116,-5.0267,-5.0212,-5.0212,-5.0236,-4.9993,-5.0038,-5.0212,-5.0467,-5.0638,-5.0763,-5.1047,-5.1047,-5.1085,-5.1085,-5.1314,-5.1295,-5.1295,-5.1305,-5.132,-5.0699,-5.0225,-5.0094,-4.985,-4.9514,-4.9129,-4.8539,-4.8201,-4.8187,-4.7879,-4.7484,-4.7099,-4.6614,-4.6266,-4.6002,-4.5745,-4.5504,-5.3307,-5.2195,-5.1629,-5.1394,-5.1394,-5.1394,-5.1394,-5.1394,-5.1394,-5.1394,-5.1394,-5.1394,-5.1394,-5.1394,-5.1394,-5.1004,-5.036,-4.9247,-4.8159,-4.7131,-4.6927,-4.654,-4.6012,-4.5915,-4.5872,-4.5841,-4.5848,-4.5783,-4.5711,-4.5708,-4.5676,-4.5668,-4.5629,-4.5594,-4.5594,-4.5594,-4.5594,-4.5594,-4.5594,-4.5423,-4.4858,-4.3744,-4.2862,-4.2375,-4.1159,-4.049,-4.0432,-4.0363,-4.0337,-4.0337,-4.0337,-4.0336,-4.0325,-4.0389,-4.0407,-4.0379,-4.0372,-4.0575,-4.1083,-4.139,-4.1877,-4.2889,-4.3357,-4.3749,-4.4303,-4.4571,-4.4819,-4.4819,-4.5105,-4.5277,-4.5277,-4.5277,-4.5277,-4.5316,-4.6069,-4.6997,-4.8094,-4.9175,-4.9958,-5.0168,-5.029,-5.0302,-5.0302,-5.0302,-5.0302,-5.0302,-5.0302,-5.0302,-5.0302,-5.034,-5.0302,-5.0321,-5.0493,-5.0569,-5.0417,-5.0378,-5.0359,-5.0316,-5.0164,-4.9979,-4.9882,-4.9582,-4.9265,-4.8916,-4.8405,-4.8139,-4.8064,-4.7292,-4.6771,-4.6417,-4.6171,-4.583,-4.5546,-4.5363,-4.5166,-5.2936,-5.1472,-5.1394,-5.1394,-5.1394,-5.1394,-5.1394,-5.1394,-5.1394,-5.1394,-5.1394,-5.1394,-5.1394,-5.1394,-5.1277,-5.0477,-4.9111,-4.872,-4.792,-4.6813,-4.6357,-4.6167,-4.6098,-4.6009,-4.5964,-4.5934,-4.5929,-4.5919,-4.5856,-4.5829,-4.5814,-4.5787,-4.5696,-4.562,-4.5637,-4.5612,-4.562,-4.5594,-4.5518,-4.5047,-4.4355,-4.3404,-4.2635,-4.1857,-4.1006,-4.051,-4.0482,-4.0441,-4.0415,-4.0407,-4.0379,-4.0407,-4.0388,-4.0415,-4.0424,-4.0424,-4.0342,-4.0316,-4.0498,-4.095,-4.1457,-4.1762,-4.2354,-4.2794,-4.308,-4.3749,-4.4178,-4.4208,-4.4838,-4.5277,-4.5277,-4.5277,-4.5277,-4.5373,-4.6023,-4.715,-4.8594,-4.8899,-4.9308,-4.9939,-5.0225,-5.0264,-5.0245,-5.0302,-5.0302,-5.0302,-5.0302,-5.0302,-5.0302,-5.0302,-5.0302,-5.0302,-5.0302,-5.0302,-5.0302,-5.0302,-5.0302,-5.0236,-5.0088,-4.9987,-4.9796,-4.9471,-4.9163,-4.8801,-4.8194,-4.7992,-4.7585,-4.6792,-4.6313,-4.6115,-4.5799,-4.542,-4.5235,-4.514,-4.5106,-5.2409,-5.1433,-5.1394,-5.1394,-5.1394,-5.1394,-5.1394,-5.1394,-5.1394,-5.1394,-5.1394,-5.1394,-5.1394,-5.1336,-5.0748,-5.0163,-4.9499,-4.8465,-4.7801,-4.7215,-4.6526,-4.6264,-4.6245,-4.6211,-4.6138,-4.6076,-4.6045,-4.5996,-4.5905,-4.5897,-4.5875,-4.5875,-4.5834,-4.5783,-4.5745,-4.5742,-4.5692,-4.5496,-4.4932,-4.4566,-4.4085,-4.2874,-4.2058,-4.1769,-4.0942,-4.0531,-4.05,-4.0484,-4.0455,-4.0415,-4.0441,-4.0466,-4.0466,-4.0471,-4.0468,-4.046,-4.0422,-4.037,-4.041,-4.0548,-4.0883,-4.1447,-4.1667,-4.2106,-4.2794,-4.3529,-4.393,-4.4159,-4.4781,-4.5277,-4.5277,-4.5277,-4.5277,-4.5392,-4.5984,-4.6672,-4.7226,-4.778,-4.8468,-4.9232,-4.9404,-4.9652,-5.0073,-5.0225,-5.0264,-5.0283,-5.0302,-5.0302,-5.0302,-5.0302,-5.0302,-5.0302,-5.0302,-5.0302,-5.0302,-5.0302,-5.0302,-5.0302,-5.0217,-5.0147,-4.9883,-4.9542,-4.9239,-4.8958,-4.7692,-4.7186,-4.6736,-4.611,-4.5935,-4.5793,-4.5583,-4.5277,-4.5277,-4.5235,-4.5224,-5.2195,-5.1394,-5.1394,-5.1394,-5.1394,-5.1394,-5.1394,-5.1394,-5.1394,-5.1394,-5.1394,-5.1394,-5.1394,-5.1297,-5.0514,-4.9889,-4.9401,-4.8191,-4.743,-4.6983,-4.6513,-4.63,-4.63,-4.63,-4.6247,-4.6206,-4.6181,-4.6141,-4.6064,-4.6009,-4.5968,-4.5954,-4.5925,-4.5867,-4.5835,-4.5789,-4.5559,-4.5133,-4.454,-4.4047,-4.322,-4.2346,-4.1662,-4.1316,-4.0719,-4.0496,-4.0496,-4.0496,-4.0484,-4.0444,-4.0479,-4.0495,-4.0495,-4.05,-4.0496,-4.0489,-4.0447,-4.0407,-4.0389,-4.0337,-4.052,-4.0883,-4.0998,-4.1227,-4.182,-4.2756,-4.3501,-4.3548,-4.4571,-4.5163,-4.5277,-4.5277,-4.5277,-4.5335,-4.5717,-4.6137,-4.6443,-4.6978,-4.7627,-4.8258,-4.8602,-4.8869,-4.9671,-4.9786,-4.9996,-5.0206,-5.0302,-5.0302,-5.0302,-5.0302,-5.0302,-5.0302,-5.0283,-5.0264,-5.0206,-5.0187,-5.0034,-5.0054,-4.9729,-4.9786,-4.948,-4.9137,-4.8705,-4.8109,-4.7139,-4.6366,-4.6003,-4.5717,-4.5583,-4.543,-4.5297,-4.5258,-4.5239,-4.5105,-4.5125,-5.2117,-5.1394,-5.1394,-5.1394,-5.1394,-5.1394,-5.1394,-5.1394,-5.1394,-5.1394,-5.1394,-5.1394,-5.1297,-5.1199,-5.0202,-4.948,-4.8642,-4.7723,-4.7042,-4.6573,-4.63,-4.6302,-4.6302,-4.6302,-4.6278,-4.6275,-4.63,-4.6277,-4.624,-4.615,-4.6135,-4.6102,-4.6005,-4.5959,-4.5929,-4.5865,-4.5351,-4.4685,-4.4291,-4.3424,-4.2341,-4.1748,-4.1259,-4.0739,-4.0612,-4.0496,-4.0496,-4.0496,-4.0489,-4.0489,-4.0496,-4.0489,-4.0496,-4.0496,-4.0496,-4.0492,-4.0447,-4.0407,-4.0389,-4.0337,-4.032,-4.0396,-4.0396,-4.032,-4.0798,-4.1972,-4.2928,-4.2947,-4.4352,-4.5154,-4.5298,-4.5317,-4.5298,-4.5317,-4.5375,-4.5689,-4.6156,-4.6366,-4.6699,-4.7502,-4.7654,-4.8086,-4.864,-4.9033,-4.9251,-4.9767,-4.9939,-5.0034,-5.0149,-5.0302,-5.0302,-5.0302,-5.0264,-5.0245,-5.0149,-5.0073,-4.9843,-4.9671,-4.9117,-4.8869,-4.8544,-4.8181,-4.7723,-4.7111,-4.6462,-4.5946,-4.5564,-4.5354,-4.5277,-4.5277,-4.5277,-4.522,-4.5125,-4.4876,-4.4781,-5.157,-5.1394,-5.1394,-5.1394,-5.1394,-5.1394,-5.1394,-5.1394,-5.1394,-5.1394,-5.1394,-5.1394,-5.1004,-5.0358,-4.954,-4.8642,-4.7879,-4.7081,-4.6436,-4.6358,-4.6302,-4.6302,-4.6302,-4.6302,-4.6302,-4.6302,-4.6302,-4.6302,-4.6277,-4.6271,-4.6267,-4.6243,-4.6187,-4.6131,-4.6018,-4.5888,-4.5531,-4.463,-4.392,-4.2995,-4.1957,-4.126,-4.0872,-4.0527,-4.0496,-4.0496,-4.0496,-4.0496,-4.0496,-4.0496,-4.0496,-4.0496,-4.0496,-4.0496,-4.0496,-4.0473,-4.0447,-4.0407,-4.0389,-4.0346,-4.032,-4.032,-4.032,-4.032,-4.0416,-4.1781,-4.266,-4.3061,-4.4275,-4.5165,-4.5339,-4.5369,-4.533,-4.533,-4.532,-4.5367,-4.5547,-4.5613,-4.6003,-4.6538,-4.6795,-4.7111,-4.7952,-4.8067,-4.8468,-4.9137,-4.9461,-4.9652,-4.9843,-5.0034,-4.9939,-4.9748,-4.9767,-4.9614,-4.9404,-4.9308,-4.9175,-4.8926,-4.8449,-4.8028,-4.7704,-4.7264,-4.6825,-4.6424,-4.5984,-4.5564,-4.5316,-4.5277,-4.5277,-4.5277,-4.5201,-4.4934,-4.4685,-4.4503,-4.4284,-5.1394,-5.1394,-5.1394,-5.1394,-5.1394,-5.1394,-5.1394,-5.1394,-5.1394,-5.1394,-5.1394,-5.1394,-5.0906,-5.0065,-4.9189,-4.8369,-4.7569,-4.671,-4.6302,-4.6302,-4.6302,-4.6302,-4.6302,-4.6302,-4.6302,-4.6302,-4.6302,-4.6302,-4.6302,-4.6302,-4.6298,-4.6302,-4.6282,-4.5954,-4.5635,-4.5511,-4.4709,-4.3653,-4.3059,-4.2329,-4.1452,-4.1014,-4.0705,-4.0595,-4.0542,-4.0496,-4.0496,-4.0496,-4.0496,-4.0496,-4.0496,-4.0496,-4.0496,-4.0496,-4.0496,-4.0481,-4.0427,-4.0407,-4.0389,-4.0346,-4.032,-4.032,-4.032,-4.032,-4.0539,-4.1495,-4.2326,-4.2938,-4.3904,-4.4861,-4.5275,-4.4959,-4.4997,-4.5246,-4.5016,-4.4948,-4.5234,-4.5317,-4.5411,-4.5831,-4.5946,-4.6385,-4.6833,-4.7131,-4.7635,-4.8296,-4.8468,-4.864,-4.8621,-4.8781,-4.8858,-4.882,-4.8915,-4.885,-4.8582,-4.843,-4.8353,-4.8048,-4.7627,-4.7264,-4.6959,-4.6462,-4.5965,-4.5736,-4.5583,-4.5488,-4.5277,-4.5277,-4.5258,-4.5182,-4.4991,-4.4551,-4.4121,-4.3777,-4.3558,-5.1394,-5.1394,-5.1394,-5.1394,-5.1394,-5.1394,-5.1394,-5.1394,-5.1394,-5.1394,-5.1394,-5.1394,-5.0828,-4.987,-4.915,-4.831,-4.7373,-4.6749,-4.6302,-4.6302,-4.6302,-4.6302,-4.6302,-4.6302,-4.6302,-4.6302,-4.6302,-4.6302,-4.6302,-4.6282,-4.6163,-4.6105,-4.6066,-4.5537,-4.4942,-4.4624,-4.3974,-4.2718,-4.2424,-4.1866,-4.1105,-4.0867,-4.0791,-4.0687,-4.0614,-4.0527,-4.0504,-4.0496,-4.0496,-4.0496,-4.0496,-4.0496,-4.0496,-4.0496,-4.0496,-4.0489,-4.0436,-4.0424,-4.0398,-4.0355,-4.032,-4.031,-4.032,-4.031,-4.049,-4.1083,-4.1848,-4.2575,-4.3398,-4.4164,-4.4854,-4.4413,-4.4374,-4.4633,-4.4288,-4.4393,-4.4929,-4.5166,-4.5097,-4.5335,-4.5507,-4.587,-4.6099,-4.6347,-4.6901,-4.7368,-4.7513,-4.7665,-4.7674,-4.7769,-4.7998,-4.817,-4.8342,-4.8048,-4.7742,-4.7207,-4.7169,-4.7111,-4.671,-4.6538,-4.6252,-4.5946,-4.5583,-4.5468,-4.5335,-4.5277,-4.5277,-4.5277,-4.522,-4.5086,-4.4628,-4.4064,-4.3548,-4.3061,-4.2813,-5.1394,-5.1394,-5.1394,-5.1394,-5.1394,-5.1394,-5.1394,-5.1394,-5.1394,-5.1394,-5.1355,-5.1355,-5.0457,-4.9286,-4.8915,-4.7959,-4.6807,-4.636,-4.6302,-4.6302,-4.6302,-4.6302,-4.6302,-4.6302,-4.6302,-4.6302,-4.6302,-4.6302,-4.6302,-4.6282,-4.587,-4.5382,-4.5226,-4.4777,-4.4131,-4.3833,-4.3374,-4.2377,-4.2169,-4.1719,-4.1159,-4.094,-4.0885,-4.0754,-4.0687,-4.0622,-4.0534,-4.0504,-4.0496,-4.0496,-4.0496,-4.0496,-4.0496,-4.0496,-4.0496,-4.0481,-4.0479,-4.0449,-4.0415,-4.0344,-4.0318,-4.032,-4.031,-4.0319,-4.0508,-4.1015,-4.156,-4.2056,-4.2659,-4.3253,-4.3356,-4.3326,-4.3288,-4.3356,-4.3367,-4.3455,-4.4058,-4.4306,-4.4532,-4.4991,-4.5163,-4.5354,-4.5602,-4.5793,-4.6156,-4.6538,-4.6691,-4.6997,-4.7226,-4.7349,-4.7578,-4.7731,-4.7884,-4.7387,-4.6882,-4.6214,-4.5851,-4.6003,-4.5831,-4.5851,-4.5621,-4.5488,-4.5316,-4.5297,-4.5258,-4.522,-4.5239,-4.5163,-4.4781,-4.4341,-4.394,-4.3491,-4.2803,-4.2144,-4.1896,-5.1394,-5.1394,-5.1394,-5.1394,-5.1394,-5.1394,-5.1394,-5.1394,-5.1394,-5.1141,-5.0828,-5.0651,-4.9792,-4.8543,-4.8172,-4.7432,-4.6573,-4.6302,-4.6302,-4.6302,-4.6302,-4.6302,-4.6302,-4.6302,-4.6302,-4.6302,-4.6302,-4.6262,-4.6243,-4.5792,-4.5421,-4.5031,-4.4602,-4.3879,-4.3216,-4.2999,-4.2552,-4.1947,-4.1731,-4.1568,-4.1096,-4.1034,-4.0926,-4.0876,-4.0795,-4.0726,-4.0674,-4.0615,-4.0602,-4.0581,-4.0523,-4.0504,-4.0496,-4.0496,-4.0496,-4.0508,-4.0495,-4.0493,-4.0449,-4.0388,-4.0363,-4.0364,-4.0355,-4.0382,-4.0447,-4.0762,-4.1212,-4.1737,-4.2445,-4.2972,-4.3101,-4.264,-4.2612,-4.2815,-4.2588,-4.2678,-4.3178,-4.334,-4.3875,-4.4562,-4.4972,-4.5163,-4.5297,-4.5449,-4.5545,-4.5698,-4.587,-4.6233,-4.6653,-4.6748,-4.6844,-4.6787,-4.6825,-4.6615,-4.6175,-4.5774,-4.5277,-4.5277,-4.5277,-4.5277,-4.5297,-4.5297,-4.5297,-4.5297,-4.5239,-4.5067,-4.4723,-4.4465,-4.4036,-4.3558,-4.2966,-4.2393,-4.1781,-4.1285,-4.1113,-5.1396,-5.1394,-5.1394,-5.1394,-5.1394,-5.1394,-5.1394,-5.1375,-5.118,-5.0748,-5.0143,-4.985,-4.9011,-4.7859,-4.7352,-4.6944,-4.6302,-4.6302,-4.6302,-4.6302,-4.6302,-4.6302,-4.6302,-4.6302,-4.6302,-4.6282,-4.5968,-4.6046,-4.5831,-4.5402,-4.4914,-4.425,-4.3645,-4.3001,-4.2318,-4.2123,-4.1615,-4.1363,-4.1109,-4.1109,-4.1081,-4.1057,-4.1022,-4.099,-4.0894,-4.0829,-4.0781,-4.0743,-4.0723,-4.0681,-4.061,-4.0549,-4.0542,-4.0519,-4.0496,-4.0489,-4.0503,-4.0499,-4.0474,-4.0449,-4.0415,-4.0398,-4.0398,-4.0432,-4.0485,-4.0573,-4.0765,-4.1451,-4.194,-4.2351,-4.2203,-4.1912,-4.1876,-4.2044,-4.1846,-4.1716,-4.2305,-4.268,-4.2986,-4.3693,-4.4524,-4.4972,-4.5078,-4.5297,-4.5411,-4.543,-4.5602,-4.5583,-4.5908,-4.5774,-4.5793,-4.564,-4.5602,-4.5621,-4.5507,-4.5564,-4.5277,-4.5277,-4.5277,-4.5277,-4.5277,-4.5297,-4.5201,-4.4991,-4.4857,-4.4628,-4.4197,-4.372,-4.3271,-4.2717,-4.1972,-4.1418,-4.1036,-4.0807,-4.0654,-5.1384,-5.1394,-5.1394,-5.1394,-5.1394,-5.1394,-5.1375,-5.1258,-5.0612,-5.0221,-4.9831,-4.9267,-4.8427,-4.7547,-4.6788,-4.6456,-4.6319,-4.6302,-4.6302,-4.6302,-4.6302,-4.6302,-4.6302,-4.6302,-4.6302,-4.6184,-4.5578,-4.5207,-4.5051,-4.4914,-4.4133,-4.3118,-4.2728,-4.2162,-4.1519,-4.1439,-4.1207,-4.1129,-4.1109,-4.1109,-4.1108,-4.1081,-4.1059,-4.1009,-4.0984,-4.0921,-4.085,-4.0815,-4.0796,-4.0776,-4.0723,-4.0681,-4.0675,-4.0564,-4.0512,-4.0496,-4.0508,-4.0492,-4.0499,-4.0482,-4.0458,-4.0422,-4.0405,-4.0441,-4.0474,-4.0495,-4.0542,-4.0558,-4.0846,-4.1019,-4.1143,-4.0835,-4.0758,-4.0877,-4.0987,-4.1157,-4.1623,-4.1826,-4.2154,-4.2738,-4.3531,-4.4362,-4.4829,-4.5078,-4.5297,-4.5297,-4.5277,-4.5277,-4.5277,-4.5277,-4.5277,-4.5277,-4.5277,-4.5277,-4.5277,-4.5277,-4.5258,-4.5258,-4.5258,-4.522,-4.501,-4.4876,-4.4647,-4.4456,-4.4284,-4.3997,-4.3529,-4.3042,-4.2526,-4.1972,-4.138,-4.0922,-4.052,-4.0339,-4.032,-5.1393,-5.1394,-5.1394,-5.1394,-5.1394,-5.1394,-5.1102,-5.0651,-5.028,-4.9558,-4.8757,-4.831,-4.7664,-4.6924,-4.6417,-4.6319,-4.6302,-4.6302,-4.6302,-4.6302,-4.6302,-4.6302,-4.6302,-4.6302,-4.6302,-4.6027,-4.5441,-4.4699,-4.4367,-4.3723,-4.2999,-4.2513,-4.1927,-4.1537,-4.1129,-4.1109,-4.1109,-4.1109,-4.1109,-4.1109,-4.1109,-4.1108,-4.1101,-4.1042,-4.1061,-4.1028,-4.0967,-4.0924,-4.091,-4.089,-4.084,-4.0726,-4.0712,-4.0636,-4.0581,-4.0496,-4.0496,-4.05,-4.0503,-4.0503,-4.0487,-4.0479,-4.0452,-4.0487,-4.0503,-4.05,-4.0496,-4.0516,-4.0496,-4.0496,-4.0496,-4.0496,-4.05,-4.0503,-4.0503,-4.0628,-4.092,-4.0959,-4.1259,-4.1895,-4.2527,-4.3302,-4.4114,-4.4678,-4.4935,-4.5154,-4.5192,-4.525,-4.5269,-4.5277,-4.5277,-4.5277,-4.5277,-4.5277,-4.5277,-4.5277,-4.5201,-4.5182,-4.5173,-4.5029,-4.459,-4.435,-4.4045,-4.3463,-4.2928,-4.2717,-4.266,-4.2316,-4.1781,-4.1304,-4.0817,-4.0568,-4.0339,-4.0339,-4.032,-5.1399,-5.1402,-5.14,-5.1396,-5.1355,-5.118,-5.0709,-5.0104,-4.9597,-4.8757,-4.782,-4.7391,-4.6885,-4.6417,-4.6319,-4.6302,-4.6302,-4.6302,-4.6302,-4.6302,-4.6302,-4.6302,-4.6302,-4.6302,-4.6163,-4.5948,-4.4953,-4.4153,-4.3313,-4.263,-4.2123,-4.2045,-4.15,-4.1168,-4.1187,-4.1382,-4.1539,-4.1539,-4.1246,-4.1129,-4.1109,-4.1109,-4.1109,-4.1108,-4.1109,-4.1109,-4.1085,-4.1042,-4.1017,-4.0974,-4.087,-4.0751,-4.0699,-4.0636,-4.0574,-4.0512,-4.0496,-4.0496,-4.0508,-4.0508,-4.0496,-4.0496,-4.0496,-4.05,-4.0489,-4.0496,-4.0496,-4.0496,-4.0496,-4.0496,-4.0496,-4.0496,-4.05,-4.0492,-4.0492,-4.0471,-4.0458,-4.063,-4.0756,-4.1165,-4.1723,-4.2105,-4.2977,-4.3962,-4.4516,-4.4887,-4.5078,-4.5154,-4.5059,-4.4934,-4.4704,-4.4551,-4.4399,-4.4475,-4.4781,-4.4857,-4.4914,-4.4895,-4.4876,-4.4551,-4.394,-4.3596,-4.3329,-4.2622,-4.1858,-4.1609,-4.1628,-4.1342,-4.1055,-4.0788,-4.0549,-4.0435,-4.032,-4.032,-4.032,-5.1402,-5.1397,-5.1391,-5.1384,-5.1336,-5.0534,-5.0163,-4.9854,-4.8466,-4.7803,-4.7395,-4.6827,-4.6458,-4.6321,-4.6303,-4.6302,-4.6302,-4.6302,-4.6303,-4.6303,-4.6302,-4.6303,-4.6266,-4.6129,-4.5815,-4.513,-4.4254,-4.3336,-4.2533,-4.1851,-4.1382,-4.1148,-4.1187,-4.1129,-4.1265,-4.1597,-4.1869,-4.1771,-4.142,-4.1109,-4.1109,-4.1109,-4.1109,-4.1109,-4.1109,-4.1109,-4.1109,-4.1101,-4.1059,-4.0994,-4.0894,-4.0786,-4.0718,-4.0622,-4.0545,-4.0512,-4.0496,-4.0496,-4.0496,-4.0496,-4.0496,-4.0496,-4.0496,-4.0496,-4.0496,-4.0496,-4.0496,-4.0496,-4.0496,-4.0496,-4.0496,-4.0489,-4.0508,-4.0508,-4.05,-4.0484,-4.0479,-4.0491,-4.06,-4.0692,-4.0982,-4.1423,-4.1844,-4.2823,-4.3666,-4.4058,-4.4382,-4.4459,-4.4218,-4.4055,-4.3692,-4.3443,-4.3195,-4.3367,-4.3883,-4.3978,-4.3902,-4.3902,-4.3883,-4.3501,-4.2985,-4.2717,-4.2584,-4.1972,-4.1266,-4.0941,-4.0673,-4.0692,-4.0635,-4.0454,-4.032,-4.032,-4.032,-4.032,-4.032,-5.1386,-5.1402,-5.1401,-5.1397,-5.1333,-5.0474,-4.9828,-4.9223,-4.811,-4.727,-4.6802,-4.6447,-4.6291,-4.6293,-4.629,-4.6291,-4.6295,-4.6295,-4.6295,-4.6295,-4.6295,-4.6295,-4.6178,-4.5767,-4.528,-4.4712,-4.3678,-4.2836,-4.2385,-4.1505,-4.1208,-4.1111,-4.1111,-4.1109,-4.1304,-4.1461,-4.1615,-4.1615,-4.1343,-4.1129,-4.1109,-4.1109,-4.1109,-4.1109,-4.1109,-4.1109,-4.1109,-4.1109,-4.1064,-4.1003,-4.0944,-4.0849,-4.073,-4.0636,-4.0566,-4.0492,-4.0458,-4.0419,-4.0458,-4.0477,-4.0496,-4.0496,-4.0496,-4.0496,-4.0496,-4.0496,-4.0496,-4.0496,-4.0496,-4.0496,-4.0496,-4.0496,-4.0489,-4.0496,-4.0489,-4.05,-4.0492,-4.0503,-4.0515,-4.0609,-4.0658,-4.0841,-4.1244,-4.1705,-4.2477,-4.3168,-4.3513,-4.3723,-4.3445,-4.3205,-4.288,-4.2613,-4.2393,-4.2574,-4.3109,-4.3042,-4.287,-4.2908,-4.2908,-4.2498,-4.2097,-4.1991,-4.1762,-4.1189,-4.0845,-4.0635,-4.0454,-4.0358,-4.032,-4.032,-4.032,-4.032,-4.032,-4.032,-4.032,-5.1386,-5.1366,-5.1151,-5.1012,-5.091,-5.0109,-4.9289,-4.8449,-4.757,-4.6907,-4.6301,-4.6297,-4.6299,-4.63,-4.6299,-4.6297,-4.6301,-4.6301,-4.6301,-4.6301,-4.6301,-4.6145,-4.5774,-4.5344,-4.4913,-4.4368,-4.3313,-4.2392,-4.2372,-4.1512,-4.1178,-4.1117,-4.1115,-4.1115,-4.1109,-4.1109,-4.1226,-4.142,-4.1207,-4.1129,-4.1109,-4.1109,-4.1109,-4.1109,-4.1109,-4.1109,-4.1109,-4.1106,-4.1068,-4.1014,-4.0951,-4.0881,-4.0787,-4.07,-4.0635,-4.0499,-4.0304,-4.0169,-4.0189,-4.04,-4.0477,-4.0496,-4.0496,-4.0496,-4.0496,-4.0496,-4.0496,-4.0496,-4.0496,-4.0496,-4.0496,-4.0496,-4.0496,-4.0496,-4.0496,-4.0489,-4.0489,-4.05,-4.05,-4.0531,-4.0561,-4.0603,-4.0737,-4.1171,-4.1944,-4.2639,-4.3082,-4.3073,-4.2613,-4.2393,-4.2164,-4.1934,-4.1734,-4.203,-4.2374,-4.202,-4.1791,-4.2116,-4.204,-4.1629,-4.1304,-4.1246,-4.1141,-4.0769,-4.0492,-4.0358,-4.032,-4.032,-4.032,-4.032,-4.032,-4.032,-4.032,-4.032,-4.032,-5.1367,-5.1308,-5.0566,-5.0214,-4.9974,-4.927,-4.845,-4.7708,-4.6849,-4.638,-4.6303,-4.6302,-4.6301,-4.6302,-4.6302,-4.6302,-4.6303,-4.6303,-4.6303,-4.6304,-4.6069,-4.5737,-4.5306,-4.4897,-4.437,-4.3646,-4.2846,-4.2358,-4.2259,-4.1497,-4.1145,-4.1106,-4.1104,-4.1101,-4.1111,-4.1109,-4.1537,-4.2084,-4.1402,-4.1187,-4.1109,-4.1109,-4.1109,-4.1109,-4.1109,-4.1109,-4.1109,-4.1109,-4.1068,-4.1006,-4.0994,-4.0898,-4.0746,-4.0712,-4.0636,-4.0503,-3.9869,-3.9534,-3.9477,-4.0112,-4.0362,-4.0477,-4.0496,-4.0496,-4.0496,-4.0496,-4.0496,-4.0496,-4.0496,-4.0496,-4.0496,-4.0496,-4.0496,-4.0496,-4.0496,-4.0496,-4.0496,-4.0496,-4.0496,-4.0496,-4.0496,-4.0508,-4.0508,-4.075,-4.1495,-4.2136,-4.264,-4.2479,-4.1875,-4.1617,-4.1436,-4.1321,-4.1139,-4.1264,-4.1418,-4.0873,-4.073,-4.1112,-4.1265,-4.0978,-4.0767,-4.0701,-4.0529,-4.032,-4.032,-4.031,-4.032,-4.031,-4.031,-4.032,-4.032,-4.032,-4.032,-4.032,-4.032,-5.1049,-5.0586,-5.0312,-4.9511,-4.8495,-4.8163,-4.7851,-4.7479,-4.6718,-4.6289,-4.6288,-4.6306,-4.6287,-4.6288,-4.6287,-4.6289,-4.625,-4.6288,-4.6288,-4.6211,-4.5742,-4.537,-4.4902,-4.4316,-4.3711,-4.2988,-4.2422,-4.199,-4.1501,-4.1286,-4.1187,-4.1108,-4.1147,-4.1103,-4.1116,-4.1112,-4.1324,-4.1441,-4.1226,-4.1109,-4.1109,-4.1109,-4.1109,-4.1109,-4.1109,-4.1109,-4.1109,-4.1109,-4.107,-4.1028,-4.1,-4.0929,-4.0771,-4.0718,-4.0629,-4.0551,-4.0123,-4.0112,-3.9938,-4.0092,-3.9969,-4.0273,-4.0496,-4.0496,-4.0496,-4.0496,-4.0496,-4.0496,-4.0496,-4.0496,-4.0496,-4.0496,-4.0496,-4.0496,-4.0496,-4.0496,-4.0496,-4.0496,-4.0496,-4.0496,-4.0496,-4.0496,-4.0496,-4.0496,-4.1088,-4.1253,-4.1628,-4.1555,-4.1048,-4.0905,-4.0753,-4.0715,-4.0638,-4.0638,-4.0544,-4.0422,-4.0384,-4.0736,-4.0821,-4.063,-4.0429,-4.0363,-4.0354,-4.0364,-4.0327,-4.0318,-4.0309,-4.0319,-4.031,-4.032,-4.031,-4.032,-4.032,-4.032,-4.032,-5.0867,-5.0195,-4.9883,-4.8926,-4.7715,-4.7617,-4.7441,-4.7109,-4.6543,-4.6289,-4.6289,-4.6289,-4.6289,-4.6289,-4.6289,-4.5996,-4.5898,-4.584,-4.584,-4.5723,-4.4941,-4.459,-4.4238,-4.373,-4.3047,-4.2422,-4.209,-4.1738,-4.1738,-4.1601,-4.16,-4.156,-4.1226,-4.1127,-4.1103,-4.1119,-4.1132,-4.119,-4.1111,-4.1109,-4.1109,-4.1109,-4.1109,-4.1109,-4.1109,-4.1109,-4.1109,-4.1104,-4.108,-4.1033,-4.0995,-4.0955,-4.0824,-4.0553,-4.041,-4.0264,-3.9591,-3.9496,-3.9329,-3.9258,-3.9489,-4.0507,-4.0514,-4.0496,-4.0496,-4.0496,-4.0496,-4.0496,-4.0496,-4.0496,-4.0496,-4.0496,-4.0519,-4.0519,-4.0519,-4.0519,-4.0504,-4.0512,-4.0504,-4.0504,-4.0496,-4.0496,-4.0496,-4.0496,-4.0681,-4.0635,-4.0561,-4.0471,-4.0438,-4.0441,-4.0441,-4.0422,-4.0441,-4.0509,-4.052,-4.0436,-4.0407,-4.0432,-4.0432,-4.0424,-4.0415,-4.0407,-4.0407,-4.0388,-4.0342,-4.0306,-4.0335,-4.0336,-4.0213,-4.0233,-4.032,-4.031,-4.032,-4.032,-4.032,-5.0826,-5.0098,-4.9238,-4.834,-4.7617,-4.7461,-4.7051,-4.6348,-4.6328,-4.6289,-4.6289,-4.6289,-4.6191,-4.6191,-4.6191,-4.5723,-4.5195,-4.5078,-4.5156,-4.4883,-4.4336,-4.4004,-4.3574,-4.2988,-4.248,-4.2129,-4.1973,-4.2129,-4.2305,-4.1953,-4.1992,-4.1992,-4.1385,-4.1189,-4.1129,-4.1106,-4.11,-4.1099,-4.1114,-4.1112,-4.1111,-4.1109,-4.1109,-4.1109,-4.1109,-4.1109,-4.1109,-4.1108,-4.1108,-4.1064,-4.1005,-4.0964,-4.0663,-4.0117,-3.9735,-3.9118,-3.8006,-3.8054,-3.8574,-3.8666,-3.933,-4.0438,-4.0597,-4.0552,-4.0512,-4.0519,-4.0496,-4.0512,-4.0527,-4.0512,-4.0496,-4.0534,-4.0545,-4.0545,-4.0545,-4.0537,-4.0534,-4.0527,-4.0519,-4.0512,-4.0496,-4.0496,-4.0496,-4.0496,-4.0496,-4.0489,-4.05,-4.05,-4.0468,-4.0479,-4.0479,-4.0476,-4.0487,-4.0482,-4.0474,-4.0438,-4.0438,-4.0463,-4.0447,-4.0438,-4.043,-4.0381,-4.0266,-4.0219,-4.027,-4.0226,-4.0006,-3.9961,-4.002,-4.0012,-3.965,-4.01,-4.0034,-4.0263,-4.032,-4.9907,-4.9199,-4.834,-4.748,-4.6738,-4.668,-4.6523,-4.6328,-4.6289,-4.6289,-4.6289,-4.6289,-4.5937,-4.541,-4.5351,-4.4863,-4.4629,-4.4648,-4.4961,-4.4648,-4.4023,-4.3789,-4.3379,-4.2793,-4.2168,-4.209,-4.2226,-4.2305,-4.1699,-4.1621,-4.1621,-4.1406,-4.1367,-4.1211,-4.1133,-4.1111,-4.1108,-4.1104,-4.112,-4.1116,-4.1114,-4.1112,-4.1111,-4.1109,-4.1109,-4.1109,-4.1109,-4.1109,-4.1109,-4.109,-4.0503,-4.0198,-4.0081,-3.9299,-3.8714,-3.8557,-3.7821,-3.7573,-3.8727,-3.862,-3.8978,-4.0289,-4.0654,-4.0678,-4.0636,-4.0593,-4.0523,-4.0559,-4.0582,-4.0596,-4.0603,-4.0604,-4.0636,-4.0636,-4.0649,-4.0642,-4.0623,-4.0616,-4.0615,-4.0549,-4.0534,-4.0512,-4.0512,-4.0496,-4.0496,-4.0496,-4.0496,-4.0496,-4.0489,-4.0492,-4.0492,-4.0508,-4.0508,-4.0503,-4.0503,-4.0476,-4.0484,-4.0484,-4.0468,-4.046,-4.0468,-4.0372,-4.015,-3.9941,-3.9821,-3.9635,-3.9418,-3.9412,-3.9376,-3.8748,-3.8435,-3.9192,-3.9785,-3.9823,-4.0034,-4.9469,-4.8743,-4.7905,-4.7066,-4.6344,-4.6289,-4.6289,-4.6289,-4.6289,-4.6289,-4.6269,-4.5918,-4.5488,-4.5117,-4.5019,-4.4609,-4.3887,-4.4609,-4.5,-4.4726,-4.3867,-4.3613,-4.3223,-4.2656,-4.1992,-4.209,-4.2402,-4.25,-4.1797,-4.1406,-4.1367,-4.2266,-4.1738,-4.125,-4.1191,-4.1152,-4.1132,-4.113,-4.1126,-4.1123,-4.11,-4.1116,-4.1114,-4.1112,-4.1112,-4.1109,-4.1109,-4.1109,-4.1109,-4.0992,-4.0268,-3.9819,-3.9564,-3.8718,-3.7666,-3.743,-3.6979,-3.7218,-3.8062,-3.8098,-3.8929,-3.987,-4.0412,-4.0546,-4.0699,-4.0746,-4.068,-4.0661,-4.0692,-4.074,-4.0726,-4.0713,-4.0718,-4.0738,-4.0745,-4.0771,-4.0745,-4.0738,-4.0681,-4.0609,-4.0579,-4.0557,-4.0534,-4.0512,-4.0496,-4.0496,-4.0496,-4.0496,-4.0496,-4.0489,-4.05,-4.0489,-4.0496,-4.0508,-4.0439,-4.0323,-4.0392,-4.0412,-4.05,-4.0481,-4.0496,-4.0431,-4.0269,-3.9762,-3.9215,-3.9127,-3.9161,-3.8725,-3.849,-3.7978,-3.7753,-3.8293,-3.8772,-3.8801,-3.9107,-4.9306,-4.8498,-4.774,-4.6885,-4.6266,-4.6265,-4.6289,-4.6289,-4.6289,-4.623,-4.6016,-4.5371,-4.4922,-4.4531,-4.457,-4.4219,-4.3965,-4.4433,-4.5,-4.4961,-4.3906,-4.3535,-4.3398,-4.2363,-4.2363,-4.2461,-4.2754,-4.3223,-4.2578,-4.207,-4.2148,-4.3457,-4.1973,-4.1211,-4.1191,-4.1191,-4.1172,-4.1171,-4.115,-4.1128,-4.1107,-4.1103,-4.1099,-4.1099,-4.1115,-4.1111,-4.1109,-4.1109,-4.1109,-4.0815,-4.0366,-3.9839,-3.892,-3.804,-3.6942,-3.6492,-3.6247,-3.6754,-3.7359,-3.7535,-3.8303,-3.9134,-3.9726,-4.0126,-4.0415,-4.0733,-4.0731,-4.0751,-4.0776,-4.0796,-4.0781,-4.0822,-4.0867,-4.0859,-4.0882,-4.0863,-4.0837,-4.082,-4.0754,-4.0686,-4.0687,-4.0662,-4.0616,-4.061,-4.0574,-4.0549,-4.0496,-4.0496,-4.0504,-4.0504,-4.0369,-4.035,-4.0208,-4.0073,-3.9842,-3.9823,-4.0169,-4.0285,-4.04,-4.0496,-4.0496,-4.0458,-4.0419,-3.9931,-3.9442,-3.9142,-3.8985,-3.8543,-3.8177,-3.7923,-3.7737,-3.7677,-3.7823,-3.8054,-3.8495,-4.844,-4.7629,-4.6791,-4.6326,-4.6202,-4.6212,-4.6245,-4.6289,-4.6289,-4.5898,-4.5351,-4.5,-4.4277,-4.3476,-4.3945,-4.3711,-4.3437,-4.4531,-4.4922,-4.5039,-4.4355,-4.4121,-4.4394,-4.3398,-4.3203,-4.3535,-4.3906,-4.416,-4.3926,-4.3086,-4.2187,-4.2598,-4.1699,-4.1328,-4.1211,-4.123,-4.1308,-4.123,-4.1308,-4.1211,-4.111,-4.1108,-4.1105,-4.1103,-4.11,-4.1116,-4.1114,-4.1111,-4.1109,-4.0953,-4.0229,-3.9234,-3.7926,-3.691,-3.6305,-3.6031,-3.6031,-3.65,-3.7009,-3.736,-3.7985,-3.8765,-3.9419,-3.9769,-4.0131,-4.0552,-4.079,-4.0827,-4.085,-4.085,-4.0871,-4.0948,-4.1061,-4.1053,-4.1084,-4.1046,-4.1029,-4.0988,-4.0912,-4.0869,-4.0854,-4.0745,-4.0707,-4.068,-4.0649,-4.0602,-4.0534,-4.0504,-4.0508,-4.0477,-4.0053,-3.9957,-3.9696,-3.9515,-3.9381,-3.9554,-4.0015,-4.0189,-4.0265,-4.0381,-4.0496,-4.0169,-3.9938,-4.0073,-3.9861,-3.9342,-3.8808,-3.842,-3.8074,-3.7878,-3.7666,-3.7559,-3.7736,-3.7968,-3.8371,-4.7713,-4.7239,-4.6458,-4.6122,-4.6155,-4.6195,-4.6239,-4.623,-4.5898,-4.5234,-4.4512,-4.4355,-4.3848,-4.2988,-4.3516,-4.3867,-4.3672,-4.4961,-4.5527,-4.5586,-4.5195,-4.4941,-4.4648,-4.4258,-4.4141,-4.4316,-4.4687,-4.4922,-4.5137,-4.3984,-4.2969,-4.2832,-4.2187,-4.1582,-4.1406,-4.1465,-4.1504,-4.123,-4.1465,-4.1465,-4.123,-4.115,-4.111,-4.1108,-4.1104,-4.11,-4.1116,-4.1112,-4.1109,-4.0699,-3.9918,-3.8375,-3.7184,-3.6363,-3.609,-3.6012,-3.6109,-3.6383,-3.7028,-3.7477,-3.7887,-3.8785,-3.939,-3.9854,-4.0537,-4.0933,-4.095,-4.0978,-4.0998,-4.0998,-4.0978,-4.1027,-4.1441,-4.1612,-4.1807,-4.1917,-4.1991,-4.2034,-4.1857,-4.1642,-4.1369,-4.0833,-4.0801,-4.0756,-4.0738,-4.0738,-4.0649,-4.0617,-4.061,-4.0556,-4.0099,-3.9807,-3.9697,-3.9723,-3.99,-3.9958,-4.0092,-4.0169,-4.015,-4.0342,-4.0419,-3.9804,-3.9438,-3.9861,-3.9842,-3.9123,-3.8654,-3.8466,-3.8136,-3.7901,-3.7651,-3.7403,-3.7704,-3.8174,-3.8633,-4.7162,-4.6959,-4.6331,-4.6076,-4.6075,-4.6145,-4.611,-4.5957,-4.5312,-4.4433,-4.3652,-4.3691,-4.3672,-4.3555,-4.373,-4.4336,-4.4961,-4.5625,-4.6094,-4.6035,-4.5547,-4.5469,-4.5117,-4.4629,-4.4824,-4.5019,-4.5293,-4.5703,-4.6055,-4.4707,-4.3808,-4.3672,-4.3008,-4.2187,-4.1816,-4.1836,-4.2012,-4.1543,-4.1523,-4.1758,-4.1523,-4.1191,-4.1151,-4.113,-4.1106,-4.1101,-4.1099,-4.1115,-4.1111,-4.0504,-3.9647,-3.8297,-3.7243,-3.6617,-3.6617,-3.6597,-3.6753,-3.7087,-3.7419,-3.7653,-3.8394,-3.9156,-3.9585,-4.0112,-4.0756,-4.1028,-4.1046,-4.1085,-4.1106,-4.1126,-4.1106,-4.1202,-4.1651,-4.2256,-4.2492,-4.2765,-4.2881,-4.2879,-4.2561,-4.2272,-4.1692,-4.1068,-4.0906,-4.085,-4.0829,-4.0829,-4.0815,-4.081,-4.0767,-4.0674,-4.0415,-4.0249,-4.0165,-4.0253,-4.0038,-4.0112,-4.0015,-4.0073,-4.0073,-4.0323,-4.04,-4.0035,-3.9861,-4.0054,-3.9842,-3.9411,-3.9065,-3.8904,-3.8504,-3.8297,-3.8154,-3.818,-3.866,-3.9054,-3.9207,-4.6812,-4.621,-4.5943,-4.5908,-4.6013,-4.6036,-4.5683,-4.5131,-4.4974,-4.4064,-4.3096,-4.334,-4.3379,-4.2734,-4.3437,-4.4238,-4.5234,-4.5976,-4.6211,-4.6172,-4.5976,-4.5996,-4.5879,-4.5488,-4.584,-4.5918,-4.5918,-4.6133,-4.625,-4.5312,-4.4707,-4.4609,-4.3867,-4.3066,-4.2324,-4.2363,-4.2305,-4.1836,-4.1758,-4.1992,-4.207,-4.1719,-4.125,-4.1171,-4.1131,-4.111,-4.1108,-4.1102,-4.1098,-4.0607,-3.9648,-3.8611,-3.7906,-3.7379,-3.7379,-3.7555,-3.7711,-3.7965,-3.822,-3.8316,-3.9039,-3.9235,-3.9644,-4.0015,-4.0542,-4.0912,-4.0971,-4.1088,-4.1127,-4.1186,-4.1186,-4.1244,-4.1596,-4.257,-4.3118,-4.3391,-4.3604,-4.3156,-4.2698,-4.226,-4.1751,-4.1315,-4.104,-4.0992,-4.0954,-4.0921,-4.0867,-4.0863,-4.0859,-4.0781,-4.0704,-4.0638,-4.0562,-3.9508,-3.8813,-3.9631,-3.9765,-3.9861,-4.0035,-4.0323,-4.0496,-4.0477,-4.0419,-4.0362,-4.0381,-4.0169,-3.9842,-3.9438,-3.9549,-3.9407,-3.9115,-3.9122,-3.9588,-3.9846,-3.9903]},{"header":{"parameterUnit":"m.s-1","parameterCategory":1,"la1":31.0,"la2":29.5877,"lo1":-88.7671,"lo2":-86.6584,"dy":0.0162,"dx":0.0185,"nx":115,"ny":88,"refTime":"2024-05-20T18:00:00:Z","depth":0,"parameterNumber":3,"parameterNumberName":"V-component_of_WINDS"},"data":[0.0,0.0,0.0,0.0,0.0,0.0,0.0,0.0,0.0,0.0,0.0,0.0,0.0,0.0,0.0,0.0,0.0,0.0,0.0,0.0,0.0,0.0,0.0,0.0,0.0,0.0,0.0,0.0,0.0,0.0,0.0,0.0,0.0,0.0,0.0,0.0,0.0,0.0,0.0,0.0,0.0,0.0,0.0,0.0,0.0,0.0,0.0,0.0,0.0,0.0,0.0,0.0,0.0,0.0,0.0,0.0,0.0,0.0,0.0,0.0,0.0,0.0,0.0,0.0,0.0,0.0,0.0,0.0,0.0,0.0,0.0,0.0,0.0,0.0,0.0,0.0,0.0,0.0,0.0,0.0,0.0,0.0,0.0,0.0,0.0,0.0,0.0,0.0,0.0,0.0,0.0,0.0,0.0,0.0,0.0,0.0,0.0,0.0,0.0,0.0,0.0,0.0,0.0,0.0,0.0,0.0,0.0,0.0,0.0,0.0,0.0,0.0,0.0,0.0,0.0,0.0,0.0,0.0,0.0,0.0,0.0,0.0,0.0,0.0,0.0,0.0,0.0,0.0,0.0,0.0,0.0,0.0,0.0,0.0,0.0,0.0,0.0,0.0,0.0,0.0,0.0,0.0,0.0,0.0,0.0,0.0,0.0,0.0,0.0,0.0,0.0,0.0,0.0,0.0,0.0,0.0,0.0,0.0,0.0,0.0,0.0,0.0,0.0,0.0,0.0,0.0,0.0,0.0,0.0,0.0,0.0,0.0,0.0,0.0,0.0,0.0,0.0,0.0,0.0,0.0,0.0,0.0,0.0,0.0,0.0,0.0,0.0,0.0,0.0,0.0,0.0,0.0,0.0,0.0,0.0,0.0,0.0,0.0,0.0,0.0,0.0,0.0,0.0,0.0,0.0,0.0,0.0,0.0,0.0,0.0,0.0,0.0,0.0,0.0,0.0,0.0,0.0,0.0,0.0,0.0,0.0,0.0,0.0,0.0,0.0,0.0,0.0,0.0,0.0,0.0,0.0,0.0,0.0,0.0,0.0,0.0,0.0,0.0,0.0,0.0,0.0,0.0,0.0,0.0,0.0,0.0,0.0,0.0,0.0,0.0,0.0,0.0,0.0,0.0,0.0,0.0,0.0,0.0,0.0,0.0,0.0,0.0,0.0,0.0,0.0,0.0,0.0,0.0,0.0,0.0,0.0,0.0,0.0,0.0,0.0,0.0,0.0,0.0,0.0,0.0,0.0,0.0,0.0,0.0,0.0,0.0,0.0,0.0,0.0,0.0,0.0,0.0,0.0,0.0,0.0,0.0,0.0,0.0,0.0,0.0,0.0,0.0,0.0,0.0,0.0,0.0,0.0,0.0,0.0,0.0,0.0,0.0,0.0,0.0,0.0,0.0,0.0,0.0,0.0,0.0,0.0,0.0,0.0,0.0,0.0,0.0,0.0,0.0,0.0,0.0,0.0,0.0,0.0,0.0,0.0,0.0,0.0,0.0,0.0,0.0,0.0,0.0,0.0,0.0,0.0,0.0,0.0,0.0,0.0,0.0,0.0,0.0,0.0,0.0,0.0,0.0,0.0,0.0,0.0,0.0,0.0,0.0,0.0,0.0,0.0,0.0,0.0,0.0,0.0,0.0,0.0,0.0,0.0,0.0,0.0,0.0,0.0,0.0,0.0,0.0,0.0,0.0,0.0,0.0,0.0,0.0,0.0,0.0,0.0,0.0,0.0,0.0,0.0,0.0,0.0,0.0,0.0,0.0,0.0,0.0,0.0,0.0,0.0,0.0,0.0,0.0,0.0,0.0,0.0,0.0,0.0,0.0,0.0,0.0,0.0,0.0,0.0,0.0,0.0,0.0,0.0,0.0,0.0,0.0,0.0,0.0,0.0,0.0,0.0,0.0,0.0,0.0,0.0,0.0,0.0,0.0,0.0,0.0,0.0,0.0,0.0,0.0,0.0,0.0,0.0,0.0,0.0,0.0,0.0,0.0,0.0,0.0,0.0,0.0,0.0,0.0,0.0,0.0,0.0,0.0,0.0,0.0,0.0,0.0,0.0,0.0,0.0,0.0,0.0,0.0,0.0,0.0,0.0,0.0,0.0,0.0,0.0,0.0,0.0,0.0,0.0,0.0,0.0,0.0,0.0,0.0,0.0,0.0,0.0,0.0,0.0,0.0,0.0,0.0,0.0,0.0,0.0,0.0,0.0,0.0,0.0,0.0,0.0,0.0,0.0,0.0,0.0,0.0,0.0,0.0,0.0,0.0,0.0,0.0,0.0,0.0,0.0,0.0,0.0,0.0,0.0,0.0,0.0,0.0,0.0,0.0,0.0,0.0,0.0,0.0,0.0,0.0,0.0,0.0,0.0,0.0,0.0,0.0,0.0,0.0,0.0,0.0,0.0,0.0,0.0,0.0,0.0,0.0,0.0,0.0,0.0,0.0,0.0,0.0,0.0,0.0,0.0,0.0,0.0,0.0,0.0,0.0,0.0,0.0,0.0,0.0,0.0,0.0,0.0,0.0,0.0,0.0,0.0,0.0,0.0,0.0,0.0,0.0,0.0,0.0,0.0,0.0,0.0,0.0,0.0,0.0,0.0,0.0,0.0,0.0,0.0,0.0,0.0,0.0,0.0,0.0,0.0,0.0,0.0,0.0,0.0,0.0,0.0,0.0,0.0,0.0,0.0,0.0,0.0,0.0,0.0,0.0,0.0,0.0,0.0,0.0,0.0,0.0,0.0,0.0,0.0,0.0,0.0,0.0,0.0,0.0,0.0,0.0,0.0,0.0,0.0,0.0,0.0,0.0,0.0,0.0,0.0,0.0,0.0,0.0,0.0,0.0,0.0,0.0,0.0,0.0,0.0,0.0,0.0,0.0,0.0,0.0,0.0,0.0,0.0,0.0,0.0,0.0,0.0,0.0,0.0,0.0,0.0,0.0,0.0,0.0,0.0,0.0,0.0,0.0,0.0,0.0,0.0,0.0,0.0,0.0,0.0,0.0,0.0,0.0,0.0,0.0,0.0,0.0,0.0,0.0,0.0,0.0,0.0,0.0,0.0,0.0,0.0,0.0,0.0,0.0,0.0,0.0,0.0,0.0,0.0,0.0,0.0,0.0,0.0,0.0,0.0,0.0,0.0,0.0,0.0,0.0,0.0,0.0,0.0,0.0,0.0,0.0,0.0,0.0,0.0,0.0,0.0,0.0,0.0,0.0,0.0,0.0,0.0,0.0,0.0,0.0,0.0,0.0,0.0,0.0,0.0,0.0,0.0,0.0,0.0,0.0,0.0,0.0,0.0,0.0,0.0,0.0,0.0,0.0,0.0,0.0,0.0,0.0,0.0,0.0,0.0,0.0,0.0,0.0,0.0,0.0,0.0,0.0,0.0,0.0,0.0,0.0,0.0,0.0,0.0,0.0,0.0,0.0,0.0,0.0,0.0,0.0,0.0,0.0,0.0,0.0,0.0,0.0,0.0,0.0,0.0,0.0,0.0,0.0,0.0,0.0,0.0,0.0,0.0,0.0,0.0,0.0,0.0,0.0,0.0,0.0,0.0,0.0,0.0,0.0,0.0,0.0,0.0,0.0,0.0,0.0,0.0,0.0,0.0,0.0,0.0,0.0,0.0,0.0,0.0,0.0,0.0,0.0,0.0,0.0,0.0,0.0,0.0,0.0,0.0,0.0,0.0,0.0,0.0,0.0,0.0,0.0,0.0,0.0,0.0,0.0,0.0,0.0,0.0,0.0,0.0,0.0,0.0,0.0,0.0,0.0,0.0,0.0,0.0,0.0,0.0,0.0,0.0,0.0,0.0,0.0,0.0,0.0,0.0,0.0,0.0,0.0,0.0,0.0,0.0,0.0,0.0,0.0,0.0,0.0,0.0,0.0,0.0,0.0,0.0,0.0,0.0,0.0,0.0,0.0,0.0,0.0,0.0,0.0,0.0,0.0,0.0,0.0,0.0,0.0,0.0,0.0,0.0,0.0,0.0,0.0,0.0,0.0,0.0,0.0,0.0,0.0,0.0,0.0,0.0,0.0,0.0,0.0,0.0,0.0,0.0,0.0,0.0,0.0,0.0,0.0,0.0,0.0,0.0,0.0,0.0,0.0,0.0,0.0,0.0,0.0,0.0,0.0,0.0,0.0,0.0,0.0,0.0,0.0,0.0,0.0,0.0,0.0,0.0,0.0,0.0,0.0,0.0,0.0,0.0,0.0,0.0,0.0,0.0,0.0,0.0,0.0,0.0,0.0,0.0,0.0,0.0,0.0,0.0,0.0,-1.0303,0.0,0.0,0.0,0.0,0.0,0.0,0.0,0.0,0.0,0.0,0.0,0.0,0.0,0.0,0.0,0.0,0.0,0.0,0.0,0.0,0.0,0.0,0.0,0.0,0.0,0.0,0.0,0.0,0.0,0.0,0.0,0.0,0.0,0.0,0.0,0.0,0.0,0.0,0.0,0.0,0.0,0.0,0.0,0.0,0.0,0.0,0.0,0.0,0.0,0.0,0.0,0.0,0.0,0.0,0.0,0.0,0.0,0.0,0.0,0.0,0.0,0.0,0.0,0.0,0.0,0.0,0.0,0.0,0.0,0.0,0.0,0.0,0.0,0.0,0.0,0.0,0.0,0.0,0.0,0.0,0.0,0.0,0.0,0.0,0.0,0.0,0.0,0.0,0.0,0.0,0.0,0.0,0.0,0.0,0.0,0.0,0.0,0.0,0.0,0.0,0.0,0.0,0.0,0.0,0.0,0.0,0.0,0.0,0.0,0.0,-0.8702,-0.8702,-0.9305,-0.9897,-1.0398,0.0,0.0,0.0,0.0,0.0,0.0,0.0,0.0,0.0,0.0,0.0,0.0,0.0,0.0,0.0,0.0,0.0,0.0,0.0,0.0,0.0,0.0,0.0,0.0,0.0,0.0,0.0,0.0,0.0,0.0,0.0,0.0,0.0,0.0,0.0,0.0,0.0,0.0,0.0,0.0,0.0,0.0,0.0,0.0,0.0,0.0,0.0,0.0,0.0,0.0,0.0,0.0,0.0,0.0,0.0,0.0,0.0,0.0,0.0,0.0,0.0,0.0,0.0,0.0,0.0,0.0,0.0,0.0,0.0,0.0,0.0,0.0,0.0,0.0,0.0,0.0,0.0,0.0,0.0,0.0,0.0,0.0,0.0,0.0,0.0,0.0,0.0,0.0,0.0,0.0,0.0,0.0,0.0,0.0,0.0,0.0,0.0,0.0,0.0,0.0,0.0,0.0,0.0,0.0,0.0,0.0,0.0,0.0,0.0,0.0,0.0,0.0,-0.9344,-0.99,-1.0493,0.0,0.0,0.0,0.0,0.0,0.0,0.0,0.0,0.0,0.0,0.0,0.0,0.0,0.0,0.0,0.0,0.0,0.0,0.0,0.0,0.0,0.0,0.0,0.0,0.0,0.0,0.0,0.0,0.0,0.0,0.0,0.0,0.0,0.0,0.0,0.0,0.0,0.0,0.0,0.0,0.0,0.0,0.0,0.0,0.0,0.0,0.0,0.0,0.0,0.0,0.0,0.0,0.0,0.0,0.0,0.0,0.0,0.0,0.0,0.0,0.0,0.0,0.0,0.0,0.0,0.0,0.0,0.0,0.0,0.0,0.0,0.0,0.0,0.0,0.0,0.0,0.0,0.0,0.0,0.0,0.0,0.0,0.0,0.0,0.0,0.0,0.0,0.0,0.0,0.0,0.0,0.0,0.0,0.0,0.0,0.0,0.0,0.0,0.0,0.0,0.0,0.0,0.0,0.0,0.0,0.0,0.0,0.0,0.0,0.0,-0.8775,-0.8775,-0.9054,0.0,-1.0679,0.0,0.0,0.0,0.0,0.0,0.0,0.0,0.0,0.0,0.0,0.0,0.0,0.0,0.0,0.0,0.0,0.0,0.0,0.0,0.0,0.0,0.0,0.0,0.0,0.0,0.0,0.0,0.0,0.0,0.0,0.0,0.0,0.0,0.0,0.0,0.0,0.0,0.0,0.0,0.0,0.0,0.0,0.0,0.0,0.0,0.0,0.0,0.0,0.0,0.0,0.0,0.0,0.0,0.0,0.0,0.0,0.0,0.0,0.0,0.0,0.0,0.0,0.0,0.0,0.0,0.0,0.0,0.0,0.0,0.0,0.0,0.0,0.0,0.0,0.0,0.0,0.0,0.0,0.0,0.0,0.0,0.0,0.0,0.0,0.0,0.0,0.0,0.0,0.0,0.0,0.0,0.0,0.0,0.0,0.0,0.0,0.0,0.0,0.0,0.0,0.0,0.0,0.0,0.0,0.0,0.0,0.0,0.0,0.0,0.0,-0.8982,-0.8982,-0.9674,-1.0235,0.0,0.0,0.0,0.0,0.0,0.0,0.0,0.0,0.0,0.0,0.0,0.0,0.0,0.0,0.0,0.0,0.0,0.0,0.0,0.0,0.0,0.0,0.0,0.0,0.0,0.0,0.0,0.0,0.0,0.0,0.0,0.0,0.0,0.0,0.0,0.0,0.0,0.0,0.0,0.0,0.0,0.0,0.0,0.0,0.0,0.0,0.0,0.0,0.0,0.0,0.0,0.0,0.0,0.0,0.0,0.0,0.0,0.0,0.0,0.0,0.0,0.0,0.0,0.0,0.0,0.0,0.0,0.0,0.0,0.0,0.0,0.0,0.0,0.0,0.0,0.0,0.0,0.0,0.0,0.0,0.0,0.0,0.0,0.0,0.0,0.0,0.0,0.0,0.0,0.0,0.0,0.0,0.0,0.0,0.0,0.0,0.0,0.0,0.0,0.0,0.0,0.0,0.0,0.0,0.0,0.0,0.0,0.0,0.0,0.0,-0.9031,-0.9116,-0.9239,-1.0416,-1.099,-1.0716,0.0,0.0,0.0,0.0,0.0,0.0,0.0,0.0,0.0,0.0,0.0,0.0,0.0,0.0,0.0,0.0,0.0,0.0,0.0,0.0,0.0,0.0,0.0,0.0,0.0,0.0,0.0,0.0,0.0,0.0,0.0,0.0,0.0,0.0,0.0,0.0,0.0,0.0,0.0,0.0,0.0,0.0,0.0,0.0,0.0,0.0,0.0,0.0,0.0,0.0,0.0,0.0,0.0,0.0,0.0,0.0,0.0,0.0,0.0,0.0,0.0,0.0,0.0,0.0,0.0,0.0,0.0,0.0,0.0,0.0,0.0,0.0,0.0,0.0,0.0,0.0,0.0,0.0,0.0,0.0,0.0,0.0,0.0,0.0,0.0,0.0,0.0,0.0,0.0,0.0,0.0,0.0,0.0,0.0,0.0,0.0,0.0,0.0,0.0,0.0,0.0,0.0,0.0,0.0,0.0,0.0,0.0,0.0,-0.9064,-0.9092,-0.9177,-0.9431,-1.1194,-1.1705,0.0,0.0,0.0,0.0,0.0,0.0,0.0,0.0,0.0,0.0,0.0,0.0,0.0,0.0,0.0,0.0,0.0,0.0,0.0,0.0,0.0,0.0,0.0,0.0,0.0,0.0,0.0,0.0,0.0,0.0,0.0,0.0,0.0,0.0,0.0,0.0,0.0,0.0,0.0,0.0,0.0,0.0,0.0,0.0,0.0,0.0,0.0,0.0,0.0,0.0,0.0,0.0,0.0,0.0,0.0,0.0,0.0,0.0,0.0,0.0,0.0,0.0,0.0,0.0,0.0,0.0,0.0,0.0,0.0,0.0,0.0,0.0,0.0,0.0,0.0,0.0,0.0,0.0,0.0,0.0,0.0,0.0,0.0,0.0,0.0,0.0,0.0,0.0,0.0,0.0,0.0,0.0,0.0,0.0,0.0,0.0,0.0,0.0,0.0,0.0,0.0,0.0,0.0,0.0,0.0,0.0,0.0,0.0,0.0,-0.8759,-0.8978,-0.9238,-0.9547,-1.076,-1.1238,0.0,0.0,0.0,0.0,0.0,0.0,0.0,0.0,0.0,0.0,0.0,0.0,0.0,0.0,0.0,0.0,0.0,0.0,0.0,0.0,0.0,0.0,0.0,0.0,0.0,0.0,0.0,0.0,0.0,0.0,0.0,0.0,0.0,0.0,0.0,0.0,0.0,0.0,0.0,0.0,0.0,0.0,0.0,0.0,0.0,0.0,0.0,0.0,0.0,0.0,0.0,0.0,0.0,0.0,0.0,0.0,0.0,0.0,0.0,0.0,0.0,0.0,0.0,0.0,0.0,0.0,0.0,0.0,0.0,0.0,0.0,0.0,0.0,0.0,0.0,0.0,0.0,0.0,0.0,0.0,0.0,0.0,0.0,0.0,0.0,0.0,0.0,0.0,0.0,0.0,0.0,0.0,0.0,0.0,0.0,0.0,0.0,0.0,0.0,0.0,0.0,0.0,0.0,0.0,0.0,0.0,0.0,0.0,0.0,-0.8649,0.0,-0.9223,-0.9324,-1.0615,-1.1191,0.0,0.0,0.0,0.0,0.0,0.0,0.0,0.0,0.0,0.0,0.0,0.0,0.0,0.0,0.0,0.0,0.0,0.0,0.0,0.0,0.0,0.0,0.0,0.0,0.0,0.0,0.0,0.0,0.0,0.0,0.0,0.0,0.0,0.0,0.0,0.0,0.0,0.0,0.0,0.0,0.0,0.0,0.0,0.0,0.0,0.0,0.0,0.0,0.0,0.0,0.0,0.0,0.0,0.0,0.0,0.0,0.0,0.0,0.0,0.0,0.0,0.0,0.0,0.0,0.0,0.0,0.0,0.0,0.0,0.0,0.0,0.0,0.0,0.0,0.0,0.0,0.0,0.0,0.0,0.0,0.0,0.0,0.0,0.0,0.0,0.0,0.0,0.0,0.0,0.0,0.0,0.0,0.0,0.0,0.0,0.0,0.0,0.0,0.0,0.0,0.0,0.0,0.0,0.0,0.0,0.0,0.0,0.0,-0.8657,-0.8699,-0.9159,-0.9132,-0.8773,-1.0813,-1.1476,0.0,0.0,0.0,0.0,0.0,0.0,0.0,0.0,0.0,0.0,0.0,0.0,0.0,0.0,0.0,0.0,0.0,0.0,0.0,0.0,0.0,0.0,0.0,0.0,0.0,0.0,0.0,0.0,0.0,0.0,0.0,0.0,0.0,0.0,0.0,0.0,0.0,0.0,0.0,0.0,0.0,0.0,0.0,0.0,0.0,0.0,0.0,0.0,0.0,0.0,0.0,0.0,0.0,0.0,0.0,0.0,0.0,0.0,0.0,0.0,0.0,0.0,0.0,0.0,0.0,0.0,0.0,0.0,0.0,0.0,0.0,0.0,0.0,0.0,0.0,0.0,0.0,0.0,0.0,0.0,0.0,0.0,0.0,0.0,0.0,0.0,0.0,0.0,0.0,0.0,0.0,0.0,0.0,0.0,0.0,0.0,0.0,0.0,0.0,0.0,0.0,0.0,0.0,0.0,0.0,0.0,0.0,0.0,0.0,-0.8937,-0.8852,-0.881,-0.8851,-1.0412,-1.1141,0.0,0.0,0.0,0.0,0.0,0.0,0.0,0.0,0.0,0.0,0.0,0.0,0.0,0.0,0.0,0.0,0.0,0.0,0.0,0.0,0.0,0.0,0.0,0.0,0.0,0.0,0.0,0.0,0.0,0.0,0.0,0.0,0.0,0.0,0.0,0.0,0.0,0.0,0.0,0.0,0.0,0.0,0.0,0.0,0.0,0.0,0.0,0.0,0.0,0.0,0.0,0.0,0.0,0.0,0.0,0.0,0.0,0.0,0.0,0.0,0.0,0.0,0.0,0.0,0.0,0.0,0.0,0.0,0.0,0.0,0.0,0.0,0.0,0.0,0.0,0.0,0.0,0.0,0.0,0.0,0.0,0.0,0.0,0.0,0.0,0.0,0.0,0.0,0.0,0.0,0.0,0.0,0.0,0.0,0.0,0.0,0.0,0.0,0.0,0.0,0.0,0.0,0.0,0.0,0.0,0.0,0.0,0.0,0.0,-0.8962,-0.8916,-0.8835,-0.8868,-1.0566,-1.1329,-1.1048,0.0,0.0,0.0,0.0,0.0,0.0,0.0,0.0,0.0,0.0,0.0,0.0,0.0,0.0,0.0,0.0,0.0,0.0,0.0,0.0,0.0,0.0,0.0,0.0,0.0,0.0,0.0,0.0,0.0,0.0,0.0,0.0,0.0,0.0,0.0,0.0,0.0,0.0,0.0,0.0,0.0,0.0,0.0,0.0,0.0,0.0,0.0,0.0,0.0,0.0,0.0,0.0,0.0,0.0,0.0,0.0,0.0,0.0,0.0,0.0,0.0,0.0,0.0,0.0,0.0,0.0,0.0,0.0,0.0,0.0,0.0,0.0,0.0,0.0,0.0,0.0,0.0,0.0,0.0,0.0,0.0,0.0,0.0,0.0,0.0,0.0,0.0,0.0,0.0,0.0,0.0,0.0,0.0,0.0,0.0,0.0,0.0,0.0,0.0,0.0,0.0,0.0,0.0,0.0,0.0,0.0,0.0,0.0,-0.8937,-0.9166,-0.9246,-0.9076,-1.1139,-1.1917,0.0,0.0,0.0,0.0,0.0,0.0,0.0,0.0,0.0,0.0,0.0,0.0,0.0,0.0,0.0,0.0,0.0,0.0,0.0,0.0,0.0,0.0,0.0,0.0,0.0,0.0,0.0,0.0,0.0,0.0,0.0,0.0,0.0,0.0,0.0,0.0,0.0,0.0,0.0,0.0,0.0,0.0,0.0,0.0,0.0,0.0,0.0,0.0,0.0,0.0,0.0,0.0,0.0,0.0,0.0,0.0,0.0,0.0,0.0,0.0,0.0,0.0,0.0,0.0,0.0,0.0,0.0,0.0,0.0,0.0,0.0,0.0,0.0,0.0,0.0,0.0,0.0,0.0,0.0,0.0,0.0,0.0,0.0,0.0,0.0,0.0,0.0,0.0,0.0,0.0,0.0,0.0,0.0,0.0,0.0,0.0,0.0,0.0,0.0,0.0,0.0,0.0,0.0,0.0,0.0,0.0,0.0,0.0,0.0,-0.8927,-0.9426,-0.9579,-0.936,-1.105,-1.1914,0.0,0.0,0.0,0.0,0.0,0.0,0.0,0.0,0.0,0.0,0.0,0.0,0.0,0.0,0.0,0.0,0.0,0.0,0.0,0.0,0.0,0.0,0.0,0.0,0.0,0.0,0.0,0.0,0.0,0.0,0.0,0.0,0.0,0.0,0.0,0.0,0.0,0.0,0.0,0.0,0.0,0.0,0.0,0.0,0.0,0.0,0.0,0.0,0.0,0.0,0.0,0.0,0.0,0.0,0.0,0.0,0.0,0.0,0.0,0.0,0.0,0.0,0.0,0.0,0.0,0.0,0.0,0.0,0.0,0.0,0.0,0.0,0.0,0.0,0.0,0.0,0.0,0.0,0.0,0.0,0.0,0.0,0.0,0.0,0.0,0.0,0.0,0.0,0.0,0.0,0.0,0.0,0.0,0.0,0.0,0.0,0.0,0.0,0.0,0.0,0.0,0.0,0.0,0.0,0.0,0.0,0.0,0.0,-0.9356,-0.9103,-0.9867,-1.0471,-1.0967,-1.1975,-1.245,0.0,0.0,0.0,0.0,0.0,0.0,0.0,0.0,0.0,0.0,0.0,0.0,0.0,0.0,0.0,0.0,0.0,0.0,0.0,0.0,0.0,0.0,0.0,0.0,0.0,0.0,0.0,0.0,0.0,0.0,0.0,0.0,0.0,0.0,0.0,0.0,0.0,0.0,0.0,0.0,0.0,0.0,0.0,0.0,0.0,0.0,0.0,0.0,0.0,0.0,0.0,0.0,0.0,0.0,0.0,0.0,0.0,0.0,0.0,0.0,0.0,0.0,0.0,0.0,0.0,0.0,0.0,0.0,0.0,0.0,0.0,0.0,0.0,0.0,0.0,0.0,0.0,0.0,0.0,0.0,0.0,0.0,0.0,0.0,0.0,0.0,0.0,0.0,0.0,0.0,0.0,0.0,0.0,0.0,0.0,0.0,0.0,0.0,0.0,0.0,0.0,0.0,0.0,0.0,0.0,0.0,0.0,0.0,-0.9883,-0.9491,-1.0355,-1.1567,-1.3099,-1.3236,-1.3245,0.0,0.0,0.0,0.0,0.0,0.0,0.0,0.0,0.0,0.0,0.0,0.0,0.0,0.0,0.0,0.0,0.0,0.0,0.0,0.0,0.0,0.0,0.0,0.0,0.0,0.0,0.0,0.0,0.0,0.0,0.0,0.0,0.0,0.0,0.0,0.0,0.0,0.0,0.0,0.0,0.0,0.0,0.0,0.0,0.0,0.0,0.0,0.0,0.0,0.0,0.0,0.0,0.0,0.0,0.0,0.0,0.0,0.0,0.0,0.0,0.0,0.0,0.0,0.0,0.0,0.0,0.0,0.0,0.0,0.0,0.0,0.0,0.0,0.0,0.0,0.0,0.0,0.0,0.0,0.0,0.0,0.0,0.0,0.0,0.0,0.0,0.0,0.0,0.0,0.0,0.0,0.0,0.0,0.0,0.0,0.0,0.0,0.0,0.0,0.0,0.0,0.0,0.0,0.0,0.0,0.0,0.0,0.0,-0.9608,-0.9803,-1.0469,-1.1446,-1.2757,-1.3119,-1.3763,0.0,0.0,0.0,0.0,0.0,0.0,0.0,0.0,0.0,0.0,0.0,0.0,0.0,0.0,0.0,0.0,0.0,0.0,0.0,0.0,0.0,0.0,0.0,0.0,0.0,0.0,0.0,0.0,0.0,0.0,0.0,0.0,0.0,0.0,0.0,0.0,0.0,0.0,0.0,0.0,0.0,0.0,0.0,0.0,0.0,0.0,0.0,0.0,-1.7146,0.0,0.0,0.0,0.0,0.0,0.0,0.0,0.0,0.0,0.0,0.0,0.0,0.0,0.0,0.0,0.0,0.0,0.0,0.0,0.0,0.0,0.0,0.0,0.0,0.0,0.0,0.0,0.0,0.0,0.0,0.0,0.0,0.0,0.0,0.0,0.0,0.0,0.0,0.0,0.0,0.0,0.0,0.0,0.0,0.0,0.0,0.0,0.0,0.0,0.0,0.0,0.0,0.0,0.0,0.0,0.0,0.0,0.0,0.0,-0.9756,-1.0007,-1.0737,-1.2052,-1.3829,-1.3935,-1.4364,0.0,0.0,0.0,0.0,0.0,0.0,0.0,0.0,0.0,0.0,0.0,0.0,0.0,0.0,0.0,0.0,0.0,0.0,0.0,0.0,0.0,0.0,0.0,0.0,0.0,0.0,0.0,0.0,0.0,0.0,0.0,0.0,0.0,0.0,0.0,0.0,0.0,0.0,0.0,0.0,0.0,0.0,0.0,0.0,0.0,0.0,0.0,0.0,0.0,0.0,0.0,0.0,0.0,0.0,0.0,0.0,0.0,0.0,0.0,0.0,0.0,0.0,0.0,0.0,0.0,0.0,0.0,0.0,0.0,0.0,0.0,0.0,0.0,0.0,0.0,0.0,0.0,0.0,0.0,0.0,0.0,0.0,0.0,0.0,0.0,0.0,0.0,0.0,0.0,0.0,0.0,0.0,0.0,0.0,0.0,0.0,0.0,0.0,0.0,0.0,0.0,0.0,0.0,0.0,0.0,0.0,0.0,-0.9857,-1.0148,-1.0299,-1.1096,-1.2685,-1.5221,-1.4887,-1.4922,-1.5551,0.0,0.0,0.0,0.0,0.0,0.0,0.0,0.0,0.0,0.0,0.0,0.0,0.0,0.0,0.0,0.0,0.0,0.0,0.0,0.0,0.0,0.0,0.0,0.0,0.0,0.0,0.0,0.0,0.0,0.0,0.0,0.0,0.0,0.0,0.0,0.0,0.0,0.0,-0.919,-0.9986,0.0,0.0,0.0,0.0,0.0,0.0,0.0,0.0,-1.6448,0.0,0.0,0.0,0.0,0.0,0.0,0.0,0.0,0.0,0.0,0.0,0.0,0.0,0.0,0.0,0.0,0.0,0.0,0.0,0.0,0.0,0.0,0.0,0.0,0.0,0.0,0.0,0.0,0.0,0.0,0.0,0.0,0.0,0.0,0.0,0.0,0.0,0.0,0.0,0.0,0.0,0.0,0.0,0.0,0.0,0.0,0.0,0.0,0.0,0.0,0.0,0.0,0.0,0.0,0.0,0.0,-1.0206,-1.0362,-1.0658,-1.1088,-1.1332,-1.2685,-1.5145,-1.462,-1.507,-1.6736,0.0,0.0,0.0,0.0,0.0,0.0,0.0,0.0,0.0,0.0,0.0,0.0,0.0,0.0,0.0,0.0,0.0,0.0,0.0,0.0,0.0,0.0,0.0,0.0,0.0,0.0,0.0,0.0,0.0,0.0,0.0,0.0,0.0,0.0,0.0,0.0,0.0,0.0,0.0,-1.0511,-1.113,0.0,0.0,0.0,0.0,0.0,0.0,0.0,0.0,-1.656,0.0,0.0,0.0,0.0,0.0,0.0,0.0,0.0,0.0,0.0,0.0,0.0,0.0,0.0,0.0,0.0,0.0,0.0,0.0,0.0,0.0,0.0,0.0,0.0,0.0,0.0,0.0,0.0,0.0,0.0,0.0,0.0,0.0,0.0,0.0,0.0,0.0,0.0,0.0,0.0,0.0,0.0,0.0,0.0,0.0,0.0,0.0,0.0,0.0,0.0,0.0,0.0,0.0,0.0,0.0,-1.0422,-1.0428,-1.0718,-1.1266,-1.2207,-1.3455,-1.5211,-1.5216,-1.5725,0.0,0.0,0.0,0.0,0.0,0.0,0.0,0.0,0.0,0.0,0.0,0.0,0.0,0.0,0.0,0.0,0.0,0.0,0.0,0.0,0.0,0.0,0.0,0.0,0.0,0.0,0.0,0.0,0.0,0.0,0.0,0.0,0.0,0.0,0.0,0.0,0.0,0.0,0.0,0.0,-1.034,-1.0804,-1.1199,0.0,0.0,0.0,0.0,0.0,0.0,-1.664,-1.6649,0.0,0.0,0.0,0.0,0.0,0.0,0.0,0.0,0.0,0.0,0.0,0.0,0.0,0.0,0.0,0.0,0.0,0.0,0.0,0.0,0.0,0.0,0.0,0.0,0.0,0.0,0.0,0.0,0.0,0.0,0.0,0.0,0.0,0.0,0.0,0.0,0.0,0.0,0.0,0.0,0.0,0.0,0.0,0.0,0.0,0.0,0.0,0.0,0.0,0.0,0.0,0.0,0.0,0.0,0.0,-1.0446,-1.0572,-1.0862,-1.1459,-1.2933,-1.4256,-1.5342,-1.5795,-1.6287,0.0,0.0,0.0,0.0,0.0,0.0,0.0,0.0,0.0,0.0,0.0,0.0,0.0,0.0,0.0,0.0,0.0,0.0,0.0,0.0,0.0,0.0,0.0,0.0,0.0,0.0,0.0,0.0,0.0,0.0,0.0,0.0,0.0,0.0,0.0,0.0,0.0,0.0,0.0,0.0,0.0,-1.0429,-1.1189,-1.2196,0.0,0.0,0.0,0.0,-1.66,-1.6785,0.0,0.0,0.0,0.0,0.0,0.0,0.0,0.0,0.0,0.0,0.0,0.0,0.0,0.0,0.0,0.0,0.0,0.0,0.0,0.0,0.0,0.0,0.0,0.0,0.0,0.0,0.0,0.0,0.0,0.0,0.0,0.0,0.0,0.0,0.0,0.0,0.0,0.0,0.0,0.0,0.0,0.0,0.0,0.0,0.0,0.0,0.0,0.0,0.0,0.0,0.0,0.0,0.0,0.0,0.0,0.0,-1.0434,-1.1047,-1.1482,-1.1763,-1.3128,-1.4485,-1.5705,-1.5748,-1.6194,0.0,0.0,0.0,0.0,0.0,0.0,0.0,0.0,0.0,0.0,0.0,0.0,0.0,0.0,0.0,0.0,0.0,0.0,0.0,0.0,0.0,0.0,0.0,0.0,0.0,0.0,0.0,0.0,0.0,0.0,0.0,0.0,0.0,0.0,0.0,0.0,0.0,0.0,0.0,0.0,0.0,-1.0273,-1.0486,-1.1151,-1.21,0.0,0.0,-1.5947,-1.755,-1.7615,0.0,0.0,0.0,0.0,0.0,0.0,0.0,0.0,0.0,0.0,0.0,0.0,0.0,0.0,0.0,0.0,0.0,0.0,0.0,0.0,0.0,0.0,0.0,0.0,0.0,0.0,0.0,0.0,0.0,0.0,0.0,0.0,0.0,0.0,0.0,0.0,0.0,0.0,0.0,0.0,0.0,0.0,0.0,0.0,0.0,0.0,0.0,0.0,0.0,0.0,0.0,0.0,0.0,0.0,0.0,-1.0004,-1.0592,-1.1169,-1.1608,-1.1947,-1.3234,-1.4467,-1.5655,-1.5568,-1.5946,0.0,0.0,0.0,0.0,0.0,0.0,0.0,0.0,0.0,0.0,0.0,0.0,0.0,0.0,0.0,0.0,0.0,0.0,0.0,0.0,0.0,0.0,0.0,0.0,0.0,0.0,0.0,0.0,0.0,0.0,0.0,0.0,0.0,0.0,0.0,0.0,0.0,0.0,0.0,0.0,0.0,0.0,-1.057,-1.1815,0.0,0.0,0.0,-1.6801,-1.7449,0.0,0.0,0.0,0.0,0.0,0.0,0.0,0.0,0.0,0.0,0.0,0.0,0.0,0.0,0.0,0.0,0.0,0.0,0.0,0.0,0.0,0.0,0.0,0.0,0.0,0.0,0.0,0.0,0.0,0.0,0.0,0.0,0.0,0.0,0.0,0.0,0.0,0.0,0.0,0.0,0.0,0.0,0.0,0.0,0.0,0.0,0.0,0.0,0.0,0.0,0.0,0.0,0.0,0.0,0.0,0.0,0.0,-1.0639,-1.1272,-1.1721,-1.1967,-1.3175,-1.4429,-1.5564,-1.5534,0.0,0.0,0.0,0.0,0.0,0.0,0.0,0.0,0.0,0.0,0.0,0.0,0.0,0.0,0.0,0.0,0.0,0.0,0.0,0.0,0.0,0.0,0.0,0.0,0.0,0.0,0.0,-1.1443,0.0,0.0,0.0,0.0,0.0,0.0,0.0,0.0,0.0,0.0,0.0,0.0,0.0,0.0,-1.0692,-1.0692,-1.2514,-1.4004,0.0,0.0,-1.7669,-1.7661,-1.8036,-1.7923,0.0,0.0,0.0,0.0,0.0,0.0,0.0,0.0,0.0,0.0,0.0,0.0,0.0,0.0,0.0,0.0,0.0,0.0,0.0,0.0,0.0,0.0,0.0,0.0,0.0,0.0,0.0,0.0,0.0,0.0,0.0,0.0,0.0,0.0,0.0,0.0,0.0,0.0,0.0,0.0,0.0,0.0,0.0,0.0,0.0,0.0,0.0,0.0,0.0,0.0,0.0,0.0,0.0,0.0,-1.0099,-1.0469,-1.1338,-1.1797,-1.1857,-1.3038,-1.4336,-1.5558,-1.5918,-1.611,0.0,0.0,0.0,0.0,0.0,0.0,0.0,0.0,0.0,0.0,0.0,0.0,0.0,0.0,0.0,0.0,0.0,0.0,0.0,0.0,0.0,0.0,0.0,0.0,0.0,0.0,0.0,0.0,0.0,0.0,0.0,0.0,0.0,0.0,0.0,0.0,0.0,0.0,0.0,0.0,0.0,-1.0692,-1.0692,-1.2688,-1.4354,0.0,-1.6691,-1.8142,-1.8718,-1.9058,-1.874,-1.6954,0.0,0.0,0.0,0.0,0.0,0.0,0.0,0.0,0.0,0.0,0.0,0.0,0.0,0.0,0.0,0.0,0.0,0.0,0.0,0.0,0.0,0.0,0.0,0.0,0.0,0.0,0.0,0.0,0.0,0.0,0.0,0.0,0.0,0.0,0.0,0.0,0.0,0.0,0.0,0.0,0.0,0.0,0.0,0.0,0.0,0.0,0.0,0.0,0.0,0.0,0.0,0.0,0.0,-1.001,-1.0274,-1.1265,-1.1837,-1.1837,-1.2307,-1.3495,-1.5575,-1.5357,-1.5601,0.0,0.0,0.0,0.0,0.0,0.0,0.0,0.0,0.0,0.0,0.0,0.0,0.0,0.0,0.0,0.0,0.0,0.0,0.0,0.0,0.0,0.0,0.0,0.0,0.0,0.0,0.0,0.0,-1.2832,-1.2973,-1.3267,0.0,0.0,0.0,0.0,0.0,0.0,0.0,0.0,0.0,0.0,-1.0733,-1.0846,-1.2954,0.0,0.0,-1.6929,-1.8323,-1.8357,-1.847,-1.813,-1.6873,-1.7038,0.0,0.0,0.0,0.0,0.0,0.0,0.0,0.0,0.0,0.0,0.0,0.0,0.0,0.0,0.0,0.0,0.0,0.0,0.0,0.0,0.0,0.0,0.0,0.0,0.0,0.0,0.0,0.0,0.0,0.0,0.0,0.0,0.0,0.0,0.0,0.0,0.0,0.0,0.0,0.0,0.0,0.0,0.0,0.0,0.0,0.0,0.0,0.0,0.0,0.0,0.0,0.0,-0.9925,-1.0216,-1.1286,-1.1837,-1.1837,-1.1837,-1.2848,-1.4906,-1.4808,-1.5081,0.0,0.0,0.0,0.0,0.0,0.0,0.0,0.0,0.0,0.0,0.0,0.0,0.0,0.0,0.0,0.0,0.0,0.0,0.0,0.0,0.0,0.0,0.0,0.0,0.0,0.0,0.0,0.0,-1.322,-1.3327,-1.3567,0.0,0.0,0.0,0.0,0.0,0.0,0.0,0.0,0.0,0.0,-1.1325,-1.13,-1.3437,-1.5116,-1.5364,-1.6999,-1.8176,-1.8043,-1.8116,-1.7836,-1.6848,0.0,0.0,0.0,0.0,0.0,0.0,0.0,0.0,0.0,0.0,0.0,0.0,0.0,0.0,0.0,0.0,0.0,0.0,0.0,0.0,0.0,0.0,0.0,0.0,0.0,0.0,0.0,-0.7314,0.0,0.0,-0.6774,0.0,0.0,0.0,0.0,0.0,0.0,0.0,0.0,0.0,0.0,0.0,0.0,0.0,0.0,0.0,0.0,0.0,0.0,0.0,0.0,0.0,0.0,-0.9807,-1.0224,-1.1282,-1.1772,-1.1837,-1.1837,-1.2427,-1.371,-1.4347,-1.4724,-1.4823,0.0,0.0,0.0,0.0,0.0,0.0,0.0,0.0,0.0,0.0,0.0,0.0,0.0,0.0,0.0,0.0,0.0,0.0,0.0,0.0,0.0,0.0,0.0,0.0,0.0,0.0,-1.2412,-1.2866,-1.3327,0.0,0.0,0.0,0.0,0.0,0.0,0.0,0.0,0.0,-1.0091,-1.1514,-1.2468,-1.2084,-1.412,-1.5737,-1.6047,-1.6946,-1.7716,-1.7962,-1.8277,-1.8076,0.0,0.0,0.0,0.0,0.0,0.0,0.0,0.0,0.0,0.0,0.0,0.0,0.0,0.0,0.0,0.0,0.0,0.0,0.0,0.0,0.0,0.0,0.0,0.0,0.0,0.0,0.0,-0.744,-0.7421,0.0,0.0,0.0,0.0,0.0,0.0,0.0,0.0,0.0,0.0,0.0,-0.8287,-0.8542,0.0,0.0,0.0,0.0,0.0,0.0,0.0,0.0,0.0,0.0,0.0,0.0,-0.9731,-1.0233,-1.1106,-1.1654,-1.1833,-1.1837,-1.2367,-1.3457,-1.3727,-1.3983,-1.4299,0.0,0.0,0.0,0.0,0.0,0.0,0.0,0.0,0.0,0.0,0.0,0.0,0.0,0.0,0.0,0.0,0.0,0.0,0.0,0.0,0.0,0.0,0.0,0.0,0.0,-1.3013,0.0,0.0,0.0,0.0,0.0,0.0,0.0,0.0,0.0,0.0,-1.2942,-1.2422,-1.257,-1.286,-1.3062,-1.3004,-1.4529,-1.5922,0.0,0.0,0.0,0.0,0.0,0.0,0.0,0.0,0.0,0.0,0.0,0.0,0.0,0.0,-1.9279,-1.8313,-1.8085,-1.7973,-1.7865,0.0,0.0,0.0,0.0,0.0,0.0,0.0,0.0,0.0,0.0,0.0,0.0,0.0,0.0,-0.7725,-0.7755,-0.7496,0.0,0.0,0.0,0.0,0.0,0.0,0.0,0.0,-0.8453,-0.8577,-0.8567,-0.894,-0.9094,-0.9139,-0.9283,-0.8979,0.0,0.0,0.0,0.0,0.0,0.0,0.0,0.0,-0.9689,-1.0224,-1.098,-1.1464,-1.1577,-1.1585,-1.193,-1.2606,-1.3279,-1.4001,-1.4807,-1.4364,-1.3647,0.0,0.0,0.0,0.0,0.0,0.0,0.0,0.0,0.0,0.0,0.0,0.0,0.0,0.0,0.0,0.0,0.0,0.0,0.0,0.0,0.0,0.0,0.0,-1.3086,0.0,0.0,0.0,0.0,0.0,0.0,0.0,0.0,0.0,-1.5095,-1.4377,-1.3869,-1.3906,-1.4047,-1.4068,-1.3922,0.0,0.0,0.0,0.0,0.0,0.0,0.0,-1.7627,-1.7434,-1.7547,-1.7848,-1.8529,-1.9419,-2.0127,-2.0358,0.0,0.0,-1.9301,-1.8898,-1.8737,-1.8801,-1.8412,-1.8236,-1.8871,-1.8638,-1.8488,0.0,0.0,0.0,0.0,-0.8228,0.0,0.0,0.0,-0.834,-0.832,0.0,-0.7807,0.0,0.0,0.0,0.0,-0.7634,-0.8052,0.0,0.0,-0.9164,-0.9289,-0.8849,-0.9377,-0.9523,-0.9295,-0.9873,-0.9904,-0.9505,-0.9092,-0.8775,0.0,0.0,0.0,0.0,0.0,-0.9795,-1.0168,-1.0854,-1.1162,-1.1228,-1.1228,-1.1224,-1.1261,-1.3012,-1.4636,-1.6042,-1.5371,-1.4727,-1.4075,-1.2973,0.0,0.0,0.0,0.0,0.0,0.0,0.0,0.0,0.0,0.0,0.0,0.0,0.0,0.0,0.0,0.0,0.0,0.0,0.0,0.0,-1.2842,0.0,0.0,0.0,0.0,0.0,0.0,0.0,0.0,0.0,-1.5595,-1.4986,-1.5348,-1.5264,-1.4176,0.0,0.0,0.0,0.0,-1.674,-1.6737,-1.6754,-1.6887,-1.7266,-1.7929,-1.8364,-1.8035,0.0,0.0,-1.9306,-1.9608,-1.9916,-1.9916,-2.0384,-2.0742,-2.0728,-1.9906,-1.9462,-1.9725,-1.9074,-1.8702,-1.9136,-1.8974,-1.8713,-0.5047,0.0,0.0,0.0,0.0,-0.8043,-0.8526,-0.8798,-0.8648,-0.8523,-0.8408,-0.818,0.0,0.0,0.0,0.0,0.0,0.0,-0.8445,-0.8757,-0.912,-0.9476,-0.9856,-1.0003,-1.0292,-1.0669,-1.0728,-1.0681,-1.0564,-1.0198,-0.955,-0.8584,0.0,0.0,0.0,0.0,-0.9375,-0.9903,-1.041,-1.087,-1.122,-1.122,-1.1163,-1.1098,-1.2646,-1.3618,-1.3788,-1.4766,-1.4803,-1.3821,-1.3407,0.0,0.0,0.0,0.0,0.0,0.0,0.0,0.0,0.0,0.0,0.0,0.0,0.0,0.0,0.0,0.0,0.0,0.0,0.0,-1.2764,-1.3133,-1.334,0.0,0.0,0.0,0.0,0.0,0.0,0.0,0.0,0.0,-1.6716,-1.6361,-1.6085,0.0,0.0,-1.5978,-1.5531,-1.6361,-1.7219,-1.7582,-1.7635,0.0,-1.868,-1.8417,-1.8162,-1.8343,-1.9088,-1.9754,-1.9982,-2.0657,-2.1219,-2.1423,-2.1254,-2.1137,-2.132,-2.0647,-2.0087,-2.0089,-1.9597,-1.9389,-2.008,-2.0018,-1.9899,-0.3436,-0.395,-0.5556,-0.6266,-0.648,-0.7578,-0.8221,-0.8523,-0.8901,-0.9045,-0.8994,-0.8791,-0.8486,-0.8245,-0.8072,0.0,0.0,0.0,-0.8777,-0.9211,-0.9296,-0.9621,-1.0112,-1.0243,-1.0547,-1.0906,-1.0932,-1.0911,-1.0787,-1.0578,-0.9904,-0.8855,0.0,-0.8579,-0.8344,-0.8795,-0.931,-0.984,-1.0218,-1.0631,-1.1009,-1.1013,-1.1181,-1.1569,-1.2433,-1.2905,-1.3026,-1.3889,-1.4064,-1.3549,-1.3185,-1.2815,0.0,0.0,0.0,0.0,0.0,0.0,0.0,0.0,0.0,0.0,0.0,-1.2051,-1.1442,0.0,0.0,0.0,-1.2692,-1.2906,-1.308,-1.3534,0.0,0.0,0.0,0.0,0.0,0.0,0.0,-1.6152,-1.6693,-1.7188,-1.7522,-1.7172,-1.6941,-1.7355,-1.7161,-1.686,-1.6567,0.0,-1.7629,-1.7983,-1.8029,-1.8257,-1.8905,-1.8771,-1.8671,-1.8965,-1.9625,-2.0157,-2.0298,-2.1001,-2.1539,-2.1686,-2.1474,-2.1269,-2.1467,-2.1052,-2.0677,-2.0635,-2.0182,-2.001,-2.0752,-2.0558,-2.045,-0.2038,-0.2218,-0.4356,-0.5301,-0.5479,-0.6825,-0.7595,-0.8027,-0.9134,-0.9696,-0.9785,-0.9432,-0.911,-0.895,-0.8543,0.0,-0.8974,-0.8919,-0.9195,-0.9591,-0.9591,-0.9659,-0.9842,-1.0144,-1.0269,-1.0325,-1.0631,-1.0677,-1.0473,-1.0317,-0.9932,-0.917,-0.9151,-0.9101,-0.8958,-0.9161,-0.9493,-0.9915,-1.0144,-1.0406,-1.0692,-1.0692,-1.1227,-1.2177,-1.22,-1.2568,-1.3319,-1.3002,-1.3006,-1.3444,-1.2741,-1.2531,-1.3114,0.0,0.0,0.0,0.0,0.0,0.0,0.0,0.0,0.0,0.0,0.0,0.0,0.0,0.0,-1.2784,-1.3333,0.0,-1.3706,-1.4035,0.0,0.0,0.0,-1.5418,-1.5243,-1.6409,-1.7132,-1.6807,0.0,0.0,-1.7655,-1.7708,-1.7876,-1.8477,-1.8209,-1.7929,-1.7629,-1.7869,-1.8055,-1.8049,-1.8082,-1.8202,-1.8637,-1.9068,-1.9424,-1.9658,-2.0278,-2.0557,-2.0449,-2.0809,-2.1168,-2.1247,-2.1211,-2.1211,-2.1211,-2.1203,-2.1211,-2.1189,-2.0673,-2.0443,-2.0974,-2.068,-2.0507,-0.2038,-0.2037,-0.2633,-0.3413,-0.4499,-0.6803,-0.7804,-0.8036,-0.9233,-0.9791,-0.9805,-0.9595,-0.9418,-0.9269,-0.9164,-0.9178,-0.9276,-0.9276,-0.933,-0.9432,-0.9435,-0.9569,-0.9893,-0.9952,-1.0131,-1.0299,-1.0416,-1.0281,-1.0073,-1.0033,-0.9646,-0.9013,-0.8992,-0.8741,-0.835,-0.8841,-0.9109,-0.9166,-0.9751,-1.0279,-1.0684,-1.0692,-1.0795,-1.087,-1.1524,-1.2196,-1.3084,-1.3392,-1.3868,-1.4553,-1.3978,-1.3487,-1.3187,-1.1975,0.0,0.0,0.0,0.0,0.0,0.0,0.0,0.0,0.0,-1.1957,-1.1156,0.0,-1.2543,0.0,-1.3694,-1.4409,-1.4629,-1.511,0.0,0.0,-1.5999,-1.6547,-1.6914,-1.7268,-1.7448,-1.7382,-1.7709,-1.8023,-1.8243,-1.8277,-1.8497,-1.9058,-1.8497,-1.7916,-1.7649,-1.8243,-1.8631,-1.8477,-1.8751,-1.9072,-1.9182,-1.9489,-1.9727,-1.9795,-2.0317,-2.0686,-2.0615,-2.091,-2.1211,-2.1211,-2.1211,-2.1211,-2.1211,-2.1211,-2.1211,-2.1153,-2.0737,-2.0385,-2.0723,-2.0558,-2.0507,-0.2038,-0.2038,-0.2038,-0.2397,-0.3172,-0.521,-0.6446,-0.7121,-0.841,-0.9268,-0.9812,-0.9669,-0.9598,-0.9568,-0.9439,-0.9418,-0.9476,-0.9412,-0.9381,-0.9381,-0.9381,-0.9497,-0.9671,-0.9668,-0.9729,-0.9899,-0.9903,-0.9783,-0.9668,-0.9668,-0.9434,-0.9039,-0.9035,-0.8869,-0.8598,-0.872,-0.8813,-0.8898,-0.9637,-1.0185,-1.0519,-1.0641,-1.0534,-1.0201,-1.0656,-1.0988,-1.1096,-1.1408,-1.1984,-1.2893,-1.279,-1.2726,-1.2794,-1.2058,-1.1563,0.0,0.0,0.0,0.0,0.0,0.0,0.0,0.0,0.0,0.0,0.0,-1.3026,-1.336,-1.4295,-1.4923,-1.5001,-1.5718,-1.6171,-1.6226,-1.6981,-1.7575,-1.7756,-1.8136,-1.8323,-1.8196,-1.8444,-1.8698,-1.8865,-1.8885,-1.8991,-1.9325,-1.8938,-1.8557,-1.8444,-1.8824,-1.9058,-1.8931,-1.9158,-1.9424,-1.954,-1.9707,-1.9866,-2.0046,-2.0378,-2.0666,-2.0723,-2.096,-2.1211,-2.1211,-2.1211,-2.1211,-2.1211,-2.1211,-2.1146,-2.0967,-2.073,-2.0615,-2.0845,-2.0673,-2.0615,-0.2038,-0.2038,-0.2038,-0.1961,-0.1998,-0.3178,-0.4467,-0.5906,-0.7301,-0.8518,-0.9727,-0.9629,-0.9649,-0.9747,-0.9496,-0.9452,-0.9568,-0.9422,-0.9351,-0.9351,-0.9334,-0.9327,-0.9327,-0.9327,-0.9323,-0.9323,-0.9323,-0.9327,-0.9323,-0.9323,-0.9245,-0.9159,-0.9152,-0.9123,-0.9065,-0.8705,-0.8692,-0.9059,-0.9618,-1.0035,-1.0292,-1.0494,-1.0331,-0.9819,-0.9803,-0.9539,-0.9001,-0.8943,-0.9396,-1.0453,-1.0744,-1.1301,-1.2242,-1.2012,-1.1813,0.0,-1.1343,0.0,0.0,0.0,0.0,0.0,0.0,0.0,0.0,-1.354,-1.3913,-1.4282,-1.5037,-1.5431,-1.5303,-1.6199,-1.6814,-1.6854,-1.7849,-1.843,-1.8203,-1.8865,-1.9272,-1.9011,-1.9172,-1.9312,-1.9279,-1.9285,-1.9252,-1.9279,-1.9245,-1.9205,-1.9383,-1.9383,-1.9397,-1.9424,-1.9424,-1.9482,-1.97,-1.9815,-1.9982,-2.027,-2.0615,-2.0723,-2.078,-2.1017,-2.1211,-2.1211,-2.1211,-2.1211,-2.1211,-2.1211,-2.1089,-2.0838,-2.0788,-2.0845,-2.1024,-2.0902,-2.0823,-0.2038,-0.2038,-0.2038,-0.1973,-0.1967,-0.219,-0.3515,-0.5571,-0.6902,-0.8178,-0.9286,-0.9384,-0.9439,-0.9459,-0.9408,-0.9395,-0.9415,-0.9323,-0.9255,-0.9248,-0.9076,-0.8966,-0.9022,-0.9022,-0.9022,-0.8966,-0.9022,-0.9022,-0.8966,-0.8966,-0.8944,-0.8798,-0.8794,-0.8757,-0.8635,0.0,0.0,0.0,-0.962,-0.9704,-1.0205,-1.0115,-0.9786,-0.9275,-0.9429,0.0,-0.9816,-0.9665,-0.9988,-1.099,-1.092,0.0,0.0,0.0,0.0,0.0,0.0,0.0,0.0,0.0,0.0,0.0,-1.2615,-1.2376,-1.3121,-1.4135,-1.493,-1.5451,-1.5872,-1.6328,-1.675,-1.7141,-1.7415,-1.7455,-1.827,-1.8818,-1.8771,-1.9118,-1.9397,-1.9292,-1.9118,-1.9005,-1.8998,-1.8811,-1.8758,-1.8971,-1.9011,-1.9105,-1.939,-1.9417,-1.9424,-1.9424,-1.9424,-1.954,-1.9758,-1.9989,-2.027,-2.0551,-2.0902,-2.1081,-2.1089,-2.1146,-2.1211,-2.1211,-2.1211,-2.1211,-2.1211,-2.1211,-2.1203,-2.1146,-2.1089,-2.1024,-2.0838,-2.0773,-2.0701,-0.2038,-0.2038,-0.2038,-0.1969,0.0,-0.1922,-0.2865,-0.4531,-0.5928,-0.7585,-0.9266,-0.9323,-0.931,-0.9367,-0.9147,-0.9093,-0.915,-0.8927,-0.8917,-0.8927,-0.8859,-0.8869,-0.8937,-0.8937,-0.8937,-0.8937,-0.8937,-0.8937,-0.8937,-0.8937,-0.8844,-0.877,-0.8821,-0.8838,-0.8925,-0.8921,-0.9208,-0.9712,-0.955,-0.9697,-1.0206,-1.0282,-1.003,-0.9518,-0.962,0.0,0.0,0.0,0.0,0.0,0.0,0.0,0.0,0.0,0.0,-1.1921,-1.1761,-1.1762,-1.2093,-1.2123,-1.2296,-1.2732,-1.2394,-1.2323,-1.2632,-1.3479,-1.4154,-1.4532,-1.5314,-1.5992,-1.6278,-1.7219,-1.7809,-1.7849,-1.8477,-1.8868,-1.8938,-1.9058,-1.9145,-1.9125,-1.8891,-1.8704,-1.8704,-1.8597,-1.8551,-1.8691,-1.8838,-1.8971,-1.9125,-1.9279,-1.9424,-1.9424,-1.9424,-1.9475,-1.9758,-1.9931,-2.0155,-2.0443,-2.073,-2.091,-2.096,-2.1089,-2.1211,-2.1211,-2.1211,-2.1211,-2.1211,-2.1211,-2.1211,-2.1211,-2.1211,-2.108,-2.0771,-2.0671,-2.0685,-0.2038,-0.2038,-0.2038,-0.1962,-0.1937,-0.1901,-0.2485,-0.353,-0.5161,0.0,0.0,-0.9214,-0.9245,-0.9273,-0.8916,-0.8821,-0.8861,-0.8676,-0.8628,-0.8747,-0.875,-0.8818,-0.8878,-0.8937,-0.8937,-0.8937,-0.8937,-0.8937,-0.8937,-0.8937,-0.8937,-0.8937,-0.8937,-0.9047,-0.9268,-0.9323,-0.9315,-0.9237,-0.9448,-0.975,-1.0268,-1.043,-1.0262,-0.9754,-0.9746,-0.9441,-0.8804,-0.8641,-0.8724,-0.8999,-0.9059,-0.9365,-0.9998,-1.0414,-1.0725,-1.09,-1.1041,-1.1294,-1.156,-1.1576,-1.1631,-1.177,-1.2,-1.2173,-1.2252,-1.2752,-1.3148,-1.3378,-1.4492,-1.5158,-1.5164,-1.6408,-1.7302,-1.7309,-1.7994,-1.8407,-1.842,-1.8705,-1.8851,-1.8818,-1.8644,-1.8464,-1.8417,-1.8404,-1.8417,-1.8437,-1.8591,-1.8741,-1.8878,-1.9145,-1.9424,-1.9424,-1.9424,-1.9482,-1.9707,-1.9815,-1.9931,-2.027,-2.0493,-2.0601,-2.0666,-2.0852,-2.1031,-2.0974,-2.1039,-2.1031,-2.1089,-2.1089,-2.1124,-2.1137,-2.1123,-2.102,-2.072,-2.0589,-2.0537,-0.2038,-0.2038,-0.2038,-0.1974,-0.1966,-0.191,-0.2542,-0.3747,-0.5806,-0.7483,-0.8808,-0.892,-0.8925,-0.8939,-0.8937,-0.8865,-0.8937,-0.8893,-0.8886,-0.8851,-0.8851,-0.8861,-0.8937,-0.8937,-0.8937,-0.8937,-0.8937,-0.8937,-0.8937,-0.8937,-0.8937,-0.8937,-0.8937,-0.8937,-0.8992,-0.8992,-0.9092,-0.934,-0.9347,-0.9636,-1.0181,-0.9937,-0.9596,-0.9234,-0.9222,-0.9023,-0.8669,-0.8633,-0.8632,-0.8665,-0.8665,-0.9148,-1.0108,-1.0254,-1.0686,-1.1634,-1.1732,-1.1895,-1.2124,-1.2192,-1.191,-1.1351,-1.1356,-1.179,-1.2782,-1.3188,-1.344,-1.3607,-1.3991,-1.4297,-1.4303,-1.4583,-1.4903,-1.4914,-1.5909,-1.6698,-1.6844,-1.7838,-1.8551,-1.8544,-1.8517,-1.8377,-1.8176,-1.8089,-1.8109,-1.8082,-1.8215,-1.8242,-1.8597,-1.9018,-1.939,-1.9424,-1.9424,-1.9533,-1.9673,-1.9809,-1.9846,-2.0213,-2.0328,-2.0321,-2.0328,-2.0443,-2.05,-2.045,-2.05,-2.0558,-2.073,-2.078,-2.0794,-2.0847,-2.083,-2.065,-2.0391,-2.0113,-1.9923,-0.2038,-0.2038,-0.2038,-0.1967,-0.1947,-0.1887,-0.2522,-0.3636,-0.4657,-0.6129,-0.7847,-0.8572,-0.8937,-0.8875,-0.8797,-0.876,-0.8757,-0.873,-0.8737,-0.8757,-0.8815,-0.8807,-0.8878,-0.8937,-0.8937,-0.8937,-0.8937,-0.8937,-0.8937,-0.8937,-0.8937,-0.8937,-0.8937,-0.8937,-0.8878,-0.8801,-0.8924,-0.9298,-0.9372,-0.961,-1.0087,-0.9999,-0.9839,-0.9726,-0.9583,-0.9449,-0.9287,-0.9143,-0.9041,-0.9041,-0.8951,-0.9117,-0.9555,-0.9701,-0.9983,-1.0491,-1.0602,-1.0704,-1.0844,-1.0849,-1.0697,-1.0342,-1.0306,-1.0582,-1.1271,-1.1536,-1.1737,-1.1937,-1.2671,-1.3166,-1.3221,-1.4293,-1.5102,-1.5102,-1.6373,-1.7197,-1.7271,-1.7762,-1.8195,-1.8195,-1.825,-1.8142,-1.8009,-1.8129,-1.829,-1.8283,-1.829,-1.835,-1.847,-1.8718,-1.8898,-1.8898,-1.8891,-1.9022,-1.9263,-1.929,-1.9466,-1.9781,-1.9931,-1.9982,-2.0046,-2.0162,-2.0328,-2.0493,-2.0493,-2.0673,-2.0895,-2.0967,-2.0879,-2.0696,-2.0664,-2.0545,-2.0113,-1.9725,-1.958,-0.2038,-0.2038,-0.2038,-0.1955,-0.1916,-0.1805,-0.2334,-0.3193,-0.3469,-0.4641,-0.6369,-0.782,-0.8491,-0.8533,-0.8651,-0.8764,-0.8743,-0.8642,-0.8652,-0.8754,-0.8764,-0.8825,-0.8875,-0.8937,-0.8868,-0.8838,-0.8831,-0.8869,-0.8838,-0.878,-0.878,-0.8835,-0.8784,-0.878,-0.8777,-0.872,-0.8766,-0.903,-0.9207,-0.9523,-0.9929,-1.0084,-1.0151,-1.0139,-0.9916,-0.9827,-0.9811,-0.9559,-0.9445,-0.9404,-0.9314,-0.9198,-0.9169,-0.9367,-0.9465,-0.9477,-0.9547,-0.9624,-0.9624,-0.9624,-0.9624,-0.9624,-0.9624,-0.9681,-0.9823,-1.0045,-1.0193,-1.0515,-1.1661,-1.2417,-1.2684,-1.4191,-1.5482,-1.5553,-1.67,-1.7371,-1.7499,-1.7721,-1.7889,-1.7889,-1.7942,-1.7982,-1.8016,-1.8263,-1.847,-1.8477,-1.8544,-1.8571,-1.8517,-1.8531,-1.8577,-1.8517,-1.8544,-1.8744,-1.8958,-1.9045,-1.9145,-1.9403,-1.9591,-1.9758,-1.9815,-2.004,-2.027,-2.0486,-2.0466,-2.043,-2.0623,-2.0779,-2.059,-2.0176,-2.02,-2.0289,-1.9762,-1.9431,-1.9249,-0.2038,-0.2038,-0.2038,-0.1943,-0.1888,-0.1853,-0.1879,-0.2132,-0.3136,-0.3691,-0.4195,-0.626,-0.7263,-0.7432,-0.8416,-0.8854,-0.8854,-0.8844,-0.8899,-0.8906,-0.8861,-0.8871,-0.8881,-0.8878,-0.8862,-0.875,-0.8733,-0.8665,-0.8557,-0.854,-0.8533,-0.8523,-0.8523,-0.8586,-0.8526,-0.8516,-0.8503,-0.8552,-0.8684,-0.9098,-0.9746,-0.9903,-0.9908,-0.9908,-0.9742,-0.9648,-0.9661,-0.962,-0.9527,-0.9433,-0.949,-0.9494,-0.9364,-0.9494,-0.9596,-0.9587,-0.9562,-0.9624,-0.9624,-0.9624,-0.9624,-0.9624,-0.9624,-0.9636,-0.9665,-0.9819,-1.0059,-1.051,-1.159,-1.2325,-1.2467,-1.3588,-1.4443,-1.4513,-1.5571,-1.6111,-1.6349,-1.7027,-1.7622,-1.7622,-1.7883,-1.7896,-1.7809,-1.8176,-1.849,-1.8497,-1.8691,-1.8744,-1.8544,-1.8657,-1.8738,-1.8611,-1.8698,-1.8908,-1.9199,-1.9312,-1.9272,-1.939,-1.9424,-1.9591,-1.9758,-1.9873,-1.9924,-2.005,-2.0039,-1.9793,-1.9456,-1.9542,-1.9663,-1.9294,-1.9431,-1.9762,-1.9425,-1.9152,-1.9018,-0.2038,-0.1975,-0.1958,-0.1915,-0.1858,-0.1827,-0.1806,-0.1851,-0.2297,-0.2521,-0.2744,-0.4306,-0.5813,-0.7154,-0.838,-0.8937,-0.8937,-0.8937,-0.8937,-0.8937,-0.8937,-0.8937,-0.8875,-0.8842,-0.8767,-0.8703,-0.8621,-0.8543,-0.8545,-0.8535,-0.8535,-0.8535,-0.8535,-0.8535,-0.8476,-0.8453,-0.8357,-0.8405,-0.8461,-0.8664,-0.8964,-0.9322,-0.9534,-0.9726,-0.9665,-0.9624,-0.9624,-0.9624,-0.9543,-0.9429,-0.9477,-0.9384,-0.9214,-0.9275,-0.9315,-0.9324,-0.9413,-0.9514,-0.962,-0.9624,-0.9624,-0.9624,-0.9624,-0.9624,-0.9632,-0.9786,-0.9957,-1.0195,-1.126,-1.1783,-1.1527,-1.3402,-1.4671,-1.4475,-1.5755,-1.6882,-1.6935,-1.7312,-1.7589,-1.7609,-1.7856,-1.7949,-1.7969,-1.8377,-1.8637,-1.8584,-1.8738,-1.8741,-1.8557,-1.8597,-1.8684,-1.8639,-1.8215,-1.8242,-1.8856,-1.8945,-1.9025,-1.9265,-1.9424,-1.9482,-1.9686,-1.9815,-1.9768,-1.959,-1.9462,-1.9072,-1.8328,-1.8849,-1.9146,-1.8746,-1.8801,-1.9223,-1.91,-1.881,-1.8691,-0.1971,-0.1959,-0.1923,-0.1823,-0.1781,-0.1808,-0.1795,-0.1795,-0.1795,-0.1795,-0.1907,-0.3079,-0.4529,-0.6202,-0.7709,-0.8383,-0.8436,-0.8771,-0.8937,-0.8937,-0.8937,-0.8861,-0.8814,-0.8767,-0.8665,-0.8581,-0.8476,-0.8401,-0.8367,-0.836,-0.836,-0.836,-0.836,-0.836,-0.835,-0.8252,-0.8204,-0.8201,-0.8292,-0.8382,-0.8535,-0.8882,-0.9229,-0.948,-0.9579,-0.9554,-0.9551,-0.9555,-0.9445,-0.9222,-0.9302,-0.9249,-0.9035,-0.9072,-0.9096,-0.9112,-0.9306,-0.9457,-0.9547,-0.96,-0.9624,-0.9624,-0.9624,-0.9624,-0.9648,-0.9742,-0.9807,-0.9877,-1.089,-1.1274,-1.1256,-1.3273,-1.4526,-1.4215,-1.5911,-1.695,-1.6592,-1.6882,-1.6935,-1.6736,-1.6567,-1.6971,-1.7181,-1.7867,-1.8341,-1.7614,-1.7924,-1.8115,-1.7773,-1.761,-1.7679,-1.7951,-1.7059,-1.7156,-1.818,-1.8052,-1.8204,-1.8423,-1.8551,-1.8751,-1.9117,-1.9168,-1.9182,-1.8682,-1.8758,-1.8604,-1.8046,-1.829,-1.8958,-1.8761,-1.8749,-1.8817,-1.8757,-1.8482,-1.8276,-0.196,-0.1926,-0.1811,-0.1786,-0.178,-0.1808,-0.1795,-0.1795,-0.1795,-0.1795,-0.1963,-0.2967,-0.3636,-0.3971,-0.6091,-0.7152,-0.7318,-0.8325,-0.8819,-0.8758,-0.8816,-0.8801,-0.8726,-0.871,-0.8564,-0.8343,-0.8299,-0.8211,-0.8035,-0.8022,-0.8008,-0.8019,-0.8032,-0.8022,-0.8029,-0.8025,-0.8002,-0.8012,-0.8048,-0.8283,-0.8676,-0.8825,-0.8966,-0.9221,-0.9476,-0.9535,-0.9441,-0.9416,-0.921,-0.8865,-0.9019,-0.9027,-0.8869,-0.8986,-0.9072,-0.9104,-0.9294,-0.9396,-0.9437,-0.9522,-0.962,-0.9624,-0.9624,-0.9624,-0.9624,-0.9648,-0.9661,-0.9644,-1.056,-1.1261,-1.162,-1.2874,-1.3756,-1.3823,-1.4926,-1.524,-1.4475,-1.5411,-1.5322,-1.4722,-1.4595,-1.4857,-1.4943,-1.6666,-1.6845,-1.6107,-1.6353,-1.6779,-1.6023,-1.5793,-1.5898,-1.5882,-1.5687,-1.569,-1.7037,-1.6978,-1.6581,-1.6919,-1.7341,-1.7449,-1.7557,-1.7697,-1.783,-1.7931,-1.8343,-1.834,-1.782,-1.795,-1.8618,-1.8748,-1.8615,-1.8648,-1.8376,-1.8185,-1.7925,-0.1947,-0.1899,-0.18,-0.1772,-0.181,-0.18,-0.1795,-0.1795,-0.1795,-0.1795,-0.1851,-0.2242,-0.2465,-0.2521,-0.4139,-0.5252,-0.6089,-0.7204,-0.772,-0.765,-0.7638,-0.7951,-0.8514,-0.8476,-0.8384,-0.8327,-0.8174,-0.8096,-0.7998,-0.7988,-0.7988,-0.7988,-0.7988,-0.7988,-0.7988,-0.7988,-0.7988,-0.7988,-0.7988,-0.8184,-0.852,-0.863,-0.8777,-0.9069,-0.9356,-0.9368,-0.9245,-0.919,-0.9076,-0.8787,-0.8889,-0.884,-0.869,-0.8718,-0.8812,-0.8909,-0.8978,-0.9112,-0.9371,-0.9417,-0.9506,-0.9567,-0.9624,-0.9624,-0.9624,-0.9624,-0.9624,-0.9673,-0.9871,-1.0298,-1.0734,-1.2164,-1.3156,-1.2864,-1.3706,-1.435,-1.4139,-1.4414,-1.4567,-1.4186,-1.4078,-1.4175,-1.4326,-1.5221,-1.5522,-1.495,-1.5328,-1.5404,-1.5262,-1.5178,-1.5128,-1.5043,-1.4468,-1.3984,-1.4442,-1.5219,-1.5493,-1.5966,-1.6379,-1.6982,-1.726,-1.817,-1.8566,-1.7611,-1.7908,-1.797,-1.7461,-1.7217,-1.7903,-1.7607,-1.7573,-1.7677,-1.7884,-1.7196,-1.6985,-0.1917,-0.187,-0.1838,-0.1814,-0.1795,-0.1795,-0.1795,-0.1795,-0.1795,-0.1795,-0.1795,-0.1795,-0.1795,-0.2018,-0.3079,-0.3735,-0.4436,-0.5819,-0.6446,-0.6431,-0.6716,-0.7275,-0.7835,-0.8158,-0.8241,-0.8191,-0.8046,-0.7988,-0.7988,-0.7988,-0.7988,-0.7988,-0.7988,-0.7988,-0.7988,-0.7988,-0.7988,-0.7988,-0.7988,-0.8137,-0.8365,-0.8429,-0.8564,-0.8743,-0.8981,-0.9086,-0.9015,-0.9011,-0.8926,-0.8767,-0.8743,-0.869,-0.8624,-0.8616,-0.8661,-0.8723,-0.8796,-0.8917,-0.9157,-0.9335,-0.9457,-0.9531,-0.9596,-0.9624,-0.9624,-0.9624,-0.9624,-0.9624,-0.9624,-0.9624,-0.9892,-1.1064,-1.1802,-1.1597,-1.2499,-1.3126,-1.2946,-1.3247,-1.3318,-1.3058,-1.3221,-1.3329,-1.3236,-1.3951,-1.397,-1.3502,-1.3806,-1.4163,-1.3836,-1.3732,-1.3766,-1.371,-1.3003,-1.2607,-1.2731,-1.3146,-1.3663,-1.4157,-1.5298,-1.6078,-1.6691,-1.787,-1.8291,-1.7449,-1.7193,-1.7323,-1.7165,-1.6765,-1.6432,-1.6073,-1.5894,-1.5914,-1.5966,-1.5884,-1.5657,-0.187,-0.1783,-0.1808,-0.1797,-0.1795,-0.1795,-0.1795,-0.1795,-0.1795,-0.1795,-0.1795,-0.1795,-0.1795,-0.2018,-0.2911,-0.2942,-0.2638,-0.4209,-0.5168,-0.5308,-0.6197,-0.662,-0.6711,-0.7527,-0.7924,-0.7865,-0.7945,-0.7939,-0.7988,-0.7988,-0.7988,-0.7988,-0.7988,-0.7988,-0.7988,-0.7988,-0.7988,-0.7988,-0.7988,-0.8137,-0.8361,-0.8272,-0.8266,-0.8355,-0.8482,-0.8568,-0.8775,-0.8775,-0.8751,-0.8653,-0.8629,-0.862,-0.8568,-0.8568,-0.8572,-0.8561,-0.8678,-0.8808,-0.8827,-0.9141,-0.9347,-0.9445,-0.9522,-0.9604,-0.9624,-0.9624,-0.9624,-0.9624,-0.9624,-0.9624,-0.9624,-0.9838,-1.0067,-1.0234,-1.1268,-1.1583,-1.1294,-1.1755,-1.1987,-1.1341,-1.1769,-1.1873,-1.1555,-1.2495,-1.2945,-1.1841,-1.2008,-1.246,-1.1807,-1.1672,-1.14,-1.1413,-1.1526,-1.1593,-1.1317,-1.1212,-1.1636,-1.2218,-1.3613,-1.4724,-1.4994,-1.5871,-1.6368,-1.5863,-1.6318,-1.6402,-1.5694,-1.5305,-1.4908,-1.4579,-1.4402,-1.4315,-1.4461,-1.4447,-1.3986,-0.1868,-0.1781,-0.1808,-0.1795,-0.1795,-0.1795,-0.1795,-0.1795,-0.1795,-0.1795,-0.1795,-0.1795,-0.1795,-0.1851,-0.2242,-0.218,-0.1889,-0.2552,-0.3197,-0.3899,-0.4288,-0.4854,-0.539,-0.5727,-0.6266,-0.6792,-0.6886,-0.7288,-0.7839,-0.7939,-0.7988,-0.7988,-0.7988,-0.7988,-0.7988,-0.7988,-0.7988,-0.7988,-0.7988,-0.8137,-0.8358,-0.8128,-0.811,-0.8271,-0.8166,-0.8108,-0.8193,-0.8512,-0.8621,-0.8616,-0.8616,-0.8524,-0.834,-0.8208,-0.8124,-0.8128,-0.8291,-0.8479,-0.8594,-0.8838,-0.9108,-0.9343,-0.9453,-0.9502,-0.9608,-0.962,-0.962,-0.962,-0.9624,-0.9624,-0.9624,-0.9624,-0.9689,-0.9786,-1.0201,-1.0587,-1.0498,-1.0924,-1.0996,-1.0857,-1.1017,-1.1017,-1.0907,-1.1714,-1.161,-1.1017,-1.113,-1.1168,-1.0964,-1.085,-1.085,-1.0858,-1.0858,-1.0907,-1.0903,-1.0903,-1.1139,-1.1612,-1.2699,-1.3516,-1.3775,-1.4353,-1.4667,-1.4728,-1.5188,-1.5024,-1.4331,-1.3786,-1.3392,-1.3172,-1.3092,-1.3103,-1.3245,-1.3009,-1.2566,-0.1862,-0.1823,-0.1803,-0.1795,-0.1795,-0.1795,-0.1795,-0.1795,-0.1795,-0.1795,-0.1795,-0.1795,-0.1795,-0.1795,-0.1795,-0.1781,-0.1759,-0.172,-0.205,-0.2676,-0.3127,-0.3612,-0.4279,-0.4674,-0.5074,-0.5679,-0.5782,-0.6129,-0.6781,-0.7188,-0.7388,-0.7437,-0.7789,-0.7988,-0.7988,-0.7988,-0.7988,-0.7988,-0.7988,-0.806,-0.8112,-0.791,-0.7847,-0.7902,-0.7814,-0.7779,-0.7768,-0.812,-0.8344,-0.8344,-0.8344,-0.8252,-0.8113,-0.7988,-0.79,-0.794,-0.8076,-0.8255,-0.8405,-0.8656,-0.8901,-0.9116,-0.9265,-0.9299,-0.9417,-0.9474,-0.9527,-0.9527,-0.9587,-0.9624,-0.9624,-0.9624,-0.9624,-0.9632,-0.9845,-0.9989,-1.0277,-1.0452,-1.0619,-1.0664,-1.0747,-1.0692,-1.0692,-1.0692,-1.0692,-1.0692,-1.0692,-1.0692,-1.0692,-1.07,-1.0692,-1.0696,-1.0733,-1.0749,-1.0716,-1.0708,-1.0704,-1.127,-1.1928,-1.2519,-1.29,-1.3867,-1.4476,-1.3853,-1.3937,-1.3294,-1.2598,-1.223,-1.1824,-1.1788,-1.1726,-1.148,-1.1409,-1.1415,-1.1157,-0.1849,-0.1797,-0.1795,-0.1795,-0.1795,-0.1795,-0.1795,-0.1795,-0.1795,-0.1795,-0.1795,-0.1795,-0.1795,-0.1795,-0.1791,-0.1763,-0.1715,-0.1701,-0.1673,-0.1993,-0.2531,-0.3077,-0.3224,-0.3874,-0.4375,-0.4676,-0.4726,-0.4826,-0.5225,-0.5932,-0.6337,-0.6384,-0.7135,-0.7839,-0.7739,-0.7889,-0.7839,-0.7988,-0.7975,-0.7943,-0.7821,-0.7702,-0.7566,-0.7475,-0.7461,-0.7462,-0.7503,-0.7724,-0.7856,-0.79,-0.794,-0.79,-0.7896,-0.7856,-0.7812,-0.7812,-0.8025,-0.8157,-0.8239,-0.8564,-0.8812,-0.8877,-0.9003,-0.9096,-0.9157,-0.9299,-0.9441,-0.9397,-0.9531,-0.9624,-0.9624,-0.9624,-0.9624,-0.9644,-0.9782,-1.0022,-1.0274,-1.0338,-1.0481,-1.0615,-1.0676,-1.0684,-1.068,-1.0692,-1.0692,-1.0692,-1.0692,-1.0692,-1.0692,-1.0692,-1.0692,-1.0692,-1.0692,-1.0692,-1.0692,-1.0692,-1.0692,-1.0907,-1.1391,-1.1655,-1.1955,-1.2852,-1.3403,-1.2791,-1.2408,-1.1688,-1.1205,-1.091,-1.0639,-1.0541,-1.0258,-0.9706,-0.9821,-1.0162,-1.031,-0.183,-0.1796,-0.1795,-0.1795,-0.1795,-0.1795,-0.1795,-0.1795,-0.1795,-0.1795,-0.1795,-0.1795,-0.1795,-0.1793,-0.1828,-0.1807,-0.1783,-0.1745,-0.1721,-0.17,-0.1828,-0.202,-0.2019,-0.2321,-0.2923,-0.3525,-0.3674,-0.4024,-0.4774,-0.5027,-0.5227,-0.5227,-0.5577,-0.6129,-0.6684,-0.6836,-0.7288,-0.7869,-0.7923,-0.7858,-0.7773,-0.756,-0.7463,-0.7412,-0.7265,-0.7238,-0.7187,-0.7275,-0.7544,-0.7856,-0.7724,-0.7591,-0.7591,-0.7455,-0.7363,-0.7408,-0.772,-0.7984,-0.8084,-0.8388,-0.869,-0.8763,-0.8857,-0.895,-0.9096,-0.9302,-0.9388,-0.9437,-0.9518,-0.9624,-0.9624,-0.9624,-0.9624,-0.9648,-0.9774,-0.992,-1.0038,-1.0156,-1.0302,-1.0465,-1.0501,-1.0554,-1.0643,-1.0676,-1.0684,-1.0688,-1.0692,-1.0692,-1.0692,-1.0692,-1.0692,-1.0692,-1.0692,-1.0692,-1.0692,-1.0692,-1.0692,-1.0692,-1.0903,-1.0945,-1.1059,-1.1324,-1.1424,-1.1078,-1.1175,-1.0677,-1.0361,-1.0117,-0.9816,-0.9734,-0.9689,-0.9624,-0.9624,-0.9821,-0.9871,-0.1823,-0.1795,-0.1795,-0.1795,-0.1795,-0.1795,-0.1795,-0.1795,-0.1795,-0.1795,-0.1795,-0.1795,-0.1795,-0.1791,-0.1819,-0.1797,-0.1779,-0.1736,-0.1708,-0.1641,-0.1675,-0.1617,-0.1617,-0.1617,-0.1969,-0.2422,-0.2521,-0.2873,-0.3423,-0.3874,-0.4123,-0.4273,-0.4574,-0.5125,-0.5729,-0.6232,-0.6606,-0.7199,-0.7553,-0.7767,-0.7621,-0.7514,-0.7346,-0.7285,-0.718,-0.7095,-0.7095,-0.7095,-0.7275,-0.7496,-0.7411,-0.7323,-0.7323,-0.7187,-0.7095,-0.7139,-0.7588,-0.79,-0.7988,-0.8344,-0.8613,-0.869,-0.8714,-0.8763,-0.8889,-0.9088,-0.9246,-0.9306,-0.9474,-0.96,-0.9624,-0.9624,-0.9624,-0.9636,-0.9717,-0.9807,-0.9872,-0.9985,-1.0123,-1.0257,-1.0331,-1.0387,-1.0558,-1.0582,-1.0627,-1.0672,-1.0692,-1.0692,-1.0692,-1.0692,-1.0692,-1.0692,-1.0688,-1.0684,-1.0672,-1.0668,-1.0635,-1.0639,-1.057,-1.0582,-1.0517,-1.0444,-1.0408,-1.0391,-1.0073,-0.9855,-0.9778,-0.9717,-0.9689,-0.9657,-0.9628,-0.962,-0.9616,-0.9587,-0.9592,-0.182,-0.1795,-0.1795,-0.1795,-0.1795,-0.1795,-0.1795,-0.1795,-0.1795,-0.1795,-0.1795,-0.1795,-0.1791,-0.1788,-0.1808,-0.1782,-0.1699,-0.1719,-0.1643,-0.1626,-0.1617,-0.1566,-0.1566,-0.1566,-0.1667,-0.1768,-0.1617,-0.1717,-0.212,-0.2722,-0.2973,-0.3173,-0.3924,-0.4425,-0.4726,-0.5479,-0.5971,-0.623,-0.6768,-0.7121,-0.7085,-0.708,-0.7043,-0.7183,-0.7115,-0.7095,-0.7095,-0.7095,-0.7139,-0.7139,-0.7095,-0.7139,-0.7095,-0.7095,-0.7095,-0.7231,-0.7588,-0.79,-0.7988,-0.8344,-0.8616,-0.8633,-0.8633,-0.8616,-0.8718,-0.8922,-0.9125,-0.9129,-0.9377,-0.9546,-0.9525,-0.9529,-0.9525,-0.9529,-0.9541,-0.9659,-0.9811,-0.9855,-0.998,-1.0151,-1.0184,-1.0221,-1.0339,-1.0366,-1.0469,-1.0578,-1.0615,-1.0635,-1.066,-1.0692,-1.0692,-1.0692,-1.0684,-1.068,-1.066,-1.0643,-1.0595,-1.0558,-1.044,-1.0387,-1.0318,-1.0241,-1.0144,-1.0014,-0.9876,-0.9766,-0.9685,-0.964,-0.9624,-0.9624,-0.9624,-0.9612,-0.9592,-0.9539,-0.9518,-0.1801,-0.1795,-0.1795,-0.1795,-0.1795,-0.1795,-0.1795,-0.1795,-0.1795,-0.1795,-0.1795,-0.1795,-0.1781,-0.1814,-0.173,-0.1699,-0.1724,-0.1644,-0.1622,-0.1619,-0.1566,-0.1566,-0.1566,-0.1566,-0.1566,-0.1566,-0.1566,-0.1566,-0.1717,-0.1869,-0.1969,-0.207,-0.2421,-0.272,-0.3521,-0.3914,-0.4384,-0.4937,-0.5295,-0.5756,-0.613,-0.6166,-0.6382,-0.6918,-0.7095,-0.7095,-0.7095,-0.7095,-0.7095,-0.7095,-0.7095,-0.7095,-0.7095,-0.7095,-0.7095,-0.7228,-0.7588,-0.79,-0.7988,-0.83,-0.8616,-0.8616,-0.8616,-0.8616,-0.8637,-0.8881,-0.9068,-0.9153,-0.9361,-0.9497,-0.9327,-0.9282,-0.9274,-0.9274,-0.9324,-0.9385,-0.9577,-0.9643,-0.9778,-0.9892,-1.0,-1.0014,-1.0193,-1.0217,-1.0302,-1.0444,-1.0513,-1.0554,-1.0595,-1.0635,-1.0615,-1.0574,-1.0578,-1.0546,-1.0501,-1.0481,-1.0452,-1.04,-1.0298,-1.0209,-1.014,-1.0046,-0.9953,-0.9868,-0.9774,-0.9685,-0.9632,-0.9624,-0.9624,-0.9624,-0.9608,-0.9551,-0.9498,-0.951,-0.9413,-0.1795,-0.1795,-0.1795,-0.1795,-0.1795,-0.1795,-0.1795,-0.1795,-0.1795,-0.1795,-0.1795,-0.1795,-0.1778,-0.1803,-0.1718,-0.1689,-0.1661,-0.1631,-0.1566,-0.1566,-0.1566,-0.1566,-0.1566,-0.1566,-0.1566,-0.1566,-0.1566,-0.1566,-0.1566,-0.1566,-0.1667,-0.1566,-0.1566,-0.1956,-0.2491,-0.2933,-0.347,-0.3915,-0.4383,-0.4776,-0.5044,-0.5081,-0.5494,-0.6384,-0.683,-0.7095,-0.7095,-0.7095,-0.7095,-0.7095,-0.7095,-0.7095,-0.7095,-0.7095,-0.7095,-0.7183,-0.7584,-0.79,-0.7988,-0.83,-0.8616,-0.8616,-0.8616,-0.8524,-0.8524,-0.8725,-0.8948,-0.898,-0.9132,-0.9229,-0.9057,-0.8943,-0.8951,-0.9,-0.9056,-0.9196,-0.9357,-0.9529,-0.9652,-0.9742,-0.9766,-0.986,-1.0008,-1.0018,-1.018,-1.0266,-1.0302,-1.0339,-1.0335,-1.0424,-1.0441,-1.0433,-1.0453,-1.0383,-1.0327,-1.0294,-1.0278,-1.0213,-1.0123,-1.0046,-0.9981,-0.9876,-0.977,-0.9721,-0.9689,-0.9669,-0.9624,-0.9624,-0.962,-0.9604,-0.9563,-0.947,-0.9429,-0.9355,-0.9259,-0.1795,-0.1795,-0.1795,-0.1795,-0.1795,-0.1795,-0.1795,-0.1795,-0.1795,-0.1795,-0.1795,-0.1795,-0.1775,-0.1796,-0.1716,-0.1687,-0.1654,-0.1633,-0.1566,-0.1566,-0.1566,-0.1566,-0.1566,-0.1566,-0.1566,-0.1566,-0.1566,-0.1566,-0.1566,-0.1566,-0.1612,-0.161,-0.1609,-0.164,-0.1864,-0.2387,-0.2786,-0.2847,-0.3385,-0.3939,-0.4094,-0.4115,-0.4648,-0.5764,-0.6387,-0.6918,-0.7051,-0.7095,-0.7095,-0.7095,-0.7095,-0.7095,-0.7095,-0.7095,-0.7095,-0.7139,-0.754,-0.7812,-0.7944,-0.8256,-0.8524,-0.8568,-0.8616,-0.8476,-0.8376,-0.8499,-0.8657,-0.871,-0.878,-0.8835,-0.8668,-0.8583,-0.8575,-0.8676,-0.881,-0.8982,-0.9192,-0.9395,-0.9534,-0.9636,-0.9673,-0.975,-0.9799,-0.9851,-0.9969,-1.0122,-1.0099,-1.0132,-1.0188,-1.0208,-1.0257,-1.0294,-1.0331,-1.0213,-1.0148,-1.0034,-1.0026,-1.0014,-0.9929,-0.9892,-0.9831,-0.9766,-0.9689,-0.9665,-0.9636,-0.9624,-0.9624,-0.9624,-0.9612,-0.9583,-0.9486,-0.9416,-0.9306,-0.9153,-0.91,-0.1795,-0.1795,-0.1795,-0.1795,-0.1795,-0.1795,-0.1795,-0.1795,-0.1795,-0.1795,-0.1793,-0.1793,-0.1762,-0.1721,-0.1708,-0.1675,-0.1635,-0.1568,-0.1566,-0.1566,-0.1566,-0.1566,-0.1566,-0.1566,-0.1566,-0.1566,-0.1566,-0.1566,-0.1566,-0.1566,-0.1602,-0.1585,-0.1579,-0.1564,-0.1589,-0.1722,-0.1941,-0.1943,-0.221,-0.2552,-0.3014,-0.3312,-0.3937,-0.5275,-0.5764,-0.6207,-0.6874,-0.7051,-0.7095,-0.7095,-0.7095,-0.7095,-0.7095,-0.7095,-0.7095,-0.7183,-0.7411,-0.768,-0.7856,-0.8116,-0.834,-0.8524,-0.8568,-0.8432,-0.8288,-0.8345,-0.8408,-0.8318,-0.8389,-0.8408,-0.8182,-0.8128,-0.8121,-0.8182,-0.8332,-0.8594,-0.8964,-0.9216,-0.9466,-0.9563,-0.96,-0.964,-0.9693,-0.9734,-0.9811,-0.9892,-0.9925,-0.9989,-1.0038,-1.0118,-1.0167,-1.02,-1.0233,-1.0126,-0.9965,-0.9823,-0.9746,-0.9778,-0.9742,-0.9746,-0.9697,-0.9669,-0.9632,-0.9628,-0.962,-0.9612,-0.9616,-0.96,-0.9518,-0.9425,-0.934,-0.9294,-0.9147,-0.8958,-0.8905,-0.1795,-0.1795,-0.1795,-0.1795,-0.1795,-0.1795,-0.1795,-0.1795,-0.1795,-0.1786,-0.1775,-0.1824,-0.1793,-0.1748,-0.1735,-0.1656,-0.1626,-0.1566,-0.1566,-0.1566,-0.1566,-0.1566,-0.1566,-0.1566,-0.1566,-0.1566,-0.1566,-0.1565,-0.1564,-0.1599,-0.1586,-0.1573,-0.1558,-0.1532,-0.1509,-0.1549,-0.1486,-0.1465,-0.1503,-0.1679,-0.2154,-0.2555,-0.3491,-0.4026,-0.4783,-0.5181,-0.5581,-0.6251,-0.634,-0.6473,-0.6827,-0.7051,-0.7095,-0.7095,-0.7095,-0.7143,-0.7323,-0.7551,-0.768,-0.7896,-0.812,-0.8212,-0.8256,-0.8124,-0.8,-0.8016,-0.8057,-0.8018,-0.8058,-0.811,-0.7842,-0.7759,-0.7802,-0.7887,-0.8037,-0.8296,-0.8687,-0.8965,-0.9176,-0.9421,-0.9559,-0.96,-0.9628,-0.9661,-0.9681,-0.9713,-0.975,-0.9827,-0.9916,-0.9937,-0.9957,-0.9945,-0.9953,-0.9908,-0.9815,-0.973,-0.9624,-0.9624,-0.9624,-0.9624,-0.9628,-0.9628,-0.9628,-0.9628,-0.9616,-0.9579,-0.9506,-0.9502,-0.936,-0.9259,-0.9133,-0.9011,-0.8881,-0.8775,-0.8739,-0.1739,-0.1795,-0.1795,-0.1795,-0.1795,-0.1795,-0.1795,-0.1794,-0.1787,-0.1828,-0.1806,-0.1795,-0.1765,-0.1724,-0.1705,-0.1639,-0.1566,-0.1566,-0.1566,-0.1566,-0.1566,-0.1566,-0.1566,-0.1566,-0.1566,-0.1566,-0.1605,-0.1608,-0.16,-0.1585,-0.1568,-0.1545,-0.1524,-0.1502,-0.1478,-0.1471,-0.1453,-0.1399,-0.1391,-0.1391,-0.1614,-0.2152,-0.2734,-0.2911,-0.3623,-0.4111,-0.4556,-0.5048,-0.5361,-0.5672,-0.616,-0.6786,-0.683,-0.6962,-0.7095,-0.7139,-0.7279,-0.7415,-0.7547,-0.768,-0.7856,-0.7944,-0.7944,-0.7768,-0.7595,-0.7657,-0.7693,-0.7636,-0.7678,-0.7706,-0.7537,-0.739,-0.7478,-0.765,-0.7756,-0.792,-0.8367,-0.8683,-0.8941,-0.9188,-0.9413,-0.9559,-0.953,-0.9628,-0.9652,-0.9657,-0.9693,-0.9689,-0.9758,-0.973,-0.9734,-0.9701,-0.9693,-0.9697,-0.9673,-0.9685,-0.9624,-0.9624,-0.9624,-0.9624,-0.9624,-0.9628,-0.9608,-0.9563,-0.9535,-0.9486,-0.9445,-0.9343,-0.9198,-0.908,-0.8922,-0.8804,-0.8723,-0.8674,-0.8641,-0.1514,-0.1795,-0.1795,-0.1795,-0.1795,-0.1795,-0.1794,-0.179,-0.1823,-0.1809,-0.1795,-0.172,-0.1691,-0.1712,-0.1634,-0.1622,-0.1618,-0.1566,-0.1566,-0.1566,-0.1566,-0.1566,-0.1566,-0.1566,-0.1566,-0.1562,-0.1592,-0.1579,-0.1573,-0.1568,-0.1541,-0.1506,-0.1492,-0.1472,-0.1405,-0.1447,-0.1394,-0.1391,-0.1391,-0.1391,-0.1436,-0.1614,-0.2107,-0.2643,-0.3001,-0.331,-0.3888,-0.4245,-0.4423,-0.4601,-0.5361,-0.5808,-0.5988,-0.6697,-0.7007,-0.7095,-0.7143,-0.7231,-0.7415,-0.7503,-0.7635,-0.772,-0.7808,-0.7724,-0.7547,-0.7323,-0.7286,-0.7197,-0.7248,-0.7279,-0.7255,-0.72,-0.7187,-0.73,-0.7458,-0.7721,-0.8091,-0.8272,-0.8528,-0.8889,-0.9104,-0.9328,-0.9478,-0.953,-0.9628,-0.9628,-0.9624,-0.9624,-0.9624,-0.9624,-0.9624,-0.9624,-0.9624,-0.9624,-0.9624,-0.9624,-0.962,-0.962,-0.962,-0.9612,-0.9567,-0.9539,-0.949,-0.9449,-0.9413,-0.9352,-0.9302,-0.9149,-0.9039,-0.8922,-0.8796,-0.8698,-0.8613,-0.862,-0.8616,-0.1177,-0.1795,-0.1795,-0.1795,-0.1795,-0.1795,-0.1785,-0.1824,-0.1811,-0.1785,-0.1756,-0.1687,-0.1717,-0.1639,-0.1621,-0.1618,-0.1566,-0.1566,-0.1566,-0.1566,-0.1566,-0.1566,-0.1566,-0.1566,-0.1566,-0.1607,-0.1587,-0.1561,-0.1549,-0.1527,-0.1549,-0.1485,-0.1464,-0.1451,-0.1391,-0.1391,-0.1391,-0.1391,-0.1391,-0.1391,-0.1391,-0.1436,-0.1615,-0.2061,-0.2062,-0.233,-0.2685,-0.3266,-0.3444,-0.3667,-0.4383,-0.5181,-0.5586,-0.6118,-0.6473,-0.7095,-0.7095,-0.7187,-0.7279,-0.7279,-0.7367,-0.7411,-0.7452,-0.7367,-0.7279,-0.7187,-0.7095,-0.7098,-0.7095,-0.7095,-0.7095,-0.7095,-0.7187,-0.7279,-0.7279,-0.7576,-0.7815,-0.7823,-0.802,-0.8428,-0.8749,-0.8958,-0.9176,-0.9344,-0.9449,-0.9546,-0.9554,-0.9567,-0.9571,-0.9624,-0.9624,-0.9624,-0.9624,-0.9624,-0.9624,-0.9624,-0.9608,-0.9604,-0.955,-0.9571,-0.9478,-0.9477,-0.9412,-0.9238,-0.9125,-0.908,-0.9068,-0.8995,-0.8881,-0.8779,-0.8722,-0.8669,-0.862,-0.862,-0.8616,-0.0841,-0.157,-0.1627,-0.1739,-0.1793,-0.1787,-0.1826,-0.1804,-0.1786,-0.1756,-0.1722,-0.1707,-0.1637,-0.1621,-0.1618,-0.1566,-0.1566,-0.1566,-0.1566,-0.1566,-0.1566,-0.1566,-0.1566,-0.1566,-0.1612,-0.1605,-0.157,-0.1542,-0.1513,-0.1489,-0.1471,-0.1468,-0.1404,-0.1393,-0.1393,-0.14,-0.1405,-0.1405,-0.1395,-0.1391,-0.1391,-0.1391,-0.1391,-0.1436,-0.1391,-0.1391,-0.1524,-0.2061,-0.2509,-0.3135,-0.389,-0.4823,-0.5539,-0.6118,-0.6517,-0.7007,-0.7095,-0.7095,-0.7143,-0.7143,-0.7095,-0.7095,-0.7095,-0.7187,-0.7139,-0.7095,-0.7095,-0.7095,-0.7095,-0.7095,-0.7095,-0.7095,-0.7187,-0.7231,-0.7231,-0.7455,-0.7635,-0.7668,-0.7738,-0.8095,-0.8394,-0.8471,-0.8695,-0.9044,-0.9259,-0.949,-0.953,-0.9546,-0.9526,-0.9551,-0.9502,-0.947,-0.9437,-0.9453,-0.9518,-0.9535,-0.9547,-0.9543,-0.9539,-0.947,-0.934,-0.9267,-0.921,-0.906,-0.8897,-0.8844,-0.8848,-0.8787,-0.8727,-0.867,-0.8665,-0.8641,-0.8616,-0.8616,-0.8616,-0.0617,-0.0953,-0.1234,-0.1514,-0.1793,-0.182,-0.1807,-0.1686,-0.1692,-0.1669,-0.1603,-0.1635,-0.1572,-0.1567,-0.1516,-0.1566,-0.1566,-0.1566,-0.1516,-0.1516,-0.1566,-0.1516,-0.1464,-0.146,-0.15,-0.1527,-0.1449,-0.1419,-0.1485,-0.1416,-0.14,-0.1392,-0.1393,-0.1391,-0.1396,-0.1407,-0.1462,-0.1459,-0.1446,-0.1391,-0.1391,-0.1391,-0.1391,-0.1391,-0.1391,-0.1391,-0.1391,-0.1615,-0.2107,-0.2867,-0.3623,-0.4692,-0.5542,-0.6207,-0.6694,-0.7007,-0.7095,-0.7095,-0.7095,-0.7095,-0.7095,-0.7095,-0.7095,-0.7095,-0.7095,-0.7095,-0.7095,-0.7095,-0.7095,-0.7095,-0.7095,-0.7139,-0.7143,-0.7143,-0.7187,-0.7275,-0.7411,-0.7459,-0.7616,-0.7864,-0.8012,-0.8099,-0.8181,-0.8469,-0.8834,-0.9064,-0.9231,-0.9247,-0.9348,-0.9364,-0.9287,-0.9234,-0.9181,-0.9218,-0.9328,-0.9348,-0.9332,-0.9332,-0.9328,-0.9246,-0.9137,-0.908,-0.9051,-0.8922,-0.8771,-0.8702,-0.8645,-0.8649,-0.8637,-0.8645,-0.8616,-0.8616,-0.8616,-0.8616,-0.8616,-0.0336,-0.0617,-0.0729,-0.0953,-0.1232,-0.1212,-0.125,-0.1235,-0.1207,-0.1186,-0.1174,-0.1267,-0.1263,-0.1212,-0.1313,-0.1263,-0.1111,-0.1111,-0.1111,-0.1111,-0.1111,-0.1111,-0.1108,-0.1148,-0.1087,-0.1122,-0.1096,-0.1168,-0.1202,-0.1223,-0.1349,-0.1346,-0.1346,-0.1391,-0.1397,-0.1403,-0.1453,-0.1453,-0.1399,-0.1391,-0.1391,-0.1391,-0.1391,-0.1391,-0.1391,-0.1391,-0.1391,-0.1391,-0.2017,-0.2732,-0.3267,-0.4293,-0.5453,-0.6118,-0.6561,-0.7003,-0.7088,-0.7082,-0.7088,-0.7092,-0.7095,-0.7095,-0.7095,-0.7095,-0.7095,-0.7095,-0.7095,-0.7095,-0.7095,-0.7095,-0.7095,-0.7095,-0.7139,-0.7095,-0.7139,-0.7187,-0.7231,-0.7279,-0.7326,-0.7572,-0.7627,-0.7708,-0.7784,-0.7871,-0.8305,-0.8636,-0.8803,-0.8945,-0.9037,-0.9134,-0.9066,-0.9009,-0.8914,-0.9001,-0.9114,-0.9149,-0.9112,-0.912,-0.912,-0.8985,-0.89,-0.8926,-0.8877,-0.8755,-0.8682,-0.8637,-0.8645,-0.8624,-0.8616,-0.8616,-0.8616,-0.8616,-0.8616,-0.8616,-0.8616,-0.0112,-0.028,-0.0279,-0.0556,-0.0889,-0.0875,-0.086,-0.0899,-0.0882,-0.0819,-0.0808,-0.101,-0.096,-0.0909,-0.096,-0.101,-0.0859,-0.0859,-0.0808,-0.0808,-0.0859,-0.0805,-0.0799,-0.0841,-0.0882,-0.0774,-0.0803,-0.0925,-0.0971,-0.0951,-0.1033,-0.1122,-0.1211,-0.1211,-0.1391,-0.1391,-0.1395,-0.1446,-0.1394,-0.1391,-0.1391,-0.1391,-0.1391,-0.1391,-0.1391,-0.1391,-0.1391,-0.148,-0.1928,-0.2553,-0.3178,-0.3981,-0.5008,-0.5811,-0.6254,-0.6732,-0.7061,-0.7038,-0.7041,-0.7078,-0.7092,-0.7095,-0.7095,-0.7095,-0.7095,-0.7095,-0.7095,-0.7095,-0.7095,-0.7095,-0.7095,-0.7095,-0.7095,-0.7095,-0.7095,-0.7139,-0.7139,-0.7187,-0.7187,-0.7238,-0.7289,-0.7388,-0.7412,-0.7538,-0.7869,-0.8288,-0.8667,-0.8714,-0.8621,-0.8721,-0.877,-0.8722,-0.8633,-0.8742,-0.891,-0.8884,-0.8835,-0.8808,-0.8792,-0.8754,-0.8685,-0.8673,-0.8698,-0.8666,-0.8653,-0.8624,-0.8616,-0.8616,-0.8616,-0.8616,-0.8616,-0.8616,-0.8616,-0.8616,-0.8616,0.0,0.0,0.0,-0.0329,-0.0818,-0.086,-0.0846,-0.0781,-0.0767,-0.0759,-0.0707,-0.0758,-0.0808,-0.0758,-0.0758,-0.0758,-0.0707,-0.0707,-0.0707,-0.0657,-0.0653,-0.0699,-0.0741,-0.0686,-0.0629,-0.0762,-0.0701,-0.0647,-0.0738,-0.0724,-0.0763,-0.0762,-0.0852,-0.0987,-0.1346,-0.1391,-0.1451,-0.147,-0.1401,-0.1393,-0.1391,-0.1391,-0.1391,-0.1391,-0.1391,-0.1391,-0.1391,-0.1391,-0.1928,-0.2688,-0.2867,-0.3803,-0.5184,-0.5586,-0.6118,-0.6823,-0.694,-0.6927,-0.6916,-0.7028,-0.7071,-0.7092,-0.7095,-0.7095,-0.7095,-0.7095,-0.7095,-0.7095,-0.7095,-0.7095,-0.7095,-0.7095,-0.7095,-0.7095,-0.7095,-0.7095,-0.7095,-0.7095,-0.7095,-0.7095,-0.7095,-0.7143,-0.7143,-0.7231,-0.7504,-0.7905,-0.8385,-0.8498,-0.8329,-0.8325,-0.843,-0.8407,-0.8323,-0.8395,-0.8521,-0.8548,-0.8565,-0.8551,-0.8489,-0.843,-0.8387,-0.8419,-0.8476,-0.8524,-0.8524,-0.8476,-0.8524,-0.8568,-0.8568,-0.8616,-0.8616,-0.8616,-0.8616,-0.8616,-0.8616,0.0724,0.0,0.0,-0.0108,-0.0317,-0.0315,0.0,-0.0311,-0.0255,0.0,-0.0303,-0.0455,-0.0404,-0.0353,-0.0454,0.0,0.0,-0.0252,-0.0252,0.0,0.0,-0.0247,0.0,0.0,0.0,0.0,0.0,-0.0412,-0.0498,-0.0495,-0.0584,-0.0673,-0.0673,-0.0897,-0.1166,-0.1301,-0.1398,-0.1402,-0.1395,-0.1391,-0.1391,-0.1391,-0.1391,-0.1391,-0.1391,-0.1391,-0.1391,-0.1391,-0.1883,-0.2644,-0.2777,-0.3446,-0.4645,-0.509,-0.5755,-0.6287,-0.649,-0.7028,-0.6997,-0.7024,-0.7048,-0.7011,-0.7095,-0.7095,-0.7095,-0.7095,-0.7095,-0.7095,-0.7095,-0.7095,-0.7095,-0.7095,-0.7095,-0.7095,-0.7095,-0.7095,-0.7095,-0.7095,-0.7095,-0.7095,-0.7095,-0.7095,-0.7095,-0.7095,-0.7337,-0.7413,-0.7856,-0.803,-0.7979,-0.7997,-0.806,-0.8053,-0.8037,-0.8037,-0.8111,-0.8224,-0.8216,-0.8149,-0.812,-0.8082,-0.8088,-0.812,-0.8164,-0.8212,-0.8296,-0.834,-0.8384,-0.8432,-0.8568,-0.8616,-0.8568,-0.8616,-0.8616,-0.8616,-0.8616,0.111,0.0,0.0,0.0,0.0,0.0,0.0,0.0,0.0,0.0,0.0,-0.0202,-0.0202,-0.0101,-0.0151,-0.0201,0.0,0.0,0.0,0.0,0.0,0.0,0.0,0.0,0.0,0.0,0.0,-0.0091,-0.0228,-0.0272,-0.0318,-0.0408,-0.0585,-0.0673,-0.0897,-0.1077,-0.1302,-0.1303,-0.1346,-0.1391,-0.1391,-0.1391,-0.1391,-0.1391,-0.1391,-0.1391,-0.1391,-0.1525,-0.1659,-0.224,-0.2552,-0.2864,-0.3751,-0.4307,-0.4872,-0.5256,-0.5564,-0.5947,-0.5878,-0.5823,-0.5726,-0.5918,-0.6643,-0.7095,-0.7095,-0.7095,-0.7095,-0.7095,-0.7095,-0.7095,-0.7095,-0.7095,-0.6962,-0.6962,-0.6962,-0.6962,-0.7051,-0.7007,-0.7051,-0.7051,-0.7095,-0.7095,-0.7095,-0.7095,-0.7173,-0.7211,-0.7289,-0.7455,-0.7632,-0.7724,-0.7724,-0.772,-0.7724,-0.7782,-0.783,-0.7952,-0.79,-0.7768,-0.7768,-0.7812,-0.7856,-0.79,-0.79,-0.7896,-0.8025,-0.8109,-0.816,-0.8252,-0.8364,-0.846,-0.8524,-0.8568,-0.8616,-0.8616,-0.8616,0.1165,0.0,0.0,0.0,0.0,0.0,0.0,0.0,0.0,0.0,0.0,0.0,0.0,0.0,0.0,0.0,0.0,0.0,0.0,0.0,0.0,0.0,0.0,0.0,0.0,0.0,0.0,0.0,0.0,0.0,0.0,0.0,-0.0316,-0.0404,-0.0538,-0.0762,-0.1031,-0.1076,-0.1256,-0.1301,-0.1346,-0.1391,-0.1391,-0.1391,-0.1391,-0.1391,-0.1391,-0.1436,-0.1436,-0.1569,-0.1566,-0.2057,-0.2532,-0.2805,-0.3433,-0.3939,-0.4246,-0.4336,-0.4438,-0.4491,-0.4525,-0.4965,-0.5977,-0.665,-0.7007,-0.6962,-0.7095,-0.7007,-0.6918,-0.7007,-0.7095,-0.6874,-0.6694,-0.6694,-0.6694,-0.6738,-0.6874,-0.6918,-0.6962,-0.7007,-0.7095,-0.7095,-0.7095,-0.7095,-0.7095,-0.7139,-0.7187,-0.7187,-0.7363,-0.7411,-0.7411,-0.7319,-0.7367,-0.7503,-0.7547,-0.7632,-0.7632,-0.7499,-0.7588,-0.7632,-0.7676,-0.7621,-0.7599,-0.7636,-0.7782,-0.791,-0.7912,-0.8039,-0.8142,-0.8277,-0.8292,-0.8524,-0.8555,-0.8604,-0.8616,0.1852,0.0,0.0,0.0,0.0,0.0,0.0,0.0,0.0,0.0,0.0,0.0,0.0,0.0,0.0,0.0,0.0,0.0,0.0,0.0,0.0,0.0,0.0,0.0,0.0,0.0,0.0,0.0,0.0,0.0,0.0,0.0,0.0,0.0,0.0,-0.0448,-0.0628,-0.0852,-0.1032,-0.1166,-0.1256,-0.1301,-0.1346,-0.1391,-0.1391,-0.1391,-0.1391,-0.1391,-0.1391,-0.139,-0.1414,-0.1711,-0.1706,-0.2447,-0.3217,-0.4053,-0.4142,-0.4073,-0.4113,-0.4017,-0.3968,-0.4012,-0.4812,-0.5401,-0.5983,-0.652,-0.6827,-0.6605,-0.6337,-0.6248,-0.6204,-0.6068,-0.5983,-0.5983,-0.5894,-0.5802,-0.5935,-0.6115,-0.6251,-0.6786,-0.6874,-0.7007,-0.7007,-0.7095,-0.7095,-0.7095,-0.7095,-0.7095,-0.7139,-0.7231,-0.7231,-0.7143,-0.7143,-0.7279,-0.7279,-0.7319,-0.7275,-0.7275,-0.7363,-0.7408,-0.7363,-0.7346,-0.726,-0.7313,-0.7425,-0.757,-0.7662,-0.7795,-0.7877,-0.7927,-0.7995,-0.8286,-0.8502,-0.851,-0.8555,0.2484,0.0798,0.0679,0.0616,0.0556,0.0,0.0,0.0,0.0,0.0,0.0,0.0,0.0,0.0,0.0,0.0,0.0,0.0,0.0,0.0,0.0,0.0,0.0,0.0,0.0,0.0,0.0,0.0,0.0,0.0,0.0,0.0,0.0,0.0,0.0,-0.018,-0.0269,-0.0494,-0.0718,-0.0897,-0.1031,-0.1166,-0.1256,-0.1301,-0.1301,-0.1391,-0.1391,-0.1391,-0.1391,-0.1387,-0.1406,-0.1391,-0.1425,-0.1987,-0.2263,-0.2864,-0.287,-0.2807,-0.2787,-0.2831,-0.2978,-0.3225,-0.3536,-0.3993,-0.4592,-0.5184,-0.5536,-0.5669,-0.5447,-0.5228,-0.5181,-0.5134,-0.509,-0.5092,-0.4868,-0.4645,-0.4868,-0.5092,-0.5672,-0.6296,-0.6609,-0.6741,-0.6874,-0.7007,-0.7095,-0.7095,-0.7095,-0.7095,-0.7095,-0.7139,-0.7187,-0.7139,-0.7095,-0.7143,-0.7085,-0.7065,-0.7122,-0.7126,-0.7187,-0.7183,-0.7095,-0.7129,-0.7146,-0.7101,-0.7047,-0.7208,-0.7346,-0.744,-0.7525,-0.7597,-0.7724,-0.8008,-0.8197,-0.8247,-0.8312,0.2962,0.1905,0.1771,0.1637,0.1464,0.0606,0.0,0.0,0.0,0.0,0.0,0.0,0.0,0.0,0.0,0.0,0.0,0.0,0.0,0.0,0.0,0.0,0.0,0.0,0.0,0.0,0.0,0.0,0.0,0.0,0.0,0.0,0.0,0.0,0.0,0.0,0.0,-0.018,-0.0404,-0.0628,-0.0718,-0.0897,-0.1076,-0.1076,-0.1211,-0.1346,-0.1391,-0.1391,-0.1391,-0.1425,-0.141,-0.1391,-0.1402,-0.1411,-0.1492,-0.1514,-0.1741,-0.1765,-0.1794,-0.1803,-0.1672,-0.188,-0.2169,-0.2674,-0.3269,-0.4281,-0.4821,-0.4823,-0.4601,-0.4603,-0.4556,-0.3976,-0.371,-0.3799,-0.3757,-0.3755,-0.4022,-0.438,-0.4959,-0.5492,-0.5628,-0.5805,-0.6115,-0.616,-0.6517,-0.6786,-0.7095,-0.7095,-0.7051,-0.7051,-0.7027,-0.7024,-0.7045,-0.7021,-0.698,-0.6977,-0.7038,-0.7058,-0.7078,-0.7095,-0.7095,-0.7088,-0.7082,-0.7041,-0.6999,-0.6902,-0.7006,-0.7143,-0.7291,-0.7371,-0.7506,-0.7708,-0.7867,-0.8002,-0.8182,0.3334,0.2861,0.2811,0.2377,0.1613,0.1311,0.0706,0.0,0.0,0.0,0.0,0.0,0.0,0.0,0.0,0.0,0.0,0.0,0.0,0.0,0.0,0.0,0.0,0.0,0.0,0.0,0.0,0.0,0.0,0.0,0.0,0.0,0.0,0.0,0.0,0.0,0.0,0.0,0.0,0.0,-0.0493,-0.0628,-0.0807,-0.0897,-0.1031,-0.1166,-0.1256,-0.1346,-0.1391,-0.1385,-0.1405,-0.137,-0.1324,-0.1329,-0.1307,-0.1298,-0.1298,-0.1314,-0.1292,-0.1305,-0.1326,-0.1354,-0.1635,-0.1693,-0.2279,-0.3503,-0.4107,-0.3931,-0.3888,-0.3888,-0.3666,-0.2953,-0.2422,-0.2556,-0.2693,-0.296,-0.3184,-0.3676,-0.4255,-0.4476,-0.461,-0.4868,-0.5179,-0.5536,-0.5894,-0.634,-0.6874,-0.7051,-0.6915,-0.6864,-0.6792,-0.6776,-0.691,-0.6923,-0.69,-0.693,-0.7011,-0.7041,-0.7055,-0.7075,-0.7095,-0.7038,-0.6997,-0.7021,-0.6984,-0.6893,-0.6887,-0.6947,-0.71,-0.7191,-0.7364,-0.7599,-0.7806,-0.794,-0.8112,0.4122,0.3925,0.3401,0.2871,0.2267,0.1815,0.1009,0.0,0.0,0.0,0.0,0.0,0.0,0.0,0.0,0.0,0.0,0.0,0.0,0.0,0.0,0.0,0.0,0.0,0.0,0.0,0.0,0.0,0.0,0.0,0.0,0.0,0.0,0.0,0.0,0.0,0.0,0.0,0.0,0.0,0.0,-0.0404,-0.0538,-0.0628,-0.0852,-0.1031,-0.1166,-0.1301,-0.1391,-0.1377,-0.135,-0.134,-0.1299,-0.131,-0.13,-0.1297,-0.13,-0.131,-0.1293,-0.1309,-0.1323,-0.1354,-0.1376,-0.1522,-0.1548,-0.2593,-0.2639,-0.2506,-0.2508,-0.2508,-0.2506,-0.1971,-0.19,-0.1999,-0.2008,-0.2151,-0.2247,-0.2525,-0.3111,-0.3597,-0.3801,-0.4067,-0.4378,-0.4779,-0.5092,-0.5092,-0.5758,-0.598,-0.6024,-0.6378,-0.6396,-0.6483,-0.6554,-0.687,-0.6991,-0.7001,-0.7024,-0.7038,-0.7034,-0.7068,-0.7082,-0.6974,-0.691,-0.6984,-0.698,-0.6898,-0.6859,-0.6912,-0.6982,-0.7067,-0.7233,-0.7482,-0.7671,-0.781,-0.7904,0.4957,0.4832,0.4003,0.3525,0.3272,0.2469,0.1459,0.0,0.0,0.0,0.0,0.0,0.0,0.0,0.0,0.0,0.0,0.0,0.0,0.0,0.0,0.0,0.0,0.0,0.0,0.0,0.0,0.0,0.0,0.0,0.0,0.0,0.0,0.0,0.0,0.0,0.0,0.0,0.0,0.0,0.0,-0.0225,-0.0314,-0.0494,-0.0762,-0.0987,-0.1076,-0.1211,-0.1346,-0.137,-0.1298,-0.1337,-0.1301,-0.1319,-0.1319,-0.1318,-0.1324,-0.1295,-0.1307,-0.1315,-0.1341,-0.1367,-0.1382,-0.1401,-0.1423,-0.1478,-0.1523,-0.1524,-0.148,-0.1481,-0.148,-0.1529,-0.1545,-0.1568,-0.153,-0.154,-0.1591,-0.1638,-0.2184,-0.2771,-0.2961,-0.3187,-0.3489,-0.3888,-0.4111,-0.4111,-0.4245,-0.4289,-0.451,-0.5129,-0.5455,-0.5791,-0.6092,-0.642,-0.688,-0.7028,-0.7011,-0.7021,-0.7021,-0.7065,-0.7078,-0.7014,-0.6984,-0.7018,-0.698,-0.6949,-0.6888,-0.6904,-0.6919,-0.6968,-0.7201,-0.7378,-0.7471,-0.7591,-0.7621,0.492,0.4857,0.5489,0.5281,0.4481,0.423,0.3545,0.2415,0.1521,0.125,0.0893,0.0,0.0,0.0,0.0,0.0,0.0,0.0,0.0,0.0,0.0,0.0,0.0,0.0,0.0,0.0,0.0,0.0,0.0,0.0,0.0,0.0,0.0,0.0,0.0,0.0,0.0,0.0,0.0,0.0,0.0,0.0,0.0,-0.0225,-0.0359,-0.0493,-0.0628,-0.0942,-0.1121,-0.1196,-0.1255,-0.1306,-0.1324,-0.1305,-0.1305,-0.1311,-0.1317,-0.1326,-0.1293,-0.1338,-0.1363,-0.1327,-0.1384,-0.1397,-0.1416,-0.1429,-0.1431,-0.1435,-0.1436,-0.1438,-0.1438,-0.144,-0.1453,-0.1533,-0.1506,-0.1515,-0.157,-0.1554,-0.1771,-0.1938,-0.196,-0.2075,-0.2106,-0.2597,-0.3133,-0.331,-0.371,-0.3755,-0.3799,-0.4196,-0.4548,-0.4945,-0.5385,-0.6125,-0.6626,-0.6943,-0.6967,-0.6984,-0.7014,-0.7065,-0.7095,-0.7092,-0.7082,-0.7071,-0.7075,-0.7038,-0.698,-0.691,-0.684,-0.686,-0.7161,-0.7339,-0.7292,-0.7071,-0.6857]}]]